[[{"header":{"parameterUnit":"m.s-1","parameterCategory":1,"la1":31.0,"la2":29.5877,"lo1":-88.7671,"lo2":-86.6584,"dy":0.0162,"dx":0.0185,"nx":115,"ny":88,"refTime":"2024-09-22T18:00:00:Z","depth":0,"parameterNumber":2,"parameterNumberName":"U-component_of_WINDS"},"data":[0.0,0.0,0.0,0.0,0.0,0.0,0.0,0.0,0.0,0.0,0.0,0.0,0.0,0.0,0.0,0.0,0.0,0.0,0.0,0.0,0.0,0.0,0.0,0.0,0.0,0.0,0.0,0.0,0.0,0.0,0.0,0.0,0.0,0.0,0.0,0.0,0.0,0.0,0.0,0.0,0.0,0.0,0.0,0.0,0.0,0.0,0.0,0.0,0.0,0.0,0.0,0.0,0.0,0.0,0.0,0.0,0.0,0.0,0.0,0.0,0.0,0.0,0.0,0.0,0.0,0.0,0.0,0.0,0.0,0.0,0.0,0.0,0.0,0.0,0.0,0.0,0.0,0.0,0.0,0.0,0.0,0.0,0.0,0.0,0.0,0.0,0.0,0.0,0.0,0.0,0.0,0.0,0.0,0.0,0.0,0.0,0.0,0.0,0.0,0.0,0.0,0.0,0.0,0.0,0.0,0.0,0.0,0.0,0.0,0.0,0.0,0.0,0.0,0.0,0.0,0.0,0.0,0.0,0.0,0.0,0.0,0.0,0.0,0.0,0.0,0.0,0.0,0.0,0.0,0.0,0.0,0.0,0.0,0.0,0.0,0.0,0.0,0.0,0.0,0.0,0.0,0.0,0.0,0.0,0.0,0.0,0.0,0.0,0.0,0.0,0.0,0.0,0.0,0.0,0.0,0.0,0.0,0.0,0.0,0.0,0.0,0.0,0.0,0.0,0.0,0.0,0.0,0.0,0.0,0.0,0.0,0.0,0.0,0.0,0.0,0.0,0.0,0.0,0.0,0.0,0.0,0.0,0.0,0.0,0.0,0.0,0.0,0.0,0.0,0.0,0.0,0.0,0.0,0.0,0.0,0.0,0.0,0.0,0.0,0.0,0.0,0.0,0.0,0.0,0.0,0.0,0.0,0.0,0.0,0.0,0.0,0.0,0.0,0.0,0.0,0.0,0.0,0.0,0.0,0.0,0.0,0.0,0.0,0.0,0.0,0.0,0.0,0.0,0.0,0.0,0.0,0.0,0.0,0.0,0.0,0.0,0.0,0.0,0.0,0.0,0.0,0.0,0.0,0.0,0.0,0.0,0.0,0.0,0.0,0.0,0.0,0.0,0.0,0.0,0.0,0.0,0.0,0.0,0.0,0.0,0.0,0.0,0.0,0.0,0.0,0.0,0.0,0.0,0.0,0.0,0.0,0.0,0.0,0.0,0.0,0.0,0.0,0.0,0.0,0.0,0.0,0.0,0.0,0.0,0.0,0.0,0.0,0.0,0.0,0.0,0.0,0.0,0.0,0.0,0.0,0.0,0.0,0.0,0.0,0.0,0.0,0.0,0.0,0.0,0.0,0.0,0.0,0.0,0.0,0.0,0.0,0.0,0.0,0.0,0.0,0.0,0.0,0.0,0.0,0.0,0.0,0.0,0.0,0.0,0.0,0.0,0.0,0.0,0.0,0.0,0.0,0.0,0.0,0.0,0.0,0.0,0.0,0.0,0.0,0.0,0.0,0.0,0.0,0.0,0.0,0.0,0.0,0.0,0.0,0.0,0.0,0.0,0.0,0.0,0.0,0.0,0.0,0.0,0.0,0.0,0.0,0.0,0.0,0.0,0.0,0.0,0.0,0.0,0.0,0.0,0.0,0.0,0.0,0.0,0.0,0.0,0.0,0.0,0.0,0.0,0.0,0.0,0.0,0.0,0.0,0.0,0.0,0.0,0.0,0.0,0.0,0.0,0.0,0.0,0.0,0.0,0.0,0.0,0.0,0.0,0.0,0.0,0.0,0.0,0.0,0.0,0.0,0.0,0.0,0.0,0.0,0.0,0.0,0.0,0.0,0.0,0.0,0.0,0.0,0.0,0.0,0.0,0.0,0.0,0.0,0.0,0.0,0.0,0.0,0.0,0.0,0.0,0.0,0.0,0.0,0.0,0.0,0.0,0.0,0.0,0.0,0.0,0.0,0.0,0.0,0.0,0.0,0.0,0.0,0.0,0.0,0.0,0.0,0.0,0.0,0.0,0.0,0.0,0.0,0.0,0.0,0.0,0.0,0.0,0.0,0.0,0.0,0.0,0.0,0.0,0.0,0.0,0.0,0.0,0.0,0.0,0.0,0.0,0.0,0.0,0.0,0.0,0.0,0.0,0.0,0.0,0.0,0.0,0.0,0.0,0.0,0.0,0.0,0.0,0.0,0.0,0.0,0.0,0.0,0.0,0.0,0.0,0.0,0.0,0.0,0.0,0.0,0.0,0.0,0.0,0.0,0.0,0.0,0.0,0.0,0.0,0.0,0.0,0.0,0.0,0.0,0.0,0.0,0.0,0.0,0.0,0.0,0.0,0.0,0.0,0.0,0.0,0.0,0.0,0.0,0.0,0.0,0.0,0.0,0.0,0.0,0.0,0.0,0.0,0.0,0.0,0.0,0.0,0.0,0.0,0.0,0.0,0.0,0.0,0.0,0.0,0.0,0.0,0.0,0.0,0.0,0.0,0.0,0.0,0.0,0.0,0.0,0.0,0.0,0.0,0.0,0.0,0.0,0.0,0.0,0.0,0.0,0.0,0.0,0.0,0.0,0.0,0.0,0.0,0.0,0.0,0.0,0.0,0.0,0.0,0.0,0.0,0.0,0.0,0.0,0.0,0.0,0.0,0.0,0.0,0.0,0.0,0.0,0.0,0.0,0.0,0.0,0.0,0.0,0.0,0.0,0.0,0.0,0.0,0.0,0.0,0.0,0.0,0.0,0.0,0.0,0.0,0.0,0.0,0.0,0.0,0.0,0.0,0.0,0.0,0.0,0.0,0.0,0.0,0.0,0.0,0.0,0.0,0.0,0.0,0.0,0.0,0.0,0.0,0.0,0.0,0.0,0.0,0.0,0.0,0.0,0.0,0.0,0.0,0.0,0.0,0.0,0.0,0.0,0.0,0.0,0.0,0.0,0.0,0.0,0.0,0.0,0.0,0.0,0.0,0.0,0.0,0.0,0.0,0.0,0.0,0.0,0.0,0.0,0.0,0.0,0.0,0.0,0.0,0.0,0.0,0.0,0.0,0.0,0.0,0.0,0.0,0.0,0.0,0.0,0.0,0.0,0.0,0.0,0.0,0.0,0.0,0.0,0.0,0.0,0.0,0.0,0.0,0.0,0.0,0.0,0.0,0.0,0.0,0.0,0.0,0.0,0.0,0.0,0.0,0.0,0.0,0.0,0.0,0.0,0.0,0.0,0.0,0.0,0.0,0.0,0.0,0.0,0.0,0.0,0.0,0.0,0.0,0.0,0.0,0.0,0.0,0.0,0.0,0.0,0.0,0.0,0.0,0.0,0.0,0.0,0.0,0.0,0.0,0.0,0.0,0.0,0.0,0.0,0.0,0.0,0.0,0.0,0.0,0.0,0.0,0.0,0.0,0.0,0.0,0.0,0.0,0.0,0.0,0.0,0.0,0.0,0.0,0.0,0.0,0.0,0.0,0.0,0.0,0.0,0.0,0.0,0.0,0.0,0.0,0.0,0.0,0.0,0.0,0.0,0.0,0.0,0.0,0.0,0.0,0.0,0.0,0.0,0.0,0.0,0.0,0.0,0.0,0.0,0.0,0.0,0.0,0.0,0.0,0.0,0.0,0.0,0.0,0.0,0.0,0.0,0.0,0.0,0.0,0.0,0.0,0.0,0.0,0.0,0.0,0.0,0.0,0.0,0.0,0.0,0.0,0.0,0.0,0.0,0.0,0.0,0.0,0.0,0.0,0.0,0.0,0.0,0.0,0.0,0.0,0.0,0.0,0.0,0.0,0.0,0.0,0.0,0.0,0.0,0.0,0.0,0.0,0.0,0.0,0.0,0.0,0.0,0.0,0.0,0.0,0.0,0.0,0.0,0.0,0.0,0.0,0.0,0.0,0.0,0.0,0.0,0.0,0.0,0.0,0.0,0.0,0.0,0.0,0.0,0.0,0.0,0.0,0.0,0.0,0.0,0.0,0.0,0.0,0.0,0.0,0.0,0.0,0.0,0.0,0.0,0.0,0.0,0.0,0.0,0.0,0.0,0.0,0.0,0.0,0.0,0.0,0.0,0.0,0.0,0.0,0.0,0.0,0.0,0.0,0.0,0.0,0.0,0.0,0.0,0.0,0.0,0.0,0.0,0.0,0.0,0.0,0.0,0.0,0.0,0.0,0.0,0.0,0.0,0.0,0.0,0.0,0.0,0.0,0.0,0.0,0.0,0.0,0.0,0.0,0.0,0.0,0.0,0.0,0.0,0.0,0.0,0.0,0.0,0.0,0.0,0.0,4.2162,0.0,0.0,0.0,0.0,0.0,0.0,0.0,0.0,0.0,0.0,0.0,0.0,0.0,0.0,0.0,0.0,0.0,0.0,0.0,0.0,0.0,0.0,0.0,0.0,0.0,0.0,0.0,0.0,0.0,0.0,0.0,0.0,0.0,0.0,0.0,0.0,0.0,0.0,0.0,0.0,0.0,0.0,0.0,0.0,0.0,0.0,0.0,0.0,0.0,0.0,0.0,0.0,0.0,0.0,0.0,0.0,0.0,0.0,0.0,0.0,0.0,0.0,0.0,0.0,0.0,0.0,0.0,0.0,0.0,0.0,0.0,0.0,0.0,0.0,0.0,0.0,0.0,0.0,0.0,0.0,0.0,0.0,0.0,0.0,0.0,0.0,0.0,0.0,0.0,0.0,0.0,0.0,0.0,0.0,0.0,0.0,0.0,0.0,0.0,0.0,0.0,0.0,0.0,0.0,0.0,0.0,0.0,0.0,0.0,0.0,4.4466,4.3808,4.3778,4.318,4.1893,0.0,0.0,0.0,0.0,0.0,0.0,0.0,0.0,0.0,0.0,0.0,0.0,0.0,0.0,0.0,0.0,0.0,0.0,0.0,0.0,0.0,0.0,0.0,0.0,0.0,0.0,0.0,0.0,0.0,0.0,0.0,0.0,0.0,0.0,0.0,0.0,0.0,0.0,0.0,0.0,0.0,0.0,0.0,0.0,0.0,0.0,0.0,0.0,0.0,0.0,0.0,0.0,0.0,0.0,0.0,0.0,0.0,0.0,0.0,0.0,0.0,0.0,0.0,0.0,0.0,0.0,0.0,0.0,0.0,0.0,0.0,0.0,0.0,0.0,0.0,0.0,0.0,0.0,0.0,0.0,0.0,0.0,0.0,0.0,0.0,0.0,0.0,0.0,0.0,0.0,0.0,0.0,0.0,0.0,0.0,0.0,0.0,0.0,0.0,0.0,0.0,0.0,0.0,0.0,0.0,0.0,0.0,0.0,0.0,0.0,0.0,0.0,4.4377,4.3838,4.2581,0.0,0.0,0.0,0.0,0.0,0.0,0.0,0.0,0.0,0.0,0.0,0.0,0.0,0.0,0.0,0.0,0.0,0.0,0.0,0.0,0.0,0.0,0.0,0.0,0.0,0.0,0.0,0.0,0.0,0.0,0.0,0.0,0.0,0.0,0.0,0.0,0.0,0.0,0.0,0.0,0.0,0.0,0.0,0.0,0.0,0.0,0.0,0.0,0.0,0.0,0.0,0.0,0.0,0.0,0.0,0.0,0.0,0.0,0.0,0.0,0.0,0.0,0.0,0.0,0.0,0.0,0.0,0.0,0.0,0.0,0.0,0.0,0.0,0.0,0.0,0.0,0.0,0.0,0.0,0.0,0.0,0.0,0.0,0.0,0.0,0.0,0.0,0.0,0.0,0.0,0.0,0.0,0.0,0.0,0.0,0.0,0.0,0.0,0.0,0.0,0.0,0.0,0.0,0.0,0.0,0.0,0.0,0.0,0.0,0.0,4.4556,4.689,4.7489,0.0,4.5848,0.0,0.0,0.0,0.0,0.0,0.0,0.0,0.0,0.0,0.0,0.0,0.0,0.0,0.0,0.0,0.0,0.0,0.0,0.0,0.0,0.0,0.0,0.0,0.0,0.0,0.0,0.0,0.0,0.0,0.0,0.0,0.0,0.0,0.0,0.0,0.0,0.0,0.0,0.0,0.0,0.0,0.0,0.0,0.0,0.0,0.0,0.0,0.0,0.0,0.0,0.0,0.0,0.0,0.0,0.0,0.0,0.0,0.0,0.0,0.0,0.0,0.0,0.0,0.0,0.0,0.0,0.0,0.0,0.0,0.0,0.0,0.0,0.0,0.0,0.0,0.0,0.0,0.0,0.0,0.0,0.0,0.0,0.0,0.0,0.0,0.0,0.0,0.0,0.0,0.0,0.0,0.0,0.0,0.0,0.0,0.0,0.0,0.0,0.0,0.0,0.0,0.0,0.0,0.0,0.0,0.0,0.0,0.0,0.0,0.0,4.5633,4.6711,4.6591,4.6471,0.0,0.0,0.0,0.0,0.0,0.0,0.0,0.0,0.0,0.0,0.0,0.0,0.0,0.0,0.0,0.0,0.0,0.0,0.0,0.0,0.0,0.0,0.0,0.0,0.0,0.0,0.0,0.0,0.0,0.0,0.0,0.0,0.0,0.0,0.0,0.0,0.0,0.0,0.0,0.0,0.0,0.0,0.0,0.0,0.0,0.0,0.0,0.0,0.0,0.0,0.0,0.0,0.0,0.0,0.0,0.0,0.0,0.0,0.0,0.0,0.0,0.0,0.0,0.0,0.0,0.0,0.0,0.0,0.0,0.0,0.0,0.0,0.0,0.0,0.0,0.0,0.0,0.0,0.0,0.0,0.0,0.0,0.0,0.0,0.0,0.0,0.0,0.0,0.0,0.0,0.0,0.0,0.0,0.0,0.0,0.0,0.0,0.0,0.0,0.0,0.0,0.0,0.0,0.0,0.0,0.0,0.0,0.0,0.0,0.0,4.5274,4.6471,4.7309,4.692,4.6292,4.5514,0.0,0.0,0.0,0.0,0.0,0.0,0.0,0.0,0.0,0.0,0.0,0.0,0.0,0.0,0.0,0.0,0.0,0.0,0.0,0.0,0.0,0.0,0.0,0.0,0.0,0.0,0.0,0.0,0.0,0.0,0.0,0.0,0.0,0.0,0.0,0.0,0.0,0.0,0.0,0.0,0.0,0.0,0.0,0.0,0.0,0.0,0.0,0.0,0.0,0.0,0.0,0.0,0.0,0.0,0.0,0.0,0.0,0.0,0.0,0.0,0.0,0.0,0.0,0.0,0.0,0.0,0.0,0.0,0.0,0.0,0.0,0.0,0.0,0.0,0.0,0.0,0.0,0.0,0.0,0.0,0.0,0.0,0.0,0.0,0.0,0.0,0.0,0.0,0.0,0.0,0.0,0.0,0.0,0.0,0.0,0.0,0.0,0.0,0.0,0.0,0.0,0.0,0.0,0.0,0.0,0.0,0.0,0.0,4.9284,4.683,4.686,4.9912,5.0002,4.7967,0.0,0.0,0.0,0.0,0.0,0.0,0.0,0.0,0.0,0.0,0.0,0.0,0.0,0.0,0.0,0.0,0.0,0.0,0.0,0.0,0.0,0.0,0.0,0.0,0.0,0.0,0.0,0.0,0.0,0.0,0.0,0.0,0.0,0.0,0.0,0.0,0.0,0.0,0.0,0.0,0.0,0.0,0.0,0.0,0.0,0.0,0.0,0.0,0.0,0.0,0.0,0.0,0.0,0.0,0.0,0.0,0.0,0.0,0.0,0.0,0.0,0.0,0.0,0.0,0.0,0.0,0.0,0.0,0.0,0.0,0.0,0.0,0.0,0.0,0.0,0.0,0.0,0.0,0.0,0.0,0.0,0.0,0.0,0.0,0.0,0.0,0.0,0.0,0.0,0.0,0.0,0.0,0.0,0.0,0.0,0.0,0.0,0.0,0.0,0.0,0.0,0.0,0.0,0.0,0.0,0.0,0.0,0.0,0.0,4.324,4.4167,4.707,5.1738,4.8087,4.5843,0.0,0.0,0.0,0.0,0.0,0.0,0.0,0.0,0.0,0.0,0.0,0.0,0.0,0.0,0.0,0.0,0.0,0.0,0.0,0.0,0.0,0.0,0.0,0.0,0.0,0.0,0.0,0.0,0.0,0.0,0.0,0.0,0.0,0.0,0.0,0.0,0.0,0.0,0.0,0.0,0.0,0.0,0.0,0.0,0.0,0.0,0.0,0.0,0.0,0.0,0.0,0.0,0.0,0.0,0.0,0.0,0.0,0.0,0.0,0.0,0.0,0.0,0.0,0.0,0.0,0.0,0.0,0.0,0.0,0.0,0.0,0.0,0.0,0.0,0.0,0.0,0.0,0.0,0.0,0.0,0.0,0.0,0.0,0.0,0.0,0.0,0.0,0.0,0.0,0.0,0.0,0.0,0.0,0.0,0.0,0.0,0.0,0.0,0.0,0.0,0.0,0.0,0.0,0.0,0.0,0.0,0.0,0.0,0.0,4.1983,0.0,4.8416,5.1229,4.7309,4.4706,0.0,0.0,0.0,0.0,0.0,0.0,0.0,0.0,0.0,0.0,0.0,0.0,0.0,0.0,0.0,0.0,0.0,0.0,0.0,0.0,0.0,0.0,0.0,0.0,0.0,0.0,0.0,0.0,0.0,0.0,0.0,0.0,0.0,0.0,0.0,0.0,0.0,0.0,0.0,0.0,0.0,0.0,0.0,0.0,0.0,0.0,0.0,0.0,0.0,0.0,0.0,0.0,0.0,0.0,0.0,0.0,0.0,0.0,0.0,0.0,0.0,0.0,0.0,0.0,0.0,0.0,0.0,0.0,0.0,0.0,0.0,0.0,0.0,0.0,0.0,0.0,0.0,0.0,0.0,0.0,0.0,0.0,0.0,0.0,0.0,0.0,0.0,0.0,0.0,0.0,0.0,0.0,0.0,0.0,0.0,0.0,0.0,0.0,0.0,0.0,0.0,0.0,0.0,0.0,0.0,0.0,0.0,0.0,4.1354,4.695,5.0242,5.072,4.8476,4.8177,4.4825,0.0,0.0,0.0,0.0,0.0,0.0,0.0,0.0,0.0,0.0,0.0,0.0,0.0,0.0,0.0,0.0,0.0,0.0,0.0,0.0,0.0,0.0,0.0,0.0,0.0,0.0,0.0,0.0,0.0,0.0,0.0,0.0,0.0,0.0,0.0,0.0,0.0,0.0,0.0,0.0,0.0,0.0,0.0,0.0,0.0,0.0,0.0,0.0,0.0,0.0,0.0,0.0,0.0,0.0,0.0,0.0,0.0,0.0,0.0,0.0,0.0,0.0,0.0,0.0,0.0,0.0,0.0,0.0,0.0,0.0,0.0,0.0,0.0,0.0,0.0,0.0,0.0,0.0,0.0,0.0,0.0,0.0,0.0,0.0,0.0,0.0,0.0,0.0,0.0,0.0,0.0,0.0,0.0,0.0,0.0,0.0,0.0,0.0,0.0,0.0,0.0,0.0,0.0,0.0,0.0,0.0,0.0,0.0,0.0,4.4616,4.7788,5.0212,5.1439,4.7219,4.4885,0.0,0.0,0.0,0.0,0.0,0.0,0.0,0.0,0.0,0.0,0.0,0.0,0.0,0.0,0.0,0.0,0.0,0.0,0.0,0.0,0.0,0.0,0.0,0.0,0.0,0.0,0.0,0.0,0.0,0.0,0.0,0.0,0.0,0.0,0.0,0.0,0.0,0.0,0.0,0.0,0.0,0.0,0.0,0.0,0.0,0.0,0.0,0.0,0.0,0.0,0.0,0.0,0.0,0.0,0.0,0.0,0.0,0.0,0.0,0.0,0.0,0.0,0.0,0.0,0.0,0.0,0.0,0.0,0.0,0.0,0.0,0.0,0.0,0.0,0.0,0.0,0.0,0.0,0.0,0.0,0.0,0.0,0.0,0.0,0.0,0.0,0.0,0.0,0.0,0.0,0.0,0.0,0.0,0.0,0.0,0.0,0.0,0.0,0.0,0.0,0.0,0.0,0.0,0.0,0.0,0.0,0.0,0.0,0.0,4.7549,5.0361,5.2336,5.3144,4.8686,4.6292,4.6322,0.0,0.0,0.0,0.0,0.0,0.0,0.0,0.0,0.0,0.0,0.0,0.0,0.0,0.0,0.0,0.0,0.0,0.0,0.0,0.0,0.0,0.0,0.0,0.0,0.0,0.0,0.0,0.0,0.0,0.0,0.0,0.0,0.0,0.0,0.0,0.0,0.0,0.0,0.0,0.0,0.0,0.0,0.0,0.0,0.0,0.0,0.0,0.0,0.0,0.0,0.0,0.0,0.0,0.0,0.0,0.0,0.0,0.0,0.0,0.0,0.0,0.0,0.0,0.0,0.0,0.0,0.0,0.0,0.0,0.0,0.0,0.0,0.0,0.0,0.0,0.0,0.0,0.0,0.0,0.0,0.0,0.0,0.0,0.0,0.0,0.0,0.0,0.0,0.0,0.0,0.0,0.0,0.0,0.0,0.0,0.0,0.0,0.0,0.0,0.0,0.0,0.0,0.0,0.0,0.0,0.0,0.0,0.0,5.4281,5.7034,5.6944,5.3862,5.2157,4.8955,0.0,0.0,0.0,0.0,0.0,0.0,0.0,0.0,0.0,0.0,0.0,0.0,0.0,0.0,0.0,0.0,0.0,0.0,0.0,0.0,0.0,0.0,0.0,0.0,0.0,0.0,0.0,0.0,0.0,0.0,0.0,0.0,0.0,0.0,0.0,0.0,0.0,0.0,0.0,0.0,0.0,0.0,0.0,0.0,0.0,0.0,0.0,0.0,0.0,0.0,0.0,0.0,0.0,0.0,0.0,0.0,0.0,0.0,0.0,0.0,0.0,0.0,0.0,0.0,0.0,0.0,0.0,0.0,0.0,0.0,0.0,0.0,0.0,0.0,0.0,0.0,0.0,0.0,0.0,0.0,0.0,0.0,0.0,0.0,0.0,0.0,0.0,0.0,0.0,0.0,0.0,0.0,0.0,0.0,0.0,0.0,0.0,0.0,0.0,0.0,0.0,0.0,0.0,0.0,0.0,0.0,0.0,0.0,0.0,5.5748,6.0116,6.1613,5.9727,5.5149,5.1798,0.0,0.0,0.0,0.0,0.0,0.0,0.0,0.0,0.0,0.0,0.0,0.0,0.0,0.0,0.0,0.0,0.0,0.0,0.0,0.0,0.0,0.0,0.0,0.0,0.0,0.0,0.0,0.0,0.0,0.0,0.0,0.0,0.0,0.0,0.0,0.0,0.0,0.0,0.0,0.0,0.0,0.0,0.0,0.0,0.0,0.0,0.0,0.0,0.0,0.0,0.0,0.0,0.0,0.0,0.0,0.0,0.0,0.0,0.0,0.0,0.0,0.0,0.0,0.0,0.0,0.0,0.0,0.0,0.0,0.0,0.0,0.0,0.0,0.0,0.0,0.0,0.0,0.0,0.0,0.0,0.0,0.0,0.0,0.0,0.0,0.0,0.0,0.0,0.0,0.0,0.0,0.0,0.0,0.0,0.0,0.0,0.0,0.0,0.0,0.0,0.0,0.0,0.0,0.0,0.0,0.0,0.0,0.0,5.6346,5.9039,6.2869,6.4485,6.3737,5.9069,5.4999,0.0,0.0,0.0,0.0,0.0,0.0,0.0,0.0,0.0,0.0,0.0,0.0,0.0,0.0,0.0,0.0,0.0,0.0,0.0,0.0,0.0,0.0,0.0,0.0,0.0,0.0,0.0,0.0,0.0,0.0,0.0,0.0,0.0,0.0,0.0,0.0,0.0,0.0,0.0,0.0,0.0,0.0,0.0,0.0,0.0,0.0,0.0,0.0,0.0,0.0,0.0,0.0,0.0,0.0,0.0,0.0,0.0,0.0,0.0,0.0,0.0,0.0,0.0,0.0,0.0,0.0,0.0,0.0,0.0,0.0,0.0,0.0,0.0,0.0,0.0,0.0,0.0,0.0,0.0,0.0,0.0,0.0,0.0,0.0,0.0,0.0,0.0,0.0,0.0,0.0,0.0,0.0,0.0,0.0,0.0,0.0,0.0,0.0,0.0,0.0,0.0,0.0,0.0,0.0,0.0,0.0,0.0,0.0,5.865,6.2869,6.5024,6.6071,6.5922,6.275,5.8082,0.0,0.0,0.0,0.0,0.0,0.0,0.0,0.0,0.0,0.0,0.0,0.0,0.0,0.0,0.0,0.0,0.0,0.0,0.0,0.0,0.0,0.0,0.0,0.0,0.0,0.0,0.0,0.0,0.0,0.0,0.0,0.0,0.0,0.0,0.0,0.0,0.0,0.0,0.0,0.0,0.0,0.0,0.0,0.0,0.0,0.0,0.0,0.0,0.0,0.0,0.0,0.0,0.0,0.0,0.0,0.0,0.0,0.0,0.0,0.0,0.0,0.0,0.0,0.0,0.0,0.0,0.0,0.0,0.0,0.0,0.0,0.0,0.0,0.0,0.0,0.0,0.0,0.0,0.0,0.0,0.0,0.0,0.0,0.0,0.0,0.0,0.0,0.0,0.0,0.0,0.0,0.0,0.0,0.0,0.0,0.0,0.0,0.0,0.0,0.0,0.0,0.0,0.0,0.0,0.0,0.0,0.0,0.0,6.0236,6.2271,6.5233,6.655,6.6011,6.2301,5.8441,0.0,0.0,0.0,0.0,0.0,0.0,0.0,0.0,0.0,0.0,0.0,0.0,0.0,0.0,0.0,0.0,0.0,0.0,0.0,0.0,0.0,0.0,0.0,0.0,0.0,0.0,0.0,0.0,0.0,0.0,0.0,0.0,0.0,0.0,0.0,0.0,0.0,0.0,0.0,0.0,0.0,0.0,0.0,0.0,0.0,0.0,0.0,0.0,4.4796,0.0,0.0,0.0,0.0,0.0,0.0,0.0,0.0,0.0,0.0,0.0,0.0,0.0,0.0,0.0,0.0,0.0,0.0,0.0,0.0,0.0,0.0,0.0,0.0,0.0,0.0,0.0,0.0,0.0,0.0,0.0,0.0,0.0,0.0,0.0,0.0,0.0,0.0,0.0,0.0,0.0,0.0,0.0,0.0,0.0,0.0,0.0,0.0,0.0,0.0,0.0,0.0,0.0,0.0,0.0,0.0,0.0,0.0,0.0,6.1972,6.3887,6.5922,6.6819,6.637,6.3498,5.9568,0.0,0.0,0.0,0.0,0.0,0.0,0.0,0.0,0.0,0.0,0.0,0.0,0.0,0.0,0.0,0.0,0.0,0.0,0.0,0.0,0.0,0.0,0.0,0.0,0.0,0.0,0.0,0.0,0.0,0.0,0.0,0.0,0.0,0.0,0.0,0.0,0.0,0.0,0.0,0.0,0.0,0.0,0.0,0.0,0.0,0.0,0.0,0.0,0.0,0.0,0.0,0.0,0.0,0.0,0.0,0.0,0.0,0.0,0.0,0.0,0.0,0.0,0.0,0.0,0.0,0.0,0.0,0.0,0.0,0.0,0.0,0.0,0.0,0.0,0.0,0.0,0.0,0.0,0.0,0.0,0.0,0.0,0.0,0.0,0.0,0.0,0.0,0.0,0.0,0.0,0.0,0.0,0.0,0.0,0.0,0.0,0.0,0.0,0.0,0.0,0.0,0.0,0.0,0.0,0.0,0.0,0.0,6.2421,6.3318,6.6041,6.6789,6.7059,6.6819,6.5084,6.0635,5.3473,0.0,0.0,0.0,0.0,0.0,0.0,0.0,0.0,0.0,0.0,0.0,0.0,0.0,0.0,0.0,0.0,0.0,0.0,0.0,0.0,0.0,0.0,0.0,0.0,0.0,0.0,0.0,0.0,0.0,0.0,0.0,0.0,0.0,0.0,0.0,0.0,0.0,0.0,4.0,4.3364,0.0,0.0,0.0,0.0,0.0,0.0,0.0,0.0,4.7911,0.0,0.0,0.0,0.0,0.0,0.0,0.0,0.0,0.0,0.0,0.0,0.0,0.0,0.0,0.0,0.0,0.0,0.0,0.0,0.0,0.0,0.0,0.0,0.0,0.0,0.0,0.0,0.0,0.0,0.0,0.0,0.0,0.0,0.0,0.0,0.0,0.0,0.0,0.0,0.0,0.0,0.0,0.0,0.0,0.0,0.0,0.0,0.0,0.0,0.0,0.0,0.0,0.0,0.0,0.0,0.0,6.4505,6.2466,6.3079,6.6729,6.7478,6.7268,6.6191,6.5323,6.0939,5.3128,0.0,0.0,0.0,0.0,0.0,0.0,0.0,0.0,0.0,0.0,0.0,0.0,0.0,0.0,0.0,0.0,0.0,0.0,0.0,0.0,0.0,0.0,0.0,0.0,0.0,0.0,0.0,0.0,0.0,0.0,0.0,0.0,0.0,0.0,0.0,0.0,0.0,0.0,0.0,4.6633,4.7481,0.0,0.0,0.0,0.0,0.0,0.0,0.0,0.0,4.7541,0.0,0.0,0.0,0.0,0.0,0.0,0.0,0.0,0.0,0.0,0.0,0.0,0.0,0.0,0.0,0.0,0.0,0.0,0.0,0.0,0.0,0.0,0.0,0.0,0.0,0.0,0.0,0.0,0.0,0.0,0.0,0.0,0.0,0.0,0.0,0.0,0.0,0.0,0.0,0.0,0.0,0.0,0.0,0.0,0.0,0.0,0.0,0.0,0.0,0.0,0.0,0.0,0.0,0.0,0.0,6.0439,6.2678,6.4725,6.6909,6.7627,6.7358,6.6011,6.3707,5.9457,0.0,0.0,0.0,0.0,0.0,0.0,0.0,0.0,0.0,0.0,0.0,0.0,0.0,0.0,0.0,0.0,0.0,0.0,0.0,0.0,0.0,0.0,0.0,0.0,0.0,0.0,0.0,0.0,0.0,0.0,0.0,0.0,0.0,0.0,0.0,0.0,0.0,0.0,0.0,0.0,4.6464,4.7325,4.78,0.0,0.0,0.0,0.0,0.0,0.0,4.6743,4.6571,0.0,0.0,0.0,0.0,0.0,0.0,0.0,0.0,0.0,0.0,0.0,0.0,0.0,0.0,0.0,0.0,0.0,0.0,0.0,0.0,0.0,0.0,0.0,0.0,0.0,0.0,0.0,0.0,0.0,0.0,0.0,0.0,0.0,0.0,0.0,0.0,0.0,0.0,0.0,0.0,0.0,0.0,0.0,0.0,0.0,0.0,0.0,0.0,0.0,0.0,0.0,0.0,0.0,0.0,0.0,5.7767,6.2834,6.5951,6.6939,6.7777,6.7418,6.5832,6.26,5.8347,0.0,0.0,0.0,0.0,0.0,0.0,0.0,0.0,0.0,0.0,0.0,0.0,0.0,0.0,0.0,0.0,0.0,0.0,0.0,0.0,0.0,0.0,0.0,0.0,0.0,0.0,0.0,0.0,0.0,0.0,0.0,0.0,0.0,0.0,0.0,0.0,0.0,0.0,0.0,0.0,0.0,4.6915,4.8565,4.7622,0.0,0.0,0.0,0.0,4.7179,4.721,0.0,0.0,0.0,0.0,0.0,0.0,0.0,0.0,0.0,0.0,0.0,0.0,0.0,0.0,0.0,0.0,0.0,0.0,0.0,0.0,0.0,0.0,0.0,0.0,0.0,0.0,0.0,0.0,0.0,0.0,0.0,0.0,0.0,0.0,0.0,0.0,0.0,0.0,0.0,0.0,0.0,0.0,0.0,0.0,0.0,0.0,0.0,0.0,0.0,0.0,0.0,0.0,0.0,0.0,0.0,0.0,5.9784,6.2303,6.4575,6.6909,6.8226,6.7687,6.5233,6.4096,5.9374,0.0,0.0,0.0,0.0,0.0,0.0,0.0,0.0,0.0,0.0,0.0,0.0,0.0,0.0,0.0,0.0,0.0,0.0,0.0,0.0,0.0,0.0,0.0,0.0,0.0,0.0,0.0,0.0,0.0,0.0,0.0,0.0,0.0,0.0,0.0,0.0,0.0,0.0,0.0,0.0,0.0,4.7319,4.6121,4.6172,4.6324,0.0,0.0,4.8895,5.111,5.1186,0.0,0.0,0.0,0.0,0.0,0.0,0.0,0.0,0.0,0.0,0.0,0.0,0.0,0.0,0.0,0.0,0.0,0.0,0.0,0.0,0.0,0.0,0.0,0.0,0.0,0.0,0.0,0.0,0.0,0.0,0.0,0.0,0.0,0.0,0.0,0.0,0.0,0.0,0.0,0.0,0.0,0.0,0.0,0.0,0.0,0.0,0.0,0.0,0.0,0.0,0.0,0.0,0.0,0.0,0.0,5.2718,6.0866,6.387,6.6041,6.7508,6.8495,6.7717,6.5084,6.1318,5.6258,0.0,0.0,0.0,0.0,0.0,0.0,0.0,0.0,0.0,0.0,0.0,0.0,0.0,0.0,0.0,0.0,0.0,0.0,0.0,0.0,0.0,0.0,0.0,0.0,0.0,0.0,0.0,0.0,0.0,0.0,0.0,0.0,0.0,0.0,0.0,0.0,0.0,0.0,0.0,0.0,0.0,0.0,4.8159,4.8234,0.0,0.0,0.0,4.9794,5.0561,0.0,0.0,0.0,0.0,0.0,0.0,0.0,0.0,0.0,0.0,0.0,0.0,0.0,0.0,0.0,0.0,0.0,0.0,0.0,0.0,0.0,0.0,0.0,0.0,0.0,0.0,0.0,0.0,0.0,0.0,0.0,0.0,0.0,0.0,0.0,0.0,0.0,0.0,0.0,0.0,0.0,0.0,0.0,0.0,0.0,0.0,0.0,0.0,0.0,0.0,0.0,0.0,0.0,0.0,0.0,0.0,0.0,6.0257,6.4901,6.7324,6.7271,6.7953,6.6908,6.3759,5.9219,0.0,0.0,0.0,0.0,0.0,0.0,0.0,0.0,0.0,0.0,0.0,0.0,0.0,0.0,0.0,0.0,0.0,0.0,0.0,0.0,0.0,0.0,0.0,0.0,0.0,0.0,0.0,2.9402,0.0,0.0,0.0,0.0,0.0,0.0,0.0,0.0,0.0,0.0,0.0,0.0,0.0,0.0,4.7832,5.0293,5.0619,5.077,0.0,0.0,5.1147,5.087,5.0946,4.969,0.0,0.0,0.0,0.0,0.0,0.0,0.0,0.0,0.0,0.0,0.0,0.0,0.0,0.0,0.0,0.0,0.0,0.0,0.0,0.0,0.0,0.0,0.0,0.0,0.0,0.0,0.0,0.0,3.5489,3.5459,0.0,0.0,0.0,0.0,0.0,0.0,0.0,0.0,0.0,0.0,0.0,0.0,0.0,0.0,0.0,0.0,0.0,0.0,0.0,0.0,0.0,0.0,0.0,0.0,5.2529,5.6654,6.41,6.7086,6.5521,6.6157,6.445,6.0246,5.9541,5.4852,0.0,0.0,0.0,0.0,0.0,0.0,0.0,0.0,0.0,0.0,0.0,0.0,0.0,0.0,0.0,0.0,0.0,0.0,0.0,0.0,0.0,0.0,0.0,0.0,0.0,0.0,0.0,0.0,0.0,0.0,0.0,0.0,0.0,0.0,0.0,0.0,0.0,0.0,0.0,0.0,0.0,4.9238,5.0971,5.2477,5.3984,0.0,5.4461,5.3632,5.416,5.4637,5.3005,4.7154,0.0,0.0,0.0,0.0,0.0,0.0,0.0,0.0,0.0,0.0,0.0,0.0,0.0,0.0,0.0,0.0,0.0,0.0,0.0,0.0,0.0,0.0,0.0,0.0,0.0,3.4822,3.5489,0.0,3.507,0.0,0.0,0.0,0.0,0.0,0.0,0.0,0.0,0.0,0.0,0.0,0.0,0.0,0.0,0.0,0.0,0.0,0.0,0.0,0.0,0.0,0.0,0.0,0.0,5.0348,5.5078,6.133,6.4453,6.415,6.4403,6.2934,5.9855,5.7651,5.3375,0.0,0.0,0.0,0.0,0.0,0.0,0.0,0.0,0.0,0.0,0.0,0.0,0.0,0.0,0.0,0.0,0.0,0.0,0.0,0.0,0.0,0.0,0.0,0.0,0.0,0.0,0.0,0.0,3.5027,3.5629,3.573,0.0,0.0,0.0,0.0,0.0,0.0,0.0,0.0,0.0,0.0,5.1297,5.3934,5.4838,0.0,0.0,5.5942,5.5691,5.5591,5.4612,5.2603,4.8937,4.6928,0.0,0.0,0.0,0.0,0.0,0.0,0.0,0.0,0.0,0.0,0.0,0.0,0.0,0.0,0.0,0.0,0.0,0.0,0.0,0.0,0.0,0.0,0.0,0.0,0.0,0.0,3.5478,3.525,0.0,0.0,0.0,0.0,0.0,0.0,0.0,0.0,0.0,0.0,0.0,0.0,0.0,0.0,0.0,0.0,0.0,0.0,0.0,0.0,0.0,0.0,0.0,0.0,4.9072,5.4036,5.9566,6.2509,6.2556,6.2392,6.1,5.8295,5.6053,5.2444,4.7283,0.0,0.0,0.0,0.0,0.0,0.0,0.0,0.0,0.0,0.0,0.0,0.0,0.0,0.0,0.0,0.0,0.0,0.0,0.0,0.0,0.0,0.0,0.0,0.0,0.0,0.0,0.0,3.6634,3.6659,3.5956,0.0,0.0,0.0,0.0,0.0,0.0,0.0,0.0,0.0,0.0,5.3281,5.6093,5.6344,5.6369,5.6598,5.652,5.6219,5.5993,5.4813,5.298,5.0268,0.0,0.0,0.0,0.0,0.0,0.0,0.0,0.0,0.0,0.0,0.0,0.0,0.0,0.0,0.0,0.0,0.0,0.0,0.0,0.0,0.0,0.0,0.0,0.0,0.0,0.0,0.0,3.557,0.0,0.0,3.5549,0.0,0.0,0.0,0.0,0.0,0.0,0.0,0.0,0.0,0.0,0.0,0.0,0.0,0.0,0.0,0.0,0.0,0.0,0.0,0.0,0.0,0.0,4.9205,5.3281,5.939,6.1956,6.0736,6.0233,5.8302,5.5037,5.5003,5.2518,4.7277,0.0,0.0,0.0,0.0,0.0,0.0,0.0,0.0,0.0,0.0,0.0,0.0,0.0,0.0,0.0,0.0,0.0,0.0,0.0,0.0,0.0,0.0,0.0,0.0,0.0,0.0,3.5554,3.6081,3.6031,0.0,0.0,0.0,0.0,0.0,0.0,0.0,0.0,0.0,4.9866,5.2754,5.5139,5.6749,5.6473,5.6746,5.7624,5.6047,5.4863,5.544,5.5792,5.4838,0.0,0.0,0.0,0.0,0.0,0.0,0.0,0.0,0.0,0.0,0.0,0.0,0.0,0.0,0.0,0.0,0.0,0.0,0.0,0.0,0.0,0.0,0.0,0.0,0.0,0.0,0.0,4.1588,3.8323,0.0,0.0,0.0,0.0,0.0,0.0,0.0,0.0,0.0,0.0,0.0,5.2838,5.3774,0.0,0.0,0.0,0.0,0.0,0.0,0.0,0.0,0.0,0.0,0.0,0.0,4.8,5.1946,5.6556,5.8817,5.882,5.8283,5.7099,5.5139,5.4543,5.193,4.7255,0.0,0.0,0.0,0.0,0.0,0.0,0.0,0.0,0.0,0.0,0.0,0.0,0.0,0.0,0.0,0.0,0.0,0.0,0.0,0.0,0.0,0.0,0.0,0.0,0.0,3.6031,0.0,0.0,0.0,0.0,0.0,0.0,0.0,0.0,0.0,0.0,4.6175,4.949,5.2226,5.4687,5.6495,5.7472,5.7976,5.8454,0.0,0.0,5.7775,0.0,0.0,0.0,0.0,0.0,0.0,0.0,0.0,0.0,0.0,5.7229,5.6196,5.1804,4.8707,4.6681,4.6547,0.0,0.0,0.0,0.0,0.0,0.0,0.0,0.0,0.0,0.0,0.0,0.0,0.0,0.0,4.8771,4.884,4.6485,4.3509,0.0,0.0,0.0,0.0,0.0,0.0,0.0,5.3727,5.6721,5.8321,5.951,5.9303,5.7826,5.4996,5.0283,0.0,0.0,0.0,0.0,0.0,0.0,0.0,0.0,4.7782,5.18,5.5089,5.7022,5.7549,5.7047,5.6319,5.539,5.411,5.1825,4.8385,4.576,4.4169,0.0,0.0,0.0,0.0,0.0,0.0,0.0,0.0,0.0,0.0,0.0,0.0,0.0,0.0,0.0,0.0,0.0,0.0,0.0,0.0,0.0,0.0,0.0,3.701,0.0,0.0,0.0,0.0,0.0,0.0,0.0,0.0,0.0,4.6928,4.9967,5.303,5.5415,5.6821,5.785,5.8326,0.0,0.0,0.0,0.0,0.0,0.0,0.0,5.6671,5.7725,5.6426,5.5355,5.5371,5.7983,6.0026,5.9137,0.0,0.0,5.5497,5.1812,4.9283,4.949,4.7401,4.5411,4.527,4.5381,4.5517,0.0,0.0,0.0,0.0,5.078,0.0,0.0,0.0,5.1423,5.839,0.0,5.5748,0.0,0.0,0.0,0.0,4.2859,4.9579,0.0,0.0,6.1519,6.4546,6.4126,6.4517,6.4219,6.3202,6.2419,5.8916,5.282,4.6075,4.0841,0.0,0.0,0.0,0.0,0.0,4.8611,5.2879,5.5114,5.6495,5.6997,5.652,5.5942,5.539,5.3884,5.2277,5.0645,5.0998,4.9051,4.4192,4.1489,0.0,0.0,0.0,0.0,0.0,0.0,0.0,0.0,0.0,0.0,0.0,0.0,0.0,0.0,0.0,0.0,0.0,0.0,0.0,0.0,3.7713,0.0,0.0,0.0,0.0,0.0,0.0,0.0,0.0,0.0,5.2603,5.1724,5.3858,5.6495,5.8927,0.0,0.0,0.0,0.0,5.7987,5.8434,5.8163,5.7974,5.8449,5.9772,6.0422,5.9498,0.0,5.8523,5.4632,5.6376,5.7801,5.5667,5.7042,5.9045,6.0804,5.5886,5.206,5.268,5.0418,4.864,4.8867,4.9503,5.0012,6.1373,0.0,0.0,0.0,0.0,5.8082,5.7862,5.8145,6.0007,6.2695,6.5139,5.8923,0.0,0.0,0.0,0.0,0.0,0.0,5.5794,5.9277,6.086,6.342,6.6727,6.467,6.4006,6.4444,6.3028,6.0309,5.6423,5.3688,4.7951,3.9722,0.0,0.0,0.0,0.0,5.0845,5.3959,5.5491,5.647,5.7022,5.6495,5.5968,5.539,5.4938,5.4285,5.3406,5.2775,5.121,4.8611,4.6671,0.0,0.0,0.0,0.0,0.0,0.0,0.0,0.0,0.0,0.0,0.0,0.0,0.0,0.0,0.0,0.0,0.0,0.0,0.0,3.7613,3.8291,3.9346,0.0,0.0,0.0,0.0,0.0,0.0,0.0,0.0,0.0,5.7499,5.8052,5.7967,0.0,0.0,5.8548,5.5016,5.6415,5.7261,5.579,5.6015,5.6359,5.6498,5.6244,5.6283,5.7606,5.8464,5.8774,5.834,5.8914,5.9479,5.8692,5.7785,5.7292,5.7971,5.6098,5.411,5.4112,5.2559,5.0996,5.1172,5.1601,5.1973,6.8435,6.4455,6.2899,6.3079,6.4366,6.3827,6.404,6.4729,6.5618,6.6433,6.7147,6.3604,6.0057,5.6482,5.3554,0.0,0.0,0.0,5.9686,6.2658,6.3193,6.441,6.6056,6.4849,6.4274,6.4251,6.2453,6.0602,5.8578,5.7224,5.2818,4.5623,0.0,4.6426,4.7154,4.9741,5.2452,5.5114,5.5867,5.6369,5.6696,5.6394,5.6043,5.5717,5.5516,5.5239,5.4888,5.4049,5.2916,5.1448,5.0434,4.7478,0.0,0.0,0.0,0.0,0.0,0.0,0.0,0.0,0.0,0.0,0.0,3.5253,3.2365,0.0,0.0,0.0,3.7412,3.9346,4.143,4.2333,0.0,0.0,0.0,0.0,0.0,0.0,0.0,5.5942,5.7194,5.8202,5.9575,5.9001,5.8017,5.7452,5.7682,5.6733,5.3975,0.0,5.6198,5.4895,5.5446,5.604,5.6241,5.5753,5.5667,5.6487,5.7349,5.7776,5.74,5.7482,5.761,5.7436,5.6479,5.544,5.5684,5.5074,5.4606,5.4768,5.3887,5.3105,5.3105,5.332,5.3496,7.3612,7.2744,6.9123,6.7897,6.8405,6.9034,6.8661,6.7559,6.875,6.9939,7.0886,6.901,6.7029,6.4905,6.1322,0.0,6.1691,6.337,6.441,6.5228,6.7082,6.6343,6.3639,6.4666,6.461,6.3167,6.138,6.025,5.9581,5.8009,5.5867,5.3381,5.1297,5.0921,5.2176,5.2352,5.3708,5.6219,5.6244,5.6219,5.6219,5.6219,5.6194,5.6143,5.5666,5.5365,5.5315,5.4819,5.4176,5.3005,5.2715,5.0227,4.5263,0.0,0.0,0.0,0.0,0.0,0.0,0.0,0.0,0.0,0.0,0.0,0.0,0.0,0.0,4.03,4.2283,0.0,4.7104,4.836,0.0,0.0,0.0,5.1376,5.284,5.566,5.7562,5.8051,0.0,0.0,5.9158,5.7421,5.6835,5.8624,5.6188,5.4498,5.4595,5.4773,5.5092,5.4935,5.5548,5.6176,5.6034,5.6654,5.6577,5.5703,5.6259,5.5972,5.4184,5.3894,5.3984,5.4169,5.4023,5.4004,5.4023,5.4129,5.416,5.4757,5.4629,5.4629,5.457,5.4609,5.4325,7.4569,7.433,7.3402,7.2505,7.1757,7.1906,7.1745,7.1463,7.1774,7.2128,7.227,7.0389,6.8405,6.652,6.6004,6.5558,6.5016,6.5939,6.5944,6.514,6.4731,6.4615,6.4658,6.2149,6.1581,6.2405,6.0702,5.9769,5.9465,5.8656,5.8001,5.7323,5.6394,5.5064,5.3432,5.4587,5.5767,5.6821,5.642,5.6219,5.6219,5.6219,5.6018,5.5591,5.5465,5.5189,5.4762,5.4834,5.4569,5.3482,5.1448,4.9668,4.7832,4.3037,0.0,0.0,0.0,0.0,0.0,0.0,0.0,0.0,0.0,4.2886,3.6684,0.0,4.5472,0.0,4.7506,4.9238,4.9038,5.0393,0.0,0.0,5.5391,5.6379,6.0468,6.0886,6.0474,5.9616,6.0095,5.9773,5.7861,5.5635,5.4412,5.5008,5.5556,5.4761,5.2023,5.2939,5.3394,5.1892,5.2054,5.2155,5.2505,5.2942,5.375,5.3867,5.4205,5.4042,5.3808,5.3945,5.4023,5.4023,5.4023,5.4023,5.4043,5.4023,5.4336,5.4941,5.4902,5.4687,5.4687,5.4941,5.4452,7.5138,7.4869,7.4869,7.445,7.3791,7.3791,7.3791,7.3762,7.3492,7.3477,7.3654,7.1708,7.0231,6.9213,6.9243,6.8495,6.7046,6.7392,6.6311,6.3975,6.4103,6.3633,6.2656,6.0507,6.0074,6.1089,6.0099,5.9508,5.9483,5.9207,5.9056,5.9056,5.8755,5.7826,5.6369,5.6746,5.7123,5.7399,5.662,5.6219,5.6194,5.5968,5.5591,5.5039,5.5013,5.4637,5.3858,5.3734,5.3229,5.2226,4.9925,4.8604,4.836,4.5045,4.2861,0.0,0.0,0.0,0.0,0.0,0.0,0.0,0.0,0.0,0.0,0.0,4.8962,4.8912,5.1473,5.3356,5.3934,5.5516,5.7675,6.0512,6.0251,6.099,6.3867,6.3633,6.2714,6.0977,6.0183,5.9064,5.6509,5.3985,5.2491,5.2674,5.3405,5.3114,5.0922,5.1357,5.1705,5.0757,5.0723,5.0957,5.1289,5.1933,5.2598,5.3203,5.3535,5.375,5.3984,5.4023,5.4023,5.4043,5.418,5.4316,5.4316,5.4492,5.4785,5.5137,5.5273,5.5234,5.5254,5.543,5.4667,7.5557,7.4988,7.4929,7.4869,7.4869,7.4869,7.4869,7.4839,7.427,7.4316,7.4737,7.2937,7.2116,7.1966,7.1046,6.9633,6.7925,6.7621,6.5467,6.2168,6.3681,6.2752,5.9508,5.9508,5.9508,5.9508,5.9508,5.9508,5.9508,5.9508,5.9508,5.9508,5.9508,5.9508,5.9458,5.8554,5.8027,5.7901,5.6846,5.6319,5.6319,5.5717,5.5114,5.4587,5.4436,5.3858,5.2754,5.2116,5.1439,5.067,4.9078,4.8203,4.8535,4.7405,4.6451,0.0,4.4819,0.0,0.0,0.0,0.0,0.0,0.0,0.0,0.0,5.1448,5.2553,5.2829,5.5039,5.7374,5.9608,6.1316,6.2923,6.4354,6.4555,6.458,6.468,6.4872,6.3961,6.1451,5.9454,5.7317,5.4884,5.2379,5.1035,5.1463,5.1247,5.1105,5.043,5.0561,5.0718,5.0859,5.0937,5.1308,5.1992,5.25,5.2949,5.3379,5.375,5.4023,5.4023,5.4023,5.4023,5.4062,5.4297,5.457,5.4648,5.4961,5.5215,5.5371,5.5664,5.5859,5.5879,5.5302,5.4337,7.5826,7.5677,7.5108,7.4869,7.4869,7.4869,7.4869,7.4869,7.4749,7.445,7.4136,7.3642,7.3223,7.2521,7.0438,6.8417,6.6418,6.4826,6.2685,6.0099,6.035,6.0195,5.9508,5.9508,5.9508,5.9508,5.9508,5.9508,5.9508,5.9508,5.9508,5.9508,5.9508,5.9508,5.9483,0.0,0.0,0.0,5.7223,5.6872,5.6846,5.5892,5.5139,5.4561,5.3708,0.0,5.1674,5.1925,5.2,5.18,5.1815,0.0,5.195,0.0,0.0,0.0,0.0,0.0,4.728,0.0,0.0,0.0,5.3482,5.2854,5.1875,5.5892,5.8102,5.7022,6.0035,6.1943,6.1592,6.3023,6.4304,6.5007,6.5226,6.5377,6.5735,6.4153,6.2077,5.9613,5.7273,5.4926,5.2547,5.1522,5.1348,5.1465,5.1367,5.1289,5.1211,5.1191,5.123,5.1328,5.1601,5.1992,5.25,5.2949,5.334,5.3789,5.3945,5.4023,5.4023,5.4023,5.4023,5.4023,5.4101,5.4297,5.4629,5.4746,5.5078,5.5683,5.5879,5.5937,5.5937,5.4213,5.1965,7.6485,7.5886,7.5527,7.5198,0.0,7.4869,7.4869,7.4869,7.4869,7.4689,7.436,7.4031,7.3702,7.3208,7.0671,6.8485,6.6567,6.4557,6.2353,6.0337,5.979,5.964,5.991,5.9629,5.9503,5.9508,5.9508,5.9508,5.9508,5.9508,5.9508,5.9508,5.9508,5.9508,5.9508,5.9508,5.9106,5.8303,5.7474,5.7047,5.6997,5.5942,5.5114,5.4561,5.3758,0.0,0.0,0.0,0.0,0.0,0.0,0.0,0.0,5.2101,0.0,5.2779,5.2854,5.298,5.3256,5.4285,5.5616,5.7273,5.8177,5.7951,5.6269,5.9232,6.0914,6.0437,6.2421,6.3576,6.3299,6.4228,6.5082,6.5609,6.566,6.5392,6.4429,6.3265,6.109,5.7546,5.5847,5.4251,5.2089,5.1758,5.1855,5.2031,5.207,5.2051,5.2031,5.1875,5.1816,5.2031,5.2226,5.2539,5.2949,5.3183,5.3516,5.3906,5.4023,5.4023,5.4023,5.4023,5.4023,5.4043,5.4199,5.4492,5.4902,5.5137,5.5488,5.5862,5.5126,5.4036,5.4036,5.3087,5.0777,7.7203,7.6245,7.6125,7.5677,7.5078,7.5078,7.4988,7.4869,7.4869,0.0,0.0,7.43,7.4061,7.3895,7.0865,6.8653,6.7028,6.4691,6.2766,6.1165,6.0438,6.0213,6.0462,5.9972,5.9747,5.9809,5.9784,5.9784,5.9784,5.9784,5.9734,5.9659,5.9633,5.9583,5.9508,5.9508,5.9282,5.883,5.7851,5.7349,5.7298,5.6244,5.5465,5.5013,5.4361,5.3532,5.2578,5.2201,5.1825,5.1473,5.1197,5.195,5.3833,5.4436,5.5717,5.7826,5.8654,5.9056,5.9156,5.9659,5.9985,6.006,6.1441,6.1918,6.0989,6.1768,6.2546,6.3073,6.3294,6.3459,6.3856,6.4037,6.4334,6.4777,6.4827,6.3905,6.2113,6.1359,5.9383,5.5889,5.482,5.3883,5.2385,5.2129,5.2305,5.2617,5.2637,5.2754,5.2754,5.2461,5.2305,5.2578,5.2715,5.2949,5.3262,5.3457,5.3613,5.3965,5.4023,5.4023,5.4023,5.4023,5.4023,5.4023,5.4394,5.4805,5.5215,5.5586,5.5843,5.5823,5.3904,5.1654,5.0777,5.0539,4.8772,7.7711,7.7502,7.6933,7.6335,7.5766,7.5766,7.5437,7.4899,7.4869,7.4869,7.4869,7.4779,7.4749,7.4552,7.0162,6.8106,6.7662,6.3987,6.1937,6.1215,6.1953,6.1878,6.109,6.104,6.0989,6.0939,6.0939,6.0939,6.0939,6.0939,6.0713,6.0261,6.0211,5.996,5.9533,5.9508,5.9458,5.9382,5.8805,5.8478,5.8453,5.7374,5.6771,5.6646,5.5666,5.4863,5.4235,5.4587,5.4988,5.539,5.6244,5.7097,5.7851,5.8353,5.8654,5.8629,5.9508,6.0311,6.0814,6.1341,6.1868,6.2345,6.3048,6.3375,6.3249,6.335,6.3676,6.4178,6.2886,6.1843,6.1939,6.0931,6.0179,6.0067,5.9908,5.9727,5.9362,5.7546,5.6077,5.5115,5.362,5.2541,5.2306,5.2402,5.2656,5.2715,5.2851,5.2871,5.3125,5.291,5.2676,5.2734,5.3027,5.3262,5.3418,5.3711,5.3906,5.4004,5.4023,5.4023,5.4023,5.4023,5.4023,5.4023,5.4453,5.4883,5.5254,5.5644,5.4954,5.3576,5.2109,5.0319,4.6094,4.4984,4.4321,7.813,7.7771,7.7472,7.6993,7.6395,7.6066,7.5736,7.5269,7.382,7.3951,7.4869,7.4869,7.4258,7.3052,6.9917,6.7873,6.6657,6.3792,6.232,6.2119,6.2608,6.2406,6.1692,6.1903,6.1752,6.1215,6.119,6.119,6.119,6.119,6.0889,6.0311,6.001,5.9679,5.9448,5.9428,5.9508,5.9483,5.8981,5.873,5.8704,5.7926,5.7499,5.7499,5.6696,5.6319,5.6369,5.6319,5.6671,5.7549,5.8077,5.873,5.9558,6.0111,6.0437,6.0512,6.1215,6.1793,6.2069,6.232,6.2571,6.2822,6.3073,6.335,6.3676,6.3701,6.3927,6.4404,6.3616,6.3326,6.3448,6.196,6.0812,6.0836,5.9727,5.8263,5.6968,5.5847,5.4568,5.3316,5.2558,5.2168,5.2402,5.2793,5.3183,5.3359,5.3418,5.3496,5.3691,5.3555,5.3418,5.3437,5.3594,5.3711,5.373,5.3867,5.4023,5.4023,5.4023,5.4023,5.4023,5.4023,5.4023,5.4062,5.4453,5.4902,5.5254,5.4321,5.3186,5.2219,4.8994,4.6094,4.3641,4.209,4.0742,7.8489,7.8041,7.8041,7.7652,7.6993,7.6215,7.5916,7.5687,7.3516,7.3503,7.4731,7.3981,7.2628,7.1105,6.9187,6.7368,6.5687,6.3746,6.2822,6.2822,6.2822,6.2596,6.2245,6.2694,6.2281,6.1592,6.1542,6.1542,6.1567,6.1542,6.1266,6.0688,6.0136,5.9804,5.9458,5.9779,5.9885,5.9859,5.9483,5.9156,5.8905,5.8604,5.8453,5.8403,5.8152,5.8177,5.8579,5.8202,5.8428,5.9357,5.9458,5.991,6.0814,6.1316,6.1743,6.2169,6.2596,6.2822,6.2847,6.2948,6.3023,6.3023,6.3149,6.3324,6.3651,6.3701,6.3786,6.3806,6.3081,6.2934,6.2353,6.0939,6.009,5.9908,5.8263,5.6221,5.4548,5.4189,5.3638,5.1853,5.1894,5.2363,5.2695,5.3164,5.3613,5.3906,5.4023,5.4023,5.4023,5.4023,5.4023,5.4023,5.4023,5.4004,5.4023,5.4023,5.4023,5.4023,5.4023,5.4023,5.4023,5.4023,5.4101,5.4199,5.4609,5.5058,5.5181,5.3391,5.1766,5.0724,4.7214,4.3429,4.209,4.0512,3.899,7.8759,7.8699,7.8669,7.831,7.7592,7.6425,7.5916,7.5826,7.4892,7.4731,7.4288,7.1133,6.9337,6.8888,6.7061,6.6,6.5529,6.3746,6.2822,6.2822,6.2822,6.2797,6.2722,6.2772,6.2747,6.2647,6.2621,6.2571,6.2571,6.2596,6.237,6.1843,6.1291,6.0497,5.9747,6.0497,6.1014,6.104,6.0964,6.0462,5.9533,5.9859,6.0085,6.0085,6.0537,6.0814,6.0763,6.0814,6.1065,6.1642,6.1667,6.1943,6.2496,6.2621,6.2697,6.2747,6.2822,6.2822,6.2873,6.3324,6.3601,6.3651,6.4002,6.4053,6.3701,6.3676,6.3048,6.1826,5.9932,5.8503,5.6258,5.4337,5.3447,5.3828,5.2912,5.1988,5.1988,5.1794,5.162,5.1426,5.2129,5.2676,5.2812,5.3418,5.3926,5.4004,5.4023,5.4023,5.4023,5.4023,5.4023,5.4023,5.4023,5.4023,5.4023,5.4023,5.4023,5.4023,5.4023,5.4023,5.4023,5.4043,5.4141,5.4473,5.5,5.522,5.4897,5.3765,5.0908,4.8278,4.5194,4.2304,4.0079,3.895,3.8798,7.8789,7.8789,7.8789,7.8639,7.822,7.6993,7.6455,7.6195,7.2778,7.1278,7.0842,6.7061,6.6623,6.8737,6.6778,6.524,6.4042,6.3123,6.2822,6.2822,6.2822,6.2822,6.2822,6.2822,6.2822,6.2822,6.2822,6.2822,6.2772,6.2521,6.237,6.2395,6.1617,6.1316,6.1357,6.1316,6.1475,6.2046,6.1475,6.0939,6.0588,6.0713,6.0839,6.0864,6.1065,6.1366,6.1642,6.1667,6.1918,6.2446,6.2496,6.2596,6.2822,6.2822,6.2973,6.3299,6.3626,6.3802,6.3802,6.4028,6.4028,6.3751,6.3902,6.3776,6.3249,6.3199,6.1929,5.9203,5.9246,5.9438,5.848,5.5676,5.3638,5.3467,5.2354,5.1445,5.1445,5.1445,5.1523,5.1797,5.2344,5.2812,5.3105,5.3633,5.4004,5.4023,5.4023,5.4023,5.4023,5.4023,5.4023,5.4023,5.4023,5.4023,5.4023,5.4023,5.4023,5.4023,5.4023,5.4023,5.4023,5.4023,5.418,5.4609,5.4874,5.4454,5.3233,5.1168,4.8533,4.5644,4.2746,4.0065,3.895,3.8718,3.8784,7.8789,7.8789,7.8789,7.8789,7.8669,7.7382,7.6844,7.6353,7.2287,7.0521,7.0227,6.6752,6.6597,6.8284,6.6156,6.4338,6.3584,6.3123,6.2822,6.2822,6.2822,6.2822,6.2822,6.2822,6.2822,6.2822,6.2822,6.2822,6.2797,6.2446,6.2446,6.2647,6.2019,6.2079,6.2669,6.2054,6.1953,6.2712,6.1953,6.1617,6.1617,6.1617,6.1567,6.1441,6.1567,6.1818,6.2195,6.222,6.2421,6.2797,6.2822,6.2822,6.2822,6.2973,6.3324,6.3852,6.4254,6.4479,6.4479,6.4605,6.453,6.4203,6.4128,6.3852,6.3375,6.3249,6.1373,5.8138,5.9029,5.97,5.8188,5.5921,5.4168,5.3998,5.2354,5.1465,5.1601,5.1523,5.1641,5.2168,5.2519,5.293,5.3437,5.3828,5.4023,5.4023,5.4023,5.4023,5.4023,5.4023,5.4023,5.4023,5.4023,5.4023,5.4023,5.4023,5.4023,5.4023,5.4023,5.4023,5.4023,5.4023,5.418,5.4442,5.4494,5.3653,5.2036,4.9382,4.566,4.2746,4.0296,3.895,3.8718,3.8718,3.8718,7.8789,7.8789,7.8789,7.8789,7.8699,7.7412,7.6844,7.6814,7.5021,7.4456,7.3842,7.1856,7.0374,6.8586,6.479,6.3882,6.5082,6.3584,6.2822,6.2822,6.2822,6.2822,6.2822,6.2822,6.2822,6.2822,6.2822,6.2822,6.2822,6.2797,6.2797,6.2797,6.2697,6.2722,6.2772,6.2697,6.2747,6.2697,6.2672,6.2697,6.2697,6.2722,6.2446,6.2069,6.2471,6.2697,6.2772,6.2772,6.2797,6.2822,6.2822,6.2822,6.2898,6.3375,6.3927,6.4379,6.4479,6.4505,6.4605,6.4982,6.5183,6.4938,6.5057,6.4881,6.4011,6.4178,6.2608,5.9304,5.8464,5.6757,5.2775,5.2248,5.1794,5.1794,5.1639,5.1641,5.1973,5.1738,5.1855,5.248,5.2773,5.3144,5.3867,5.4004,5.4023,5.4023,5.4023,5.4023,5.4023,5.4023,5.4023,5.4023,5.4023,5.4023,5.4023,5.4023,5.4023,5.4023,5.4023,5.4023,5.4023,5.4082,5.4316,5.4028,5.2841,5.1729,5.0484,4.7568,4.3127,4.0512,3.9617,3.8718,3.8718,3.8718,3.8718,7.8789,7.8789,7.8789,7.8789,7.8699,7.7831,7.7442,7.7181,7.468,7.2778,7.1324,6.9176,6.7648,6.6752,6.4042,6.3123,6.372,6.3123,6.2822,6.2822,6.2822,6.2822,6.2822,6.2822,6.2822,6.2822,6.2822,6.2822,6.2822,6.2822,6.2822,6.2822,6.2822,6.2822,6.2822,6.2822,6.2822,6.2822,6.2822,6.2822,6.2822,6.2822,6.2722,6.2546,6.2722,6.2822,6.2822,6.2822,6.2822,6.2822,6.2822,6.2998,6.3425,6.4228,6.4781,6.4982,6.5333,6.5534,6.5534,6.571,6.571,6.5654,6.5503,6.5082,6.463,6.4454,6.2711,5.8808,5.7892,5.5754,5.1858,5.1016,5.1445,5.1465,5.168,5.1875,5.207,5.2168,5.248,5.3027,5.3359,5.3711,5.3887,5.4023,5.4023,5.4023,5.4023,5.4023,5.4023,5.4023,5.4023,5.4023,5.4023,5.4023,5.4023,5.4023,5.4023,5.4023,5.4023,5.4023,5.4023,5.4082,5.4258,5.3517,5.2038,4.9509,4.8316,4.4541,4.0484,3.9617,3.8718,3.8718,3.8718,3.8718,3.8718,7.8789,7.8789,7.8789,7.8789,7.8699,7.8071,7.7682,7.724,7.4802,7.2836,7.1234,6.8875,6.7522,6.6623,6.4631,6.3448,6.2822,6.2822,6.2822,6.2822,6.2822,6.2822,6.2822,6.2822,6.2822,6.2822,6.2822,6.2822,6.2822,6.2822,6.2822,6.2822,6.2822,6.2822,6.2822,6.2822,6.2822,6.2822,6.2822,6.2822,6.2822,6.2822,6.2822,6.2822,6.2822,6.2822,6.2822,6.2822,6.2822,6.2847,6.2998,6.3425,6.4178,6.4881,6.5383,6.5559,6.5886,6.6112,6.6112,6.6112,6.6011,6.6152,6.5805,6.5358,6.5075,6.4931,6.2299,5.8641,5.7716,5.6132,5.2087,5.1016,5.1426,5.1465,5.1699,5.2012,5.2246,5.2402,5.2734,5.3242,5.3711,5.3965,5.4023,5.4023,5.4023,5.4023,5.4023,5.4023,5.4023,5.4023,5.4023,5.4023,5.4023,5.4023,5.4023,5.4023,5.4023,5.4023,5.4023,5.4023,5.4101,5.416,5.3661,5.2893,5.0987,4.8264,4.4881,4.1289,3.9562,3.8936,3.8718,3.8718,3.8718,3.8718,3.8718,7.8789,7.8789,7.8789,7.8789,7.8699,7.816,7.7502,7.6993,7.6105,7.5289,7.4233,7.2401,6.9931,6.8435,6.6,6.4497,6.296,6.2822,6.2822,6.2822,6.2822,6.2822,6.2822,6.2822,6.2822,6.2822,6.2822,6.2822,6.2822,6.2822,6.2822,6.2822,6.2822,6.2822,6.2822,6.2822,6.2822,6.2822,6.2822,6.2822,6.2822,6.2822,6.2822,6.2822,6.2822,6.2822,6.2822,6.2822,6.2822,6.2898,6.335,6.4178,6.4982,6.5308,6.5559,6.5961,6.6112,6.6112,6.6112,6.6112,6.6112,6.6061,6.6086,6.5785,6.5409,6.5293,6.3172,5.8722,5.7757,5.6358,5.2008,5.1172,5.1426,5.1445,5.1543,5.1894,5.2402,5.2363,5.2441,5.3262,5.3789,5.4004,5.4023,5.4023,5.4023,5.4023,5.4023,5.4023,5.4023,5.4023,5.4023,5.4023,5.4023,5.4023,5.4023,5.4023,5.4023,5.4023,5.4023,5.4043,5.4238,5.4316,5.3157,5.2152,4.8557,4.5789,4.2568,3.9359,3.9141,3.8718,3.8718,3.8718,3.8718,3.8718,3.8718,7.8789,7.8789,7.8789,7.8789,7.8759,7.8549,7.834,7.8041,7.7023,7.6271,7.5098,7.1613,6.8737,6.6778,6.4631,6.3423,6.2822,6.2822,6.2822,6.2822,6.2822,6.2822,6.2822,6.2822,6.2822,6.2822,6.2822,6.2822,6.2822,6.2822,6.2822,6.2822,6.2822,6.2822,6.2822,6.2822,6.2822,6.2822,6.2822,6.2822,6.2822,6.2822,6.2822,6.2822,6.2822,6.2822,6.2822,6.2822,6.2822,6.2847,6.3375,6.4178,6.5107,6.566,6.5911,6.6086,6.6112,6.6112,6.6112,6.6112,6.6112,6.6112,6.6112,6.6036,6.5492,6.4356,6.1983,5.812,5.6946,5.457,5.1705,5.1172,5.1445,5.1445,5.1699,5.207,5.2676,5.3105,5.3516,5.375,5.3945,5.4023,5.4023,5.4023,5.4023,5.4023,5.4023,5.4023,5.4023,5.4023,5.4023,5.4023,5.4023,5.4023,5.4023,5.4023,5.4023,5.4082,5.4101,5.4199,5.4375,5.382,5.2608,4.9815,4.6396,4.3203,3.9941,3.8718,3.8718,3.8718,3.8718,3.8718,3.8718,3.8718,3.8718,7.8789,7.8789,7.8789,7.8789,7.8789,7.8789,7.8609,7.828,7.7562,7.6718,7.4954,7.11,6.8475,6.665,6.4042,6.2822,6.2822,6.2822,6.2822,6.2822,6.2822,6.2822,6.2822,6.2822,6.2822,6.2822,6.2822,6.2822,6.2822,6.2822,6.2822,6.2822,6.2822,6.2822,6.2822,6.2822,6.2822,6.2822,6.2822,6.2822,6.2822,6.2822,6.2923,6.3099,6.3149,6.3249,6.34,6.345,6.335,6.3324,6.3852,6.4705,6.5534,6.5936,6.6112,6.6112,6.6112,6.6112,6.6112,6.6112,6.6112,6.6112,6.6112,6.557,6.4827,6.3201,6.1009,5.7519,5.5842,5.4086,5.1711,5.1426,5.166,5.168,5.1914,5.2344,5.2891,5.3574,5.3965,5.4004,5.4023,5.4023,5.4023,5.4023,5.4023,5.4023,5.4023,5.4023,5.4023,5.4023,5.4023,5.4023,5.4023,5.4023,5.4023,5.4023,5.4023,5.4121,5.4219,5.4375,5.457,5.3329,5.2074,4.7256,4.3458,4.1499,3.8611,3.8691,3.8718,3.8718,3.8718,3.8718,3.8718,3.8718,3.8718,7.8849,7.8789,7.8789,7.8789,7.8789,7.8789,7.846,7.7718,7.7741,7.6651,7.4361,7.1305,6.9399,6.7892,6.4544,6.2973,6.2873,6.2822,6.2822,6.2847,6.2898,6.2923,6.2847,6.2822,6.2822,6.2822,6.2822,6.2822,6.2822,6.2822,6.2822,6.2822,6.2923,6.2898,6.2973,6.2923,6.3023,6.2973,6.2923,6.2923,6.2847,6.2923,6.3124,6.3626,6.3701,6.3927,6.4228,6.4354,6.4228,6.3977,6.4705,6.5409,6.5961,6.6112,6.6112,6.6112,6.6112,6.6162,6.6162,6.6137,6.6212,6.6363,6.614,6.5099,6.3418,6.2397,6.0341,5.6184,5.5114,5.3972,5.1991,5.1875,5.2109,5.2168,5.2285,5.2617,5.3242,5.375,5.3984,5.4023,5.4023,5.4023,5.4023,5.4023,5.4023,5.4023,5.4023,5.4023,5.4023,5.4023,5.4023,5.4023,5.4023,5.4023,5.4023,5.4258,5.4277,5.4394,5.4551,5.4597,5.409,5.2379,5.0161,4.5519,4.1615,3.9656,3.8584,3.8678,3.8718,3.8718,3.8718,3.8718,3.8744,3.8758,3.8758,7.9267,7.8819,7.8789,7.8789,7.8789,7.8789,7.8699,7.843,7.7981,7.6175,7.3264,7.1294,6.958,6.7694,6.4837,6.3475,6.335,6.3023,6.2822,6.2898,6.3299,6.3174,6.2898,6.2822,6.2822,6.2822,6.2822,6.2822,6.2822,6.2822,6.2822,6.2847,6.3249,6.345,6.35,6.3802,6.3802,6.3525,6.3475,6.3249,6.2948,6.3274,6.3525,6.3676,6.4078,6.4329,6.453,6.4881,6.5032,6.4906,6.5107,6.5534,6.6112,6.6187,6.6212,6.6162,6.6162,6.6312,6.6564,6.6388,6.6513,6.7216,6.6741,6.5816,6.3768,6.1764,5.9516,5.6336,5.4638,5.3093,5.2561,5.2461,5.2656,5.2969,5.3008,5.3125,5.3379,5.375,5.4023,5.4023,5.4023,5.4023,5.4023,5.4023,5.4023,5.4023,5.4023,5.4023,5.4023,5.4023,5.4023,5.4023,5.4023,5.4023,5.4101,5.4375,5.457,5.4707,5.4772,5.4971,5.3378,5.101,4.801,4.4033,4.1088,3.8856,3.8651,3.8718,3.8718,3.8758,3.8771,3.8798,3.8825,3.8851,3.8851,7.9417,7.8789,7.8789,7.8968,7.9148,7.8908,7.8849,7.8734,7.8286,7.7144,7.4806,7.2147,7.0282,6.865,6.5539,6.3877,6.3651,6.335,6.3199,6.3274,6.3776,6.3701,6.3249,6.2998,6.2822,6.2822,6.2847,6.2822,6.2822,6.2822,6.2822,6.2923,6.34,6.3676,6.3701,6.4178,6.4354,6.4078,6.4002,6.3751,6.3274,6.3726,6.3977,6.4128,6.4555,6.4957,6.5484,6.6061,6.6262,6.6086,6.6036,6.6237,6.6739,6.684,6.6714,6.6538,6.6664,6.6915,6.6915,6.684,6.7116,6.7392,6.6714,6.468,6.2433,6.0105,5.7656,5.4964,5.347,5.2914,5.2734,5.2851,5.3183,5.3555,5.3808,5.3828,5.3672,5.3867,5.4004,5.4023,5.4023,5.4023,5.4043,5.4043,5.4043,5.4023,5.4023,5.4023,5.4023,5.4023,5.4043,5.4043,5.4101,5.4141,5.4316,5.457,5.4487,5.4642,5.2748,5.3409,5.1604,4.8891,4.5502,4.2319,4.0065,3.8731,3.8758,3.8784,3.8825,3.8851,3.8865,3.8905,3.8958,3.9078,3.9065,7.9627,7.8998,7.8998,7.9357,7.9776,7.9297,7.9033,7.8771,7.8853,7.8819,7.7475,7.3727,7.1116,7.0255,6.6192,6.4329,6.3927,6.3827,6.3852,6.3977,6.4228,6.4178,6.3927,6.3425,6.3149,6.3048,6.2973,6.2948,6.2973,6.2948,6.2998,6.3199,6.3626,6.3877,6.4153,6.4479,6.4605,6.458,6.4555,6.4279,6.3952,6.4254,6.453,6.4655,6.5258,6.5986,6.6764,6.7342,6.7467,6.7166,6.7091,6.7241,6.7693,6.7769,6.7543,6.7216,6.7392,6.7493,6.7317,6.7568,6.7844,6.7641,6.5729,6.3034,6.0893,5.8704,5.6055,5.3787,5.2851,5.3008,5.3144,5.334,5.3672,5.4082,5.4453,5.4512,5.4238,5.4141,5.416,5.416,5.418,5.416,5.416,5.416,5.4199,5.4512,5.4433,5.4414,5.4355,5.4297,5.4199,5.4286,5.418,5.4297,5.4531,5.4785,5.451,5.4168,5.0722,4.9498,4.7889,4.5565,4.2746,4.0121,3.9317,3.8878,3.8851,3.8878,3.8931,3.8985,3.9025,3.9078,3.9159,3.9346,3.9412,8.0973,8.0375,8.0375,8.0464,8.0554,8.0434,7.9752,7.8863,7.9451,7.9277,7.7904,7.4197,7.141,6.9478,6.6695,6.5032,6.4806,6.453,6.4505,6.4881,6.4555,6.4731,6.4731,6.4354,6.3902,6.3701,6.3927,6.3651,6.3224,6.3601,6.3902,6.3651,6.4329,6.4931,6.4957,6.5308,6.5509,6.5208,6.5107,6.4831,6.4505,6.4831,6.5132,6.5233,6.6086,6.6915,6.7417,6.7442,6.7642,6.8045,6.7919,6.7769,6.7894,6.7894,6.7819,6.7719,6.7744,6.797,6.817,6.8095,6.8196,6.8335,6.6045,6.3665,6.1604,5.888,5.6424,5.4319,5.375,5.3828,5.4121,5.4297,5.4414,5.459,5.4902,5.5019,5.4707,5.4824,5.4941,5.498,5.498,5.5019,5.5,5.4941,5.4961,5.5019,5.4961,5.4922,5.4785,5.4609,5.4492,5.458,5.4473,5.4668,5.4734,5.4378,5.2991,5.189,4.8603,4.5886,4.4486,4.3459,4.1259,4.0041,3.9299,3.9038,3.8945,3.9012,3.9065,3.9132,3.9199,3.9279,3.9399,3.9599,3.9626,8.1392,8.0823,8.0823,8.0973,8.1183,8.0943,8.0675,8.0586,7.9929,7.9455,7.8026,7.4381,7.187,7.0556,6.7402,6.5559,6.5283,6.5007,6.5007,6.5258,6.5208,6.5434,6.5559,6.5333,6.4881,6.4254,6.4304,6.4053,6.3927,6.4103,6.4279,6.4128,6.4906,6.5183,6.5358,6.5835,6.5911,6.5735,6.566,6.5409,6.5032,6.5383,6.586,6.6237,6.7116,6.7919,6.8145,6.8218,6.8469,6.8848,6.8723,6.8572,6.8572,6.8547,6.8447,6.8246,6.8472,6.8648,6.8848,6.9024,6.8659,6.7984,6.5282,6.2684,6.0222,5.7509,5.5769,5.447,5.4219,5.4512,5.4902,5.4961,5.498,5.5039,5.5351,5.5469,5.5332,5.5312,5.5312,5.5312,5.5254,5.5254,5.5293,5.543,5.5351,5.5234,5.5215,5.5176,5.5137,5.498,5.4941,5.4883,5.4922,5.5078,5.4952,5.376,5.1061,4.8977,4.5726,4.3354,4.1389,4.1015,4.0393,3.9658,3.9145,3.9078,3.9025,3.9118,3.9252,3.9386,3.9466,3.9519,3.9613,3.98,3.972,8.1601,8.1093,8.1093,8.1422,8.1781,8.1392,8.1751,8.235,8.0941,7.9662,7.8095,7.4451,7.2513,7.1551,6.7854,6.5956,6.5534,6.5434,6.5484,6.5534,6.581,6.5936,6.6011,6.5886,6.5584,6.4781,6.4831,6.4705,6.4479,6.463,6.4806,6.4731,6.5157,6.5484,6.5559,6.5835,6.6086,6.6036,6.6011,6.586,6.5534,6.586,6.6312,6.7116,6.7894,6.8547,6.8773,6.9074,6.9376,6.9451,6.9451,6.9451,6.9451,6.9526,6.9476,6.9024,6.9476,6.9702,6.9828,6.9871,6.9312,6.6653,6.4105,6.1423,5.8662,5.6275,5.4931,5.4619,5.4609,5.4941,5.5332,5.541,5.539,5.5469,5.5762,5.5957,5.5898,5.5644,5.5625,5.5586,5.5723,5.5762,5.5703,5.5723,5.5586,5.5488,5.5469,5.5469,5.5449,5.541,5.539,5.541,5.5449,5.4283,5.4105,5.0467,4.8211,4.6494,4.3201,4.1403,3.9617,3.9644,3.9495,3.9519,3.9172,3.9105,3.9145,3.9279,3.9439,3.9613,3.968,3.9666,3.98,4.0,3.9574,8.2529,8.2439,8.2439,8.2499,8.2559,8.2469,8.2469,8.268,8.1751,8.0408,7.8299,7.4988,7.292,7.1526,6.8048,6.6208,6.5911,6.5886,6.5911,6.5911,6.6086,6.6112,6.6112,6.6112,6.5961,6.5911,6.5735,6.5308,6.4982,6.5308,6.5409,6.5333,6.566,6.5911,6.5936,6.6086,6.6112,6.6112,6.6112,6.6011,6.6061,6.6287,6.6764,6.7618,6.8371,6.8848,6.92,6.9351,6.9451,6.9451,6.9451,6.9451,6.9627,6.9928,7.0204,7.038,7.0531,7.0606,7.0338,7.0648,6.9559,6.7225,6.4267,6.1688,5.9019,5.6634,5.5149,5.5058,5.5137,5.5371,5.5781,5.5879,5.5859,5.5957,5.6172,5.6348,5.6133,5.6133,5.625,5.6191,5.625,5.6269,5.6152,5.6094,5.6074,5.6035,5.6055,5.6074,5.6094,5.5996,5.5706,5.5726,5.5765,5.4389,5.2815,4.7939,4.4517,4.3626,4.1632,4.0296,3.895,3.895,3.8838,3.9172,3.9252,3.9172,3.9265,3.9399,3.9452,3.9506,3.964,3.976,3.9853,3.9694,3.8138,8.2769,8.2769,8.2769,8.2769,8.2769,8.2769,8.2769,8.2679,8.205,8.0166,7.7405,7.4772,7.261,7.0686,6.7815,6.6112,6.6137,6.6112,6.6112,6.6112,6.6112,6.6112,6.6112,6.6112,6.6112,6.6086,6.6061,6.5886,6.5409,6.581,6.5936,6.586,6.6011,6.6112,6.6112,6.6112,6.6112,6.6112,6.6112,6.6262,6.6614,6.699,6.7744,6.817,6.8723,6.915,6.9351,6.9451,6.9451,6.9451,6.9451,6.9752,7.0179,7.0455,7.0656,7.0757,7.0958,7.0465,6.9651,6.9322,6.7534,6.3807,6.2214,6.0293,5.7966,5.6087,5.543,5.5586,5.5664,5.5801,5.623,5.6426,5.6582,5.6621,5.6797,5.6777,5.666,5.6621,5.664,5.666,5.6543,5.6484,5.6504,5.6484,5.6543,5.6582,5.6582,5.6582,5.6582,5.6445,5.6057,5.497,5.4326,5.1292,4.9658,4.5917,4.209,4.1188,4.0512,3.9168,3.8718,3.8718,3.9025,3.9412,3.9386,3.9172,3.9212,3.9279,3.9332,3.9412,3.9533,3.9653,3.9773,3.9336,3.7822,8.2769,8.2769,8.2769,8.2769,8.2769,8.2769,8.2769,8.2649,8.223,7.9795,7.6151,7.4501,7.2532,6.9899,6.7707,6.6162,6.6262,6.6312,6.6338,6.6338,6.6363,6.6287,6.6137,6.6112,6.6112,6.6112,6.6112,6.6112,6.5986,6.6086,6.6112,6.6061,6.6086,6.6112,6.6112,6.6112,6.6112,6.6112,6.6137,6.6413,6.7091,6.7995,6.8622,6.8673,6.915,6.9426,6.9451,6.9451,6.9551,6.9577,6.9627,6.9928,7.0832,7.1083,7.0723,7.0153,7.0316,6.9609,6.8709,6.7281,6.5492,6.1501,6.05,5.8498,5.6732,5.5933,5.5762,5.5996,5.6074,5.6172,5.6504,5.6933,5.7109,5.7168,5.7187,5.7265,5.7207,5.7129,5.6992,5.6914,5.6758,5.668,5.666,5.6582,5.6582,5.6582,5.6582,5.6582,5.6582,5.6582,5.6037,5.4318,5.2127,4.8122,4.5739,4.4004,4.1043,3.9862,3.9399,3.895,3.8718,3.8718,3.9092,3.9412,3.9252,3.9078,3.9118,3.9199,3.9306,3.9386,3.9452,3.9653,3.996,3.9214,3.7885,8.2769,8.2769,8.2769,8.2769,8.2769,8.2769,8.2769,8.2739,8.2649,8.0147,7.6006,7.5253,7.3158,6.9889,6.7367,6.6438,6.6689,6.6789,6.6714,6.6664,6.6689,6.6488,6.6187,6.6112,6.6112,6.6112,6.6112,6.6112,6.6112,6.6112,6.6112,6.6112,6.6162,6.6137,6.6237,6.6262,6.6112,6.6137,6.6187,6.6488,6.7116,6.8095,6.8597,6.8798,6.9125,6.9451,6.9451,6.9451,6.9627,7.0029,6.9677,7.0029,7.0857,7.1083,6.9978,6.8922,6.8563,6.8728,6.7728,6.6126,6.3698,6.0674,6.0094,5.8883,5.7177,5.6308,5.6328,5.6465,5.6504,5.6543,5.6699,5.7031,5.7168,5.7344,5.7717,5.7637,5.7676,5.7578,5.7441,5.7344,5.7246,5.6933,5.6738,5.666,5.6582,5.6582,5.6582,5.6601,5.6309,5.621,5.3929,5.1553,4.9607,4.6024,4.3545,4.1544,4.0588,3.8865,3.8851,3.8838,3.8838,3.8891,3.8958,3.9159,3.9065,3.9159,3.9319,3.9386,3.9359,3.9332,3.9359,3.9773,4.0294,3.917,3.7214,8.2769,8.2769,8.2769,8.2769,8.2769,8.2769,8.2769,8.2769,8.2739,8.024,7.6542,7.5457,7.274,6.8861,6.701,6.6538,6.6614,6.684,6.6764,6.6589,6.6538,6.6388,6.6187,6.6112,6.6112,6.6112,6.6112,6.6112,6.6112,6.6137,6.6112,6.6187,6.6438,6.6614,6.6589,6.6614,6.6815,6.7066,6.7367,6.7493,6.7744,6.8447,6.9074,6.9074,6.9325,6.9426,6.9476,6.9451,6.9727,7.0104,7.0003,7.048,7.1259,7.1399,7.0586,6.8513,6.6941,6.5665,6.4056,6.3084,6.1071,5.9236,5.8455,5.7667,5.7011,5.6758,5.6738,5.6914,5.6933,5.6933,5.709,5.7578,5.7851,5.7988,5.8168,5.8066,5.8144,5.8008,5.789,5.7812,5.7695,5.7402,5.707,5.6855,5.6758,5.666,5.6289,5.6132,5.5611,5.515,5.1879,4.7463,4.5929,4.3702,4.1871,4.0287,4.0287,3.9279,3.9265,3.9212,3.9078,3.9105,3.9132,3.9252,3.9372,3.9466,3.9586,3.9426,3.9265,3.9239,3.9239,3.9693,3.9853,3.7451,3.4843,8.2769,8.2769,8.2769,8.2769,8.2769,8.2769,8.2769,8.2769,8.2769,8.0532,7.6998,7.5049,7.1645,6.8112,6.7015,6.6739,6.6413,6.6789,6.6689,6.6463,6.6363,6.6338,6.6187,6.6112,6.6112,6.6137,6.6363,6.6287,6.6237,6.6388,6.6589,6.6363,6.6714,6.7015,6.7116,6.7041,6.7066,6.7392,6.8095,6.8246,6.8246,6.8899,6.93,6.9426,6.9451,6.9501,6.9627,6.9677,6.9953,7.0631,7.0581,7.1008,7.1887,7.0948,6.9525,6.7288,6.5087,6.2557,6.1011,5.9631,5.8576,5.7594,5.6836,5.7227,5.7129,5.6855,5.6875,5.7168,5.7324,5.7344,5.7519,5.8066,5.8301,5.8418,5.8515,5.8594,5.8633,5.8496,5.8418,5.8398,5.8262,5.7969,5.7617,5.7207,5.6973,5.6582,5.6386,5.5657,5.4302,5.2806,4.9761,4.5242,4.3548,4.217,4.0937,3.981,3.9613,3.9626,3.9599,3.9479,3.9265,3.9185,3.9199,3.9372,3.9613,3.9693,3.9746,3.9452,3.9185,3.9279,3.9386,3.9533,3.8792,3.6008,3.2471,8.2769,8.2769,8.2769,8.2769,8.2769,8.2769,8.2769,8.2769,8.2769,8.0911,7.7505,7.411,7.0714,6.8195,6.7267,6.699,6.689,6.694,6.694,6.7164,6.7215,6.6862,6.6413,6.6212,6.6162,6.6212,6.6513,6.6513,6.6488,6.7091,6.7141,6.7041,6.7216,6.7392,6.7518,6.7543,6.7267,6.7568,6.8221,6.8648,6.8673,6.9074,6.9426,6.9451,6.9476,6.9652,7.0154,7.0129,7.0556,7.146,7.1259,7.1062,7.1245,6.9981,6.793,6.4974,6.2967,6.0469,5.8606,5.7871,5.756,5.7265,5.7383,5.7402,5.7168,5.7519,5.7558,5.7422,5.7676,5.7793,5.7949,5.8223,5.8594,5.8711,5.8808,5.8926,5.8965,5.9004,5.8945,5.8984,5.8769,5.8437,5.7465,5.6859,5.6058,5.5649,5.3512,5.2771,4.9978,4.8522,4.6662,4.3651,4.1758,4.0583,4.0168,3.9746,3.9907,3.9813,3.9693,3.9519,3.9306,3.9279,3.9412,3.9546,3.9786,3.984,3.9867,3.9626,3.9466,3.9479,3.9322,3.8991,3.6744,3.3528,2.9906,8.2769,8.2769,8.2769,8.2769,8.2769,8.2769,8.2769,8.2769,8.2769,8.0532,7.6834,7.338,7.0421,6.8346,6.7618,6.7267,6.7015,6.6965,6.7191,6.7216,6.7091,6.6815,6.6365,6.629,6.6165,6.6338,6.6689,6.694,6.6815,6.7543,6.7894,6.7894,6.7919,6.807,6.8196,6.8271,6.807,6.7844,6.8447,6.8974,6.8748,6.9125,6.9451,6.9451,6.9451,6.9727,7.0154,7.0255,7.0932,7.156,7.1661,7.131,7.0538,6.8803,6.6278,6.3084,6.1261,5.9707,5.7795,5.7265,5.7324,5.7598,5.7754,5.7793,5.7558,5.789,5.8008,5.8027,5.8144,5.8262,5.834,5.8652,5.8965,5.8984,5.9043,5.916,5.9199,5.9199,5.918,5.9101,5.9004,5.8808,5.7648,5.6473,5.5468,5.4524,5.1955,4.9583,4.6972,4.5015,4.3901,4.2763,4.1067,4.0455,4.0054,4.0134,4.0241,4.004,3.9827,3.968,3.9546,3.9693,3.9813,3.9907,3.9947,4.0027,4.0,3.984,3.9733,3.9666,3.8792,3.7987,3.4762,3.0988,2.753,8.2769,8.2769,8.2769,8.2769,8.2769,8.2769,8.2769,8.2769,8.2769,8.0248,7.5875,7.3122,7.0421,6.8422,6.7794,6.7467,6.7166,6.7191,6.7467,6.7493,6.7142,6.6916,6.6841,6.6691,6.6267,6.6639,6.694,6.7216,6.7267,6.7945,6.8296,6.8547,6.8773,6.8848,6.8949,6.915,6.8949,6.8522,6.8823,6.93,6.8974,6.9225,6.9451,6.9451,6.9451,6.9878,7.0355,7.0656,7.1158,7.1836,7.1812,7.094,6.9358,6.7475,6.5064,6.221,6.0006,5.9101,5.8012,5.7578,5.7734,5.8027,5.8262,5.832,5.8262,5.8242,5.8457,5.8418,5.8594,5.873,5.873,5.8984,5.9121,5.9101,5.9121,5.9199,5.9199,5.9199,5.9199,5.916,5.9082,5.8557,5.5199,5.3376,5.1063,5.0208,4.8965,4.6541,4.4077,4.2797,4.2404,4.1499,4.0616,4.0428,4.0454,4.0401,4.0348,4.0281,4.008,3.9974,3.9933,4.0,4.0,3.9987,4.004,4.0201,4.0201,4.012,3.996,3.98,3.824,3.6444,3.3093,2.9268,2.5533,8.2769,8.2769,8.2769,8.2769,8.2769,8.2769,8.2769,8.2739,8.2435,8.0091,7.6014,7.3122,7.0421,6.8221,6.7819,6.7543,6.7292,6.7518,6.7844,6.7919,6.7617,6.7769,6.7342,6.7041,6.6716,6.7618,6.7693,6.7643,6.7794,6.8648,6.8949,6.8924,6.91,6.93,6.9401,6.9426,6.9125,6.8773,6.9225,6.9325,6.9376,6.9401,6.9426,6.9451,6.9451,6.9878,7.0656,7.0882,7.146,7.2313,7.2539,7.102,6.8457,6.6286,6.3695,6.074,5.8686,5.7855,5.7832,5.8262,5.8457,5.8535,5.873,5.873,5.834,5.8496,5.8887,5.875,5.8887,5.9082,5.914,5.916,5.918,5.9199,5.9199,5.9199,5.9199,5.918,5.918,5.8,5.8244,5.7756,5.3539,4.9956,4.6775,4.5333,4.5232,4.3895,4.1809,4.1368,4.1409,4.1181,4.0481,4.0481,4.0481,4.0481,4.0441,4.0401,4.0294,4.0147,3.9974,3.9867,3.9907,4.0014,4.0134,4.0267,4.0374,4.0441,3.9745,3.8838,3.6456,3.4108,3.0968,2.753,2.3787,8.2769,8.2769,8.2769,8.2769,8.2769,8.2769,8.2769,8.2587,8.1087,7.8763,7.5986,7.3122,7.0421,6.8598,6.7819,6.7719,6.7618,6.7643,6.797,6.8773,6.8218,6.8093,6.7893,6.7592,6.7392,6.7719,6.7819,6.807,6.8346,6.9125,6.9325,6.93,6.93,6.9426,6.9451,6.9426,6.93,6.9225,6.9376,6.9426,6.9451,6.9451,6.9451,6.9451,6.9451,7.0029,7.0983,7.1083,7.1711,7.2565,7.2526,7.0517,6.7103,6.4706,6.2622,5.9625,5.7402,5.7988,5.8496,5.8906,5.8945,5.9004,5.9023,5.9023,5.8848,5.8965,5.9043,5.9004,5.9062,5.9199,5.918,5.918,5.9199,5.9199,5.9199,5.9199,5.918,5.918,5.8712,5.6591,5.5874,5.308,4.9573,4.748,4.4565,4.2911,4.2756,4.2544,4.0912,4.0683,4.071,4.071,4.0481,4.0481,4.0481,4.0481,4.0481,4.0441,4.0334,4.0187,4.0,3.9893,4.0014,4.0214,4.0281,4.0334,4.0414,3.9969,3.8688,3.7395,3.4399,3.1432,2.8501,2.5282,2.204,8.2769,8.2769,8.2769,8.2769,8.2769,8.2769,8.2435,8.1426,7.9242,7.6922,7.4648,7.1979,6.9907,6.8499,6.8095,6.8095,6.8095,6.8346,6.8522,6.9351,6.8794,6.8669,6.8698,6.8371,6.8271,6.8221,6.8196,6.8371,6.8899,6.925,6.9401,6.9401,6.9451,6.9451,6.9451,6.9426,6.9426,6.9401,6.9451,6.9451,6.9451,6.9451,6.9451,6.9501,6.9702,7.0179,7.0857,7.1359,7.1761,7.225,7.1309,6.9308,6.5888,6.3332,6.1282,5.8633,5.7812,5.8398,5.8945,5.914,5.9121,5.916,5.9199,5.9199,5.9199,5.916,5.918,5.916,5.9199,5.9199,5.9199,5.9199,5.9199,5.9199,5.9199,5.9199,5.918,5.918,5.7756,5.5628,5.3292,4.9806,4.6315,4.4445,4.2544,4.1396,4.071,4.0481,4.0481,4.0481,4.0481,4.0481,4.0481,4.0481,4.0481,4.0481,4.0481,4.0481,4.0361,4.0214,4.0267,4.0214,4.0321,4.0388,4.0388,4.0401,4.0185,3.9457,3.72,3.4434,3.0927,2.8224,2.5776,2.329,2.0786,8.2769,8.2769,8.2769,8.2769,8.2769,8.2769,8.158,7.943,7.7086,7.4926,7.2731,7.0193,6.8725,6.8572,6.8597,6.8547,6.8648,6.9049,6.9275,6.9401,6.9095,6.9325,6.9125,6.8569,6.8544,6.8949,6.8924,6.8723,6.9351,6.9426,6.9426,6.9451,6.9451,6.9451,6.9451,6.9451,6.9451,6.9451,6.9451,6.9451,6.9451,6.9451,6.9451,6.9551,6.9903,7.0405,7.1033,7.1535,7.2087,7.1733,7.03,6.7695,6.4885,6.206,5.9733,5.8188,5.8144,5.8711,5.9082,5.918,5.9199,5.9199,5.9199,5.9199,5.9199,5.9199,5.9199,5.9199,5.9199,5.9199,5.9199,5.9199,5.9199,5.9199,5.9199,5.918,5.918,5.8244,5.6817,5.47,5.2602,4.934,4.5145,4.2573,4.1651,4.1181,4.0481,4.0481,4.0481,4.0481,4.0481,4.0481,4.0481,4.0481,4.0468,4.0428,4.0348,4.0308,4.0348,4.0267,4.0374,4.0428,4.0441,4.0441,4.0468,3.9982,3.897,3.698,3.4737,3.1474,2.8214,2.6243,2.4039,2.2539,2.0539,8.2769,8.2769,8.2769,8.2769,8.2769,8.2769,8.1426,7.9271,7.7086,7.4953,7.2584,6.9866,6.8673,6.8622,6.8622,6.8648,6.8848,6.9125,6.9351,6.9451,6.9451,6.9451,6.9225,6.8744,6.882,6.9074,6.9049,6.8949,6.9325,6.9451,6.9451,6.9451,6.9451,6.9451,6.9451,6.9451,6.9451,6.9451,6.9451,6.9451,6.9451,6.9451,6.9451,6.9602,7.0029,7.0581,7.1083,7.1661,7.2213,7.1997,6.989,6.7498,6.4885,6.2382,6.0186,5.8524,5.8672,5.9082,5.916,5.9199,5.9199,5.9199,5.9199,5.9199,5.9199,5.9199,5.9199,5.9199,5.9199,5.9199,5.9199,5.9199,5.9199,5.9199,5.918,5.8956,5.8488,5.7061,5.5174,5.168,4.9573,4.6552,4.2587,4.1878,4.0953,4.071,4.0481,4.0481,4.0481,4.0481,4.0481,4.0481,4.0481,4.0481,4.0374,4.0321,4.0214,4.0147,4.0201,4.0254,4.0281,4.0334,4.0441,4.0225,3.9969,3.847,3.6968,3.4737,3.2,2.9019,2.6018,2.4283,2.2539,2.1287,2.0539,8.2769,8.2769,8.2769,8.2769,8.2769,8.2769,8.1087,7.8252,7.6621,7.4446,7.1413,6.9612,6.8949,6.8974,6.8974,6.8974,6.9024,6.9275,6.9451,6.9451,6.9451,6.9451,6.925,6.892,6.8995,6.92,6.92,6.915,6.9401,6.9451,6.9451,6.9451,6.9451,6.9451,6.9451,6.9451,6.9451,6.9451,6.9451,6.9451,6.9451,6.9451,6.9451,6.9602,7.0129,7.0732,7.1158,7.1761,7.1773,7.0877,6.848,6.5888,6.3215,6.1013,5.9812,5.8262,5.8808,5.9062,5.9199,5.9199,5.9199,5.9199,5.9199,5.9199,5.9199,5.9199,5.9199,5.9199,5.9199,5.9199,5.9199,5.9199,5.9199,5.9199,5.8956,5.8488,5.7287,5.5628,5.2142,4.8185,4.516,4.236,4.0724,4.0481,4.0481,4.0481,4.0481,4.0481,4.0481,4.0481,4.0481,4.0481,4.0481,4.0481,4.0361,4.0267,4.0201,4.0134,4.012,4.0161,4.0187,4.0294,4.0441,3.9726,3.9214,3.7225,3.5228,3.2,2.9268,2.6528,2.4291,2.2792,2.1541,2.104,2.0539,8.2769,8.2769,8.2769,8.2769,8.2769,8.2769,8.0248,7.6263,7.6097,7.362,7.0095,6.9426,6.9376,6.9325,6.9325,6.9325,6.9325,6.9426,6.9451,6.9451,6.9451,6.9451,6.9451,6.9426,6.9351,6.9401,6.9401,6.9325,6.9401,6.9451,6.9451,6.9451,6.9451,6.9451,6.9451,6.9451,6.9451,6.9451,6.9451,6.9451,6.9451,6.9451,6.9501,6.9727,7.038,7.1133,7.1435,7.1399,7.1309,6.87,6.5888,6.3266,6.0804,5.9202,5.8387,5.8403,5.8808,5.9082,5.9199,5.9199,5.9199,5.9199,5.9199,5.9199,5.9199,5.9199,5.9199,5.9199,5.9199,5.9199,5.9199,5.9199,5.9199,5.9199,5.8956,5.7776,5.5874,5.3292,4.9106,4.562,4.3053,4.0724,4.0481,4.0481,4.0481,4.0481,4.0481,4.0481,4.0481,4.0481,4.0481,4.0481,4.0481,4.0468,4.0401,4.0308,4.0227,4.0174,4.012,4.012,4.0174,4.0308,4.0212,3.8996,3.7506,3.5486,3.3236,3.0005,2.7029,2.4787,2.2792,2.1287,2.0539,2.0539,2.0539,8.2769,8.2769,8.2769,8.2769,8.2769,8.2769,8.0248,7.629,7.6124,7.3448,6.9941,6.9451,6.9451,6.9451,6.9451,6.9451,6.9451,6.9451,6.9451,6.9451,6.9451,6.9451,6.9451,6.9451,6.9451,6.9451,6.9451,6.9451,6.9451,6.9451,6.9451,6.9451,6.9451,6.9451,6.9451,6.9451,6.9451,6.9451,6.9451,6.9451,6.9451,6.9526,6.9602,7.0079,7.0757,7.1124,7.1125,7.027,6.9624,6.8088,6.3853,6.0803,5.8085,5.7993,5.8008,5.8398,5.8848,5.9101,5.9199,5.9199,5.9199,5.9199,5.9199,5.9199,5.9199,5.9199,5.9199,5.9199,5.9199,5.9199,5.9199,5.9199,5.9199,5.9199,5.8712,5.6591,5.4454,5.0272,4.6079,4.3743,4.1423,4.071,4.0481,4.0481,4.0481,4.0481,4.0481,4.0481,4.0481,4.0481,4.0481,4.0481,4.0481,4.0454,4.0401,4.0308,4.0214,4.0161,4.0094,4.012,4.0174,4.0321,4.0225,3.7531,3.5544,3.3269,3.075,2.753,2.5039,2.3045,2.204,2.0786,2.0539,2.0539,2.0539,8.1901,8.1931,8.22,8.232,8.2229,8.1616,7.9242,7.6263,7.5094,7.2611,6.9786,6.9451,6.9451,6.9451,6.9451,6.9451,6.9451,6.9451,6.9451,6.9451,6.9451,6.9451,6.9451,6.9451,6.9451,6.9451,6.9451,6.9451,6.9451,6.9451,6.9451,6.9451,6.9451,6.9451,6.9451,6.9451,6.9451,6.9451,6.9451,6.9451,6.9501,6.9652,6.9878,7.038,7.0983,7.1137,6.9927,6.8779,6.7405,6.5064,6.0842,5.906,5.756,5.7815,5.8047,5.8496,5.8887,5.9199,5.9199,5.9199,5.9199,5.9199,5.9199,5.9199,5.9199,5.9199,5.9199,5.9199,5.9199,5.9199,5.9199,5.9199,5.9199,5.9199,5.7061,5.4472,5.0504,4.5842,4.3518,4.1878,4.071,4.0724,4.0481,4.0481,4.0481,4.0481,4.0481,4.0481,4.0481,4.0481,4.0481,4.0481,4.0481,4.0468,4.0441,4.0308,4.0161,4.012,4.0107,4.0187,4.0267,4.0374,3.9739,3.6515,3.3527,3.0771,2.8021,2.529,2.329,2.1541,2.104,2.0539,2.0539,2.0539,2.0539,8.0853,8.0913,8.1512,8.1781,8.154,8.0143,7.8338,7.6235,7.3818,7.1615,6.9606,6.9451,6.9451,6.9451,6.9451,6.9451,6.9451,6.9451,6.9451,6.9451,6.9451,6.9451,6.9451,6.9451,6.9451,6.9451,6.9451,6.9451,6.9451,6.9451,6.9451,6.9451,6.9451,6.9451,6.9451,6.9451,6.9451,6.9451,6.9451,6.9451,6.9652,6.9928,7.0154,7.0606,7.0627,6.9995,6.8877,6.6755,6.484,6.2038,5.8836,5.7653,5.7403,5.7617,5.8066,5.8496,5.8945,5.914,5.9199,5.9199,5.9199,5.9199,5.9199,5.9199,5.9199,5.9199,5.9199,5.9199,5.9199,5.9199,5.9199,5.9199,5.9199,5.8244,5.5174,5.1894,4.7244,4.2813,4.1409,4.0481,4.0481,4.0481,4.0481,4.0481,4.0481,4.0481,4.0481,4.0481,4.0481,4.0481,4.0481,4.0481,4.0481,4.0468,4.0468,4.0308,4.0134,4.0201,4.0227,4.0294,4.0119,3.9188,3.7713,3.4737,3.1753,2.852,2.5784,2.3045,2.1294,2.0539,2.0539,2.0539,2.0539,2.0539,2.0539,8.0823,8.0853,8.1512,8.1751,8.154,7.9986,7.8755,7.7344,7.4176,7.1439,6.9761,6.9451,6.9451,6.9451,6.9451,6.9451,6.9451,6.9451,6.9451,6.9451,6.9451,6.9451,6.9451,6.9451,6.9451,6.9451,6.9451,6.9451,6.9451,6.9451,6.9451,6.9451,6.9451,6.9451,6.9451,6.9451,6.9451,6.9451,6.9451,6.9451,6.9451,6.9752,7.0204,6.9869,6.8957,6.8612,6.7492,6.4169,6.2244,6.024,5.8264,5.7304,5.7265,5.7715,5.8144,5.8574,5.9004,5.9121,5.9199,5.9199,5.9199,5.9199,5.9199,5.9199,5.9199,5.9199,5.9199,5.9199,5.9199,5.9199,5.9199,5.9199,5.8956,5.6609,5.4015,4.9806,4.5382,4.2587,4.071,4.0481,4.0481,4.0481,4.0481,4.0481,4.0481,4.0481,4.0481,4.0481,4.0481,4.0481,4.0481,4.0481,4.0481,4.0481,4.0468,4.0294,4.0161,4.0254,4.0066,3.985,3.9136,3.7444,3.5228,3.2,2.9019,2.5784,2.3045,2.1287,2.104,2.0539,2.0539,2.0539,2.0539,2.0539,2.0539]},{"header":{"parameterUnit":"m.s-1","parameterCategory":1,"la1":31.0,"la2":29.5877,"lo1":-88.7671,"lo2":-86.6584,"dy":0.0162,"dx":0.0185,"nx":115,"ny":88,"refTime":"2024-09-22T18:00:00:Z","depth":0,"parameterNumber":3,"parameterNumberName":"V-component_of_WINDS"},"data":[0.0,0.0,0.0,0.0,0.0,0.0,0.0,0.0,0.0,0.0,0.0,0.0,0.0,0.0,0.0,0.0,0.0,0.0,0.0,0.0,0.0,0.0,0.0,0.0,0.0,0.0,0.0,0.0,0.0,0.0,0.0,0.0,0.0,0.0,0.0,0.0,0.0,0.0,0.0,0.0,0.0,0.0,0.0,0.0,0.0,0.0,0.0,0.0,0.0,0.0,0.0,0.0,0.0,0.0,0.0,0.0,0.0,0.0,0.0,0.0,0.0,0.0,0.0,0.0,0.0,0.0,0.0,0.0,0.0,0.0,0.0,0.0,0.0,0.0,0.0,0.0,0.0,0.0,0.0,0.0,0.0,0.0,0.0,0.0,0.0,0.0,0.0,0.0,0.0,0.0,0.0,0.0,0.0,0.0,0.0,0.0,0.0,0.0,0.0,0.0,0.0,0.0,0.0,0.0,0.0,0.0,0.0,0.0,0.0,0.0,0.0,0.0,0.0,0.0,0.0,0.0,0.0,0.0,0.0,0.0,0.0,0.0,0.0,0.0,0.0,0.0,0.0,0.0,0.0,0.0,0.0,0.0,0.0,0.0,0.0,0.0,0.0,0.0,0.0,0.0,0.0,0.0,0.0,0.0,0.0,0.0,0.0,0.0,0.0,0.0,0.0,0.0,0.0,0.0,0.0,0.0,0.0,0.0,0.0,0.0,0.0,0.0,0.0,0.0,0.0,0.0,0.0,0.0,0.0,0.0,0.0,0.0,0.0,0.0,0.0,0.0,0.0,0.0,0.0,0.0,0.0,0.0,0.0,0.0,0.0,0.0,0.0,0.0,0.0,0.0,0.0,0.0,0.0,0.0,0.0,0.0,0.0,0.0,0.0,0.0,0.0,0.0,0.0,0.0,0.0,0.0,0.0,0.0,0.0,0.0,0.0,0.0,0.0,0.0,0.0,0.0,0.0,0.0,0.0,0.0,0.0,0.0,0.0,0.0,0.0,0.0,0.0,0.0,0.0,0.0,0.0,0.0,0.0,0.0,0.0,0.0,0.0,0.0,0.0,0.0,0.0,0.0,0.0,0.0,0.0,0.0,0.0,0.0,0.0,0.0,0.0,0.0,0.0,0.0,0.0,0.0,0.0,0.0,0.0,0.0,0.0,0.0,0.0,0.0,0.0,0.0,0.0,0.0,0.0,0.0,0.0,0.0,0.0,0.0,0.0,0.0,0.0,0.0,0.0,0.0,0.0,0.0,0.0,0.0,0.0,0.0,0.0,0.0,0.0,0.0,0.0,0.0,0.0,0.0,0.0,0.0,0.0,0.0,0.0,0.0,0.0,0.0,0.0,0.0,0.0,0.0,0.0,0.0,0.0,0.0,0.0,0.0,0.0,0.0,0.0,0.0,0.0,0.0,0.0,0.0,0.0,0.0,0.0,0.0,0.0,0.0,0.0,0.0,0.0,0.0,0.0,0.0,0.0,0.0,0.0,0.0,0.0,0.0,0.0,0.0,0.0,0.0,0.0,0.0,0.0,0.0,0.0,0.0,0.0,0.0,0.0,0.0,0.0,0.0,0.0,0.0,0.0,0.0,0.0,0.0,0.0,0.0,0.0,0.0,0.0,0.0,0.0,0.0,0.0,0.0,0.0,0.0,0.0,0.0,0.0,0.0,0.0,0.0,0.0,0.0,0.0,0.0,0.0,0.0,0.0,0.0,0.0,0.0,0.0,0.0,0.0,0.0,0.0,0.0,0.0,0.0,0.0,0.0,0.0,0.0,0.0,0.0,0.0,0.0,0.0,0.0,0.0,0.0,0.0,0.0,0.0,0.0,0.0,0.0,0.0,0.0,0.0,0.0,0.0,0.0,0.0,0.0,0.0,0.0,0.0,0.0,0.0,0.0,0.0,0.0,0.0,0.0,0.0,0.0,0.0,0.0,0.0,0.0,0.0,0.0,0.0,0.0,0.0,0.0,0.0,0.0,0.0,0.0,0.0,0.0,0.0,0.0,0.0,0.0,0.0,0.0,0.0,0.0,0.0,0.0,0.0,0.0,0.0,0.0,0.0,0.0,0.0,0.0,0.0,0.0,0.0,0.0,0.0,0.0,0.0,0.0,0.0,0.0,0.0,0.0,0.0,0.0,0.0,0.0,0.0,0.0,0.0,0.0,0.0,0.0,0.0,0.0,0.0,0.0,0.0,0.0,0.0,0.0,0.0,0.0,0.0,0.0,0.0,0.0,0.0,0.0,0.0,0.0,0.0,0.0,0.0,0.0,0.0,0.0,0.0,0.0,0.0,0.0,0.0,0.0,0.0,0.0,0.0,0.0,0.0,0.0,0.0,0.0,0.0,0.0,0.0,0.0,0.0,0.0,0.0,0.0,0.0,0.0,0.0,0.0,0.0,0.0,0.0,0.0,0.0,0.0,0.0,0.0,0.0,0.0,0.0,0.0,0.0,0.0,0.0,0.0,0.0,0.0,0.0,0.0,0.0,0.0,0.0,0.0,0.0,0.0,0.0,0.0,0.0,0.0,0.0,0.0,0.0,0.0,0.0,0.0,0.0,0.0,0.0,0.0,0.0,0.0,0.0,0.0,0.0,0.0,0.0,0.0,0.0,0.0,0.0,0.0,0.0,0.0,0.0,0.0,0.0,0.0,0.0,0.0,0.0,0.0,0.0,0.0,0.0,0.0,0.0,0.0,0.0,0.0,0.0,0.0,0.0,0.0,0.0,0.0,0.0,0.0,0.0,0.0,0.0,0.0,0.0,0.0,0.0,0.0,0.0,0.0,0.0,0.0,0.0,0.0,0.0,0.0,0.0,0.0,0.0,0.0,0.0,0.0,0.0,0.0,0.0,0.0,0.0,0.0,0.0,0.0,0.0,0.0,0.0,0.0,0.0,0.0,0.0,0.0,0.0,0.0,0.0,0.0,0.0,0.0,0.0,0.0,0.0,0.0,0.0,0.0,0.0,0.0,0.0,0.0,0.0,0.0,0.0,0.0,0.0,0.0,0.0,0.0,0.0,0.0,0.0,0.0,0.0,0.0,0.0,0.0,0.0,0.0,0.0,0.0,0.0,0.0,0.0,0.0,0.0,0.0,0.0,0.0,0.0,0.0,0.0,0.0,0.0,0.0,0.0,0.0,0.0,0.0,0.0,0.0,0.0,0.0,0.0,0.0,0.0,0.0,0.0,0.0,0.0,0.0,0.0,0.0,0.0,0.0,0.0,0.0,0.0,0.0,0.0,0.0,0.0,0.0,0.0,0.0,0.0,0.0,0.0,0.0,0.0,0.0,0.0,0.0,0.0,0.0,0.0,0.0,0.0,0.0,0.0,0.0,0.0,0.0,0.0,0.0,0.0,0.0,0.0,0.0,0.0,0.0,0.0,0.0,0.0,0.0,0.0,0.0,0.0,0.0,0.0,0.0,0.0,0.0,0.0,0.0,0.0,0.0,0.0,0.0,0.0,0.0,0.0,0.0,0.0,0.0,0.0,0.0,0.0,0.0,0.0,0.0,0.0,0.0,0.0,0.0,0.0,0.0,0.0,0.0,0.0,0.0,0.0,0.0,0.0,0.0,0.0,0.0,0.0,0.0,0.0,0.0,0.0,0.0,0.0,0.0,0.0,0.0,0.0,0.0,0.0,0.0,0.0,0.0,0.0,0.0,0.0,0.0,0.0,0.0,0.0,0.0,0.0,0.0,0.0,0.0,0.0,0.0,0.0,0.0,0.0,0.0,0.0,0.0,0.0,0.0,0.0,0.0,0.0,0.0,0.0,0.0,0.0,0.0,0.0,0.0,0.0,0.0,0.0,0.0,0.0,0.0,0.0,0.0,0.0,0.0,0.0,0.0,0.0,0.0,0.0,0.0,0.0,0.0,0.0,0.0,0.0,0.0,0.0,0.0,0.0,0.0,0.0,0.0,0.0,0.0,0.0,0.0,0.0,0.0,0.0,0.0,0.0,0.0,0.0,0.0,0.0,0.0,0.0,0.0,0.0,0.0,0.0,0.0,0.0,0.0,0.0,0.0,0.0,0.0,0.0,0.0,0.0,0.0,0.0,0.0,0.0,0.0,0.0,0.0,0.0,0.0,0.0,0.0,0.0,0.0,0.0,0.0,0.0,0.0,0.0,0.0,0.0,0.0,0.0,0.0,0.0,0.0,0.0,0.0,0.0,0.0,0.0,0.0,0.0,0.0,0.0,0.0,0.0,0.0,0.0,0.0,0.0,0.0,0.0,0.0,0.0,0.0,0.0,0.0,0.0,0.0,0.0,0.0,0.0,0.0,-3.5378,0.0,0.0,0.0,0.0,0.0,0.0,0.0,0.0,0.0,0.0,0.0,0.0,0.0,0.0,0.0,0.0,0.0,0.0,0.0,0.0,0.0,0.0,0.0,0.0,0.0,0.0,0.0,0.0,0.0,0.0,0.0,0.0,0.0,0.0,0.0,0.0,0.0,0.0,0.0,0.0,0.0,0.0,0.0,0.0,0.0,0.0,0.0,0.0,0.0,0.0,0.0,0.0,0.0,0.0,0.0,0.0,0.0,0.0,0.0,0.0,0.0,0.0,0.0,0.0,0.0,0.0,0.0,0.0,0.0,0.0,0.0,0.0,0.0,0.0,0.0,0.0,0.0,0.0,0.0,0.0,0.0,0.0,0.0,0.0,0.0,0.0,0.0,0.0,0.0,0.0,0.0,0.0,0.0,0.0,0.0,0.0,0.0,0.0,0.0,0.0,0.0,0.0,0.0,0.0,0.0,0.0,0.0,0.0,0.0,0.0,-3.7312,-3.6759,-3.6734,-3.6232,-3.5152,0.0,0.0,0.0,0.0,0.0,0.0,0.0,0.0,0.0,0.0,0.0,0.0,0.0,0.0,0.0,0.0,0.0,0.0,0.0,0.0,0.0,0.0,0.0,0.0,0.0,0.0,0.0,0.0,0.0,0.0,0.0,0.0,0.0,0.0,0.0,0.0,0.0,0.0,0.0,0.0,0.0,0.0,0.0,0.0,0.0,0.0,0.0,0.0,0.0,0.0,0.0,0.0,0.0,0.0,0.0,0.0,0.0,0.0,0.0,0.0,0.0,0.0,0.0,0.0,0.0,0.0,0.0,0.0,0.0,0.0,0.0,0.0,0.0,0.0,0.0,0.0,0.0,0.0,0.0,0.0,0.0,0.0,0.0,0.0,0.0,0.0,0.0,0.0,0.0,0.0,0.0,0.0,0.0,0.0,0.0,0.0,0.0,0.0,0.0,0.0,0.0,0.0,0.0,0.0,0.0,0.0,0.0,0.0,0.0,0.0,0.0,0.0,-3.7236,-3.6784,-3.573,0.0,0.0,0.0,0.0,0.0,0.0,0.0,0.0,0.0,0.0,0.0,0.0,0.0,0.0,0.0,0.0,0.0,0.0,0.0,0.0,0.0,0.0,0.0,0.0,0.0,0.0,0.0,0.0,0.0,0.0,0.0,0.0,0.0,0.0,0.0,0.0,0.0,0.0,0.0,0.0,0.0,0.0,0.0,0.0,0.0,0.0,0.0,0.0,0.0,0.0,0.0,0.0,0.0,0.0,0.0,0.0,0.0,0.0,0.0,0.0,0.0,0.0,0.0,0.0,0.0,0.0,0.0,0.0,0.0,0.0,0.0,0.0,0.0,0.0,0.0,0.0,0.0,0.0,0.0,0.0,0.0,0.0,0.0,0.0,0.0,0.0,0.0,0.0,0.0,0.0,0.0,0.0,0.0,0.0,0.0,0.0,0.0,0.0,0.0,0.0,0.0,0.0,0.0,0.0,0.0,0.0,0.0,0.0,0.0,0.0,-3.7387,-3.9346,-3.9848,0.0,-3.8642,0.0,0.0,0.0,0.0,0.0,0.0,0.0,0.0,0.0,0.0,0.0,0.0,0.0,0.0,0.0,0.0,0.0,0.0,0.0,0.0,0.0,0.0,0.0,0.0,0.0,0.0,0.0,0.0,0.0,0.0,0.0,0.0,0.0,0.0,0.0,0.0,0.0,0.0,0.0,0.0,0.0,0.0,0.0,0.0,0.0,0.0,0.0,0.0,0.0,0.0,0.0,0.0,0.0,0.0,0.0,0.0,0.0,0.0,0.0,0.0,0.0,0.0,0.0,0.0,0.0,0.0,0.0,0.0,0.0,0.0,0.0,0.0,0.0,0.0,0.0,0.0,0.0,0.0,0.0,0.0,0.0,0.0,0.0,0.0,0.0,0.0,0.0,0.0,0.0,0.0,0.0,0.0,0.0,0.0,0.0,0.0,0.0,0.0,0.0,0.0,0.0,0.0,0.0,0.0,0.0,0.0,0.0,0.0,0.0,0.0,-3.8291,-3.9195,-3.9094,-3.8994,0.0,0.0,0.0,0.0,0.0,0.0,0.0,0.0,0.0,0.0,0.0,0.0,0.0,0.0,0.0,0.0,0.0,0.0,0.0,0.0,0.0,0.0,0.0,0.0,0.0,0.0,0.0,0.0,0.0,0.0,0.0,0.0,0.0,0.0,0.0,0.0,0.0,0.0,0.0,0.0,0.0,0.0,0.0,0.0,0.0,0.0,0.0,0.0,0.0,0.0,0.0,0.0,0.0,0.0,0.0,0.0,0.0,0.0,0.0,0.0,0.0,0.0,0.0,0.0,0.0,0.0,0.0,0.0,0.0,0.0,0.0,0.0,0.0,0.0,0.0,0.0,0.0,0.0,0.0,0.0,0.0,0.0,0.0,0.0,0.0,0.0,0.0,0.0,0.0,0.0,0.0,0.0,0.0,0.0,0.0,0.0,0.0,0.0,0.0,0.0,0.0,0.0,0.0,0.0,0.0,0.0,0.0,0.0,0.0,0.0,-3.799,-3.8994,-3.9697,-3.9371,-3.8843,-3.8191,0.0,0.0,0.0,0.0,0.0,0.0,0.0,0.0,0.0,0.0,0.0,0.0,0.0,0.0,0.0,0.0,0.0,0.0,0.0,0.0,0.0,0.0,0.0,0.0,0.0,0.0,0.0,0.0,0.0,0.0,0.0,0.0,0.0,0.0,0.0,0.0,0.0,0.0,0.0,0.0,0.0,0.0,0.0,0.0,0.0,0.0,0.0,0.0,0.0,0.0,0.0,0.0,0.0,0.0,0.0,0.0,0.0,0.0,0.0,0.0,0.0,0.0,0.0,0.0,0.0,0.0,0.0,0.0,0.0,0.0,0.0,0.0,0.0,0.0,0.0,0.0,0.0,0.0,0.0,0.0,0.0,0.0,0.0,0.0,0.0,0.0,0.0,0.0,0.0,0.0,0.0,0.0,0.0,0.0,0.0,0.0,0.0,0.0,0.0,0.0,0.0,0.0,0.0,0.0,0.0,0.0,0.0,0.0,-4.1354,-3.9295,-3.932,-4.1882,-4.1957,-4.0249,0.0,0.0,0.0,0.0,0.0,0.0,0.0,0.0,0.0,0.0,0.0,0.0,0.0,0.0,0.0,0.0,0.0,0.0,0.0,0.0,0.0,0.0,0.0,0.0,0.0,0.0,0.0,0.0,0.0,0.0,0.0,0.0,0.0,0.0,0.0,0.0,0.0,0.0,0.0,0.0,0.0,0.0,0.0,0.0,0.0,0.0,0.0,0.0,0.0,0.0,0.0,0.0,0.0,0.0,0.0,0.0,0.0,0.0,0.0,0.0,0.0,0.0,0.0,0.0,0.0,0.0,0.0,0.0,0.0,0.0,0.0,0.0,0.0,0.0,0.0,0.0,0.0,0.0,0.0,0.0,0.0,0.0,0.0,0.0,0.0,0.0,0.0,0.0,0.0,0.0,0.0,0.0,0.0,0.0,0.0,0.0,0.0,0.0,0.0,0.0,0.0,0.0,0.0,0.0,0.0,0.0,0.0,0.0,0.0,-3.6282,-3.7061,-3.9496,-4.3413,-4.035,-3.8467,0.0,0.0,0.0,0.0,0.0,0.0,0.0,0.0,0.0,0.0,0.0,0.0,0.0,0.0,0.0,0.0,0.0,0.0,0.0,0.0,0.0,0.0,0.0,0.0,0.0,0.0,0.0,0.0,0.0,0.0,0.0,0.0,0.0,0.0,0.0,0.0,0.0,0.0,0.0,0.0,0.0,0.0,0.0,0.0,0.0,0.0,0.0,0.0,0.0,0.0,0.0,0.0,0.0,0.0,0.0,0.0,0.0,0.0,0.0,0.0,0.0,0.0,0.0,0.0,0.0,0.0,0.0,0.0,0.0,0.0,0.0,0.0,0.0,0.0,0.0,0.0,0.0,0.0,0.0,0.0,0.0,0.0,0.0,0.0,0.0,0.0,0.0,0.0,0.0,0.0,0.0,0.0,0.0,0.0,0.0,0.0,0.0,0.0,0.0,0.0,0.0,0.0,0.0,0.0,0.0,0.0,0.0,0.0,0.0,-3.5228,0.0,-4.0626,-4.2986,-3.9697,-3.7513,0.0,0.0,0.0,0.0,0.0,0.0,0.0,0.0,0.0,0.0,0.0,0.0,0.0,0.0,0.0,0.0,0.0,0.0,0.0,0.0,0.0,0.0,0.0,0.0,0.0,0.0,0.0,0.0,0.0,0.0,0.0,0.0,0.0,0.0,0.0,0.0,0.0,0.0,0.0,0.0,0.0,0.0,0.0,0.0,0.0,0.0,0.0,0.0,0.0,0.0,0.0,0.0,0.0,0.0,0.0,0.0,0.0,0.0,0.0,0.0,0.0,0.0,0.0,0.0,0.0,0.0,0.0,0.0,0.0,0.0,0.0,0.0,0.0,0.0,0.0,0.0,0.0,0.0,0.0,0.0,0.0,0.0,0.0,0.0,0.0,0.0,0.0,0.0,0.0,0.0,0.0,0.0,0.0,0.0,0.0,0.0,0.0,0.0,0.0,0.0,0.0,0.0,0.0,0.0,0.0,0.0,0.0,0.0,-3.47,-3.9396,-4.2158,-4.2559,-4.0676,-4.0425,-3.7613,0.0,0.0,0.0,0.0,0.0,0.0,0.0,0.0,0.0,0.0,0.0,0.0,0.0,0.0,0.0,0.0,0.0,0.0,0.0,0.0,0.0,0.0,0.0,0.0,0.0,0.0,0.0,0.0,0.0,0.0,0.0,0.0,0.0,0.0,0.0,0.0,0.0,0.0,0.0,0.0,0.0,0.0,0.0,0.0,0.0,0.0,0.0,0.0,0.0,0.0,0.0,0.0,0.0,0.0,0.0,0.0,0.0,0.0,0.0,0.0,0.0,0.0,0.0,0.0,0.0,0.0,0.0,0.0,0.0,0.0,0.0,0.0,0.0,0.0,0.0,0.0,0.0,0.0,0.0,0.0,0.0,0.0,0.0,0.0,0.0,0.0,0.0,0.0,0.0,0.0,0.0,0.0,0.0,0.0,0.0,0.0,0.0,0.0,0.0,0.0,0.0,0.0,0.0,0.0,0.0,0.0,0.0,0.0,0.0,-3.7437,-4.0099,-4.2133,-4.3162,-3.9622,-3.7663,0.0,0.0,0.0,0.0,0.0,0.0,0.0,0.0,0.0,0.0,0.0,0.0,0.0,0.0,0.0,0.0,0.0,0.0,0.0,0.0,0.0,0.0,0.0,0.0,0.0,0.0,0.0,0.0,0.0,0.0,0.0,0.0,0.0,0.0,0.0,0.0,0.0,0.0,0.0,0.0,0.0,0.0,0.0,0.0,0.0,0.0,0.0,0.0,0.0,0.0,0.0,0.0,0.0,0.0,0.0,0.0,0.0,0.0,0.0,0.0,0.0,0.0,0.0,0.0,0.0,0.0,0.0,0.0,0.0,0.0,0.0,0.0,0.0,0.0,0.0,0.0,0.0,0.0,0.0,0.0,0.0,0.0,0.0,0.0,0.0,0.0,0.0,0.0,0.0,0.0,0.0,0.0,0.0,0.0,0.0,0.0,0.0,0.0,0.0,0.0,0.0,0.0,0.0,0.0,0.0,0.0,0.0,0.0,0.0,-3.9898,-4.2258,-4.3915,-4.4593,-4.0852,-3.8843,-3.8868,0.0,0.0,0.0,0.0,0.0,0.0,0.0,0.0,0.0,0.0,0.0,0.0,0.0,0.0,0.0,0.0,0.0,0.0,0.0,0.0,0.0,0.0,0.0,0.0,0.0,0.0,0.0,0.0,0.0,0.0,0.0,0.0,0.0,0.0,0.0,0.0,0.0,0.0,0.0,0.0,0.0,0.0,0.0,0.0,0.0,0.0,0.0,0.0,0.0,0.0,0.0,0.0,0.0,0.0,0.0,0.0,0.0,0.0,0.0,0.0,0.0,0.0,0.0,0.0,0.0,0.0,0.0,0.0,0.0,0.0,0.0,0.0,0.0,0.0,0.0,0.0,0.0,0.0,0.0,0.0,0.0,0.0,0.0,0.0,0.0,0.0,0.0,0.0,0.0,0.0,0.0,0.0,0.0,0.0,0.0,0.0,0.0,0.0,0.0,0.0,0.0,0.0,0.0,0.0,0.0,0.0,0.0,0.0,-4.5547,-4.7857,-4.7782,-4.5196,-4.3765,-4.1078,0.0,0.0,0.0,0.0,0.0,0.0,0.0,0.0,0.0,0.0,0.0,0.0,0.0,0.0,0.0,0.0,0.0,0.0,0.0,0.0,0.0,0.0,0.0,0.0,0.0,0.0,0.0,0.0,0.0,0.0,0.0,0.0,0.0,0.0,0.0,0.0,0.0,0.0,0.0,0.0,0.0,0.0,0.0,0.0,0.0,0.0,0.0,0.0,0.0,0.0,0.0,0.0,0.0,0.0,0.0,0.0,0.0,0.0,0.0,0.0,0.0,0.0,0.0,0.0,0.0,0.0,0.0,0.0,0.0,0.0,0.0,0.0,0.0,0.0,0.0,0.0,0.0,0.0,0.0,0.0,0.0,0.0,0.0,0.0,0.0,0.0,0.0,0.0,0.0,0.0,0.0,0.0,0.0,0.0,0.0,0.0,0.0,0.0,0.0,0.0,0.0,0.0,0.0,0.0,0.0,0.0,0.0,0.0,0.0,-4.6778,-5.0444,-5.1699,-5.0117,-4.6276,-4.3463,0.0,0.0,0.0,0.0,0.0,0.0,0.0,0.0,0.0,0.0,0.0,0.0,0.0,0.0,0.0,0.0,0.0,0.0,0.0,0.0,0.0,0.0,0.0,0.0,0.0,0.0,0.0,0.0,0.0,0.0,0.0,0.0,0.0,0.0,0.0,0.0,0.0,0.0,0.0,0.0,0.0,0.0,0.0,0.0,0.0,0.0,0.0,0.0,0.0,0.0,0.0,0.0,0.0,0.0,0.0,0.0,0.0,0.0,0.0,0.0,0.0,0.0,0.0,0.0,0.0,0.0,0.0,0.0,0.0,0.0,0.0,0.0,0.0,0.0,0.0,0.0,0.0,0.0,0.0,0.0,0.0,0.0,0.0,0.0,0.0,0.0,0.0,0.0,0.0,0.0,0.0,0.0,0.0,0.0,0.0,0.0,0.0,0.0,0.0,0.0,0.0,0.0,0.0,0.0,0.0,0.0,0.0,0.0,-4.728,-4.954,-5.2754,-5.411,-5.3482,-4.9565,-4.615,0.0,0.0,0.0,0.0,0.0,0.0,0.0,0.0,0.0,0.0,0.0,0.0,0.0,0.0,0.0,0.0,0.0,0.0,0.0,0.0,0.0,0.0,0.0,0.0,0.0,0.0,0.0,0.0,0.0,0.0,0.0,0.0,0.0,0.0,0.0,0.0,0.0,0.0,0.0,0.0,0.0,0.0,0.0,0.0,0.0,0.0,0.0,0.0,0.0,0.0,0.0,0.0,0.0,0.0,0.0,0.0,0.0,0.0,0.0,0.0,0.0,0.0,0.0,0.0,0.0,0.0,0.0,0.0,0.0,0.0,0.0,0.0,0.0,0.0,0.0,0.0,0.0,0.0,0.0,0.0,0.0,0.0,0.0,0.0,0.0,0.0,0.0,0.0,0.0,0.0,0.0,0.0,0.0,0.0,0.0,0.0,0.0,0.0,0.0,0.0,0.0,0.0,0.0,0.0,0.0,0.0,0.0,0.0,-4.9213,-5.2754,-5.4561,-5.544,-5.5315,-5.2653,-4.8736,0.0,0.0,0.0,0.0,0.0,0.0,0.0,0.0,0.0,0.0,0.0,0.0,0.0,0.0,0.0,0.0,0.0,0.0,0.0,0.0,0.0,0.0,0.0,0.0,0.0,0.0,0.0,0.0,0.0,0.0,0.0,0.0,0.0,0.0,0.0,0.0,0.0,0.0,0.0,0.0,0.0,0.0,0.0,0.0,0.0,0.0,0.0,0.0,0.0,0.0,0.0,0.0,0.0,0.0,0.0,0.0,0.0,0.0,0.0,0.0,0.0,0.0,0.0,0.0,0.0,0.0,0.0,0.0,0.0,0.0,0.0,0.0,0.0,0.0,0.0,0.0,0.0,0.0,0.0,0.0,0.0,0.0,0.0,0.0,0.0,0.0,0.0,0.0,0.0,0.0,0.0,0.0,0.0,0.0,0.0,0.0,0.0,0.0,0.0,0.0,0.0,0.0,0.0,0.0,0.0,0.0,0.0,0.0,-5.0544,-5.2251,-5.4737,-5.5842,-5.539,-5.2277,-4.9038,0.0,0.0,0.0,0.0,0.0,0.0,0.0,0.0,0.0,0.0,0.0,0.0,0.0,0.0,0.0,0.0,0.0,0.0,0.0,0.0,0.0,0.0,0.0,0.0,0.0,0.0,0.0,0.0,0.0,0.0,0.0,0.0,0.0,0.0,0.0,0.0,0.0,0.0,0.0,0.0,0.0,0.0,0.0,0.0,0.0,0.0,0.0,0.0,-3.7588,0.0,0.0,0.0,0.0,0.0,0.0,0.0,0.0,0.0,0.0,0.0,0.0,0.0,0.0,0.0,0.0,0.0,0.0,0.0,0.0,0.0,0.0,0.0,0.0,0.0,0.0,0.0,0.0,0.0,0.0,0.0,0.0,0.0,0.0,0.0,0.0,0.0,0.0,0.0,0.0,0.0,0.0,0.0,0.0,0.0,0.0,0.0,0.0,0.0,0.0,0.0,0.0,0.0,0.0,0.0,0.0,0.0,0.0,0.0,-5.2,-5.3607,-5.5315,-5.6068,-5.5691,-5.3281,-5.0428,0.0,0.0,0.0,0.0,0.0,0.0,0.0,0.0,0.0,0.0,0.0,0.0,0.0,0.0,0.0,0.0,0.0,0.0,0.0,0.0,0.0,0.0,0.0,0.0,0.0,0.0,0.0,0.0,0.0,0.0,0.0,0.0,0.0,0.0,0.0,0.0,0.0,0.0,0.0,0.0,0.0,0.0,0.0,0.0,0.0,0.0,0.0,0.0,0.0,0.0,0.0,0.0,0.0,0.0,0.0,0.0,0.0,0.0,0.0,0.0,0.0,0.0,0.0,0.0,0.0,0.0,0.0,0.0,0.0,0.0,0.0,0.0,0.0,0.0,0.0,0.0,0.0,0.0,0.0,0.0,0.0,0.0,0.0,0.0,0.0,0.0,0.0,0.0,0.0,0.0,0.0,0.0,0.0,0.0,0.0,0.0,0.0,0.0,0.0,0.0,0.0,0.0,0.0,0.0,0.0,0.0,0.0,-5.0098,-5.313,-5.5415,-5.6043,-5.6269,-5.6068,-5.4612,-5.2246,-4.8784,0.0,0.0,0.0,0.0,0.0,0.0,0.0,0.0,0.0,0.0,0.0,0.0,0.0,0.0,0.0,0.0,0.0,0.0,0.0,0.0,0.0,0.0,0.0,0.0,0.0,0.0,0.0,0.0,0.0,0.0,0.0,0.0,0.0,0.0,0.0,0.0,0.0,0.0,-3.9826,-4.1693,0.0,0.0,0.0,0.0,0.0,0.0,0.0,0.0,-4.074,0.0,0.0,0.0,0.0,0.0,0.0,0.0,0.0,0.0,0.0,0.0,0.0,0.0,0.0,0.0,0.0,0.0,0.0,0.0,0.0,0.0,0.0,0.0,0.0,0.0,0.0,0.0,0.0,0.0,0.0,0.0,0.0,0.0,0.0,0.0,0.0,0.0,0.0,0.0,0.0,0.0,0.0,0.0,0.0,0.0,0.0,0.0,0.0,0.0,0.0,0.0,0.0,0.0,0.0,0.0,0.0,-5.017,-5.1036,-5.2929,-5.5993,-5.662,-5.6445,-5.5541,-5.4813,-5.3207,-5.0416,0.0,0.0,0.0,0.0,0.0,0.0,0.0,0.0,0.0,0.0,0.0,0.0,0.0,0.0,0.0,0.0,0.0,0.0,0.0,0.0,0.0,0.0,0.0,0.0,0.0,0.0,0.0,0.0,0.0,0.0,0.0,0.0,0.0,0.0,0.0,0.0,0.0,0.0,0.0,-4.6837,-4.7481,0.0,0.0,0.0,0.0,0.0,0.0,0.0,0.0,-4.2061,0.0,0.0,0.0,0.0,0.0,0.0,0.0,0.0,0.0,0.0,0.0,0.0,0.0,0.0,0.0,0.0,0.0,0.0,0.0,0.0,0.0,0.0,0.0,0.0,0.0,0.0,0.0,0.0,0.0,0.0,0.0,0.0,0.0,0.0,0.0,0.0,0.0,0.0,0.0,0.0,0.0,0.0,0.0,0.0,0.0,0.0,0.0,0.0,0.0,0.0,0.0,0.0,0.0,0.0,0.0,-4.9381,-5.2129,-5.431,-5.6143,-5.6746,-5.652,-5.539,-5.3457,-5.1458,0.0,0.0,0.0,0.0,0.0,0.0,0.0,0.0,0.0,0.0,0.0,0.0,0.0,0.0,0.0,0.0,0.0,0.0,0.0,0.0,0.0,0.0,0.0,0.0,0.0,0.0,0.0,0.0,0.0,0.0,0.0,0.0,0.0,0.0,0.0,0.0,0.0,0.0,0.0,0.0,-4.8963,-4.9437,-4.843,0.0,0.0,0.0,0.0,0.0,0.0,-4.4942,-4.4388,0.0,0.0,0.0,0.0,0.0,0.0,0.0,0.0,0.0,0.0,0.0,0.0,0.0,0.0,0.0,0.0,0.0,0.0,0.0,0.0,0.0,0.0,0.0,0.0,0.0,0.0,0.0,0.0,0.0,0.0,0.0,0.0,0.0,0.0,0.0,0.0,0.0,0.0,0.0,0.0,0.0,0.0,0.0,0.0,0.0,0.0,0.0,0.0,0.0,0.0,0.0,0.0,0.0,0.0,0.0,-4.7832,-5.2491,-5.534,-5.6168,-5.6872,-5.657,-5.5239,-5.2528,-5.0054,0.0,0.0,0.0,0.0,0.0,0.0,0.0,0.0,0.0,0.0,0.0,0.0,0.0,0.0,0.0,0.0,0.0,0.0,0.0,0.0,0.0,0.0,0.0,0.0,0.0,0.0,0.0,0.0,0.0,0.0,0.0,0.0,0.0,0.0,0.0,0.0,0.0,0.0,0.0,0.0,0.0,-5.1424,-5.0954,-4.9747,0.0,0.0,0.0,0.0,-4.8219,-4.8462,0.0,0.0,0.0,0.0,0.0,0.0,0.0,0.0,0.0,0.0,0.0,0.0,0.0,0.0,0.0,0.0,0.0,0.0,0.0,0.0,0.0,0.0,0.0,0.0,0.0,0.0,0.0,0.0,0.0,0.0,0.0,0.0,0.0,0.0,0.0,0.0,0.0,0.0,0.0,0.0,0.0,0.0,0.0,0.0,0.0,0.0,0.0,0.0,0.0,0.0,0.0,0.0,0.0,0.0,0.0,0.0,-4.7767,-5.1358,-5.4185,-5.6143,-5.7248,-5.6796,-5.4737,-5.3783,-5.1613,0.0,0.0,0.0,0.0,0.0,0.0,0.0,0.0,0.0,0.0,0.0,0.0,0.0,0.0,0.0,0.0,0.0,0.0,0.0,0.0,0.0,0.0,0.0,0.0,0.0,0.0,0.0,0.0,0.0,0.0,0.0,0.0,0.0,0.0,0.0,0.0,0.0,0.0,0.0,0.0,0.0,-5.5649,-5.4001,-5.406,-5.4238,0.0,0.0,-5.2894,-5.5049,-5.5616,0.0,0.0,0.0,0.0,0.0,0.0,0.0,0.0,0.0,0.0,0.0,0.0,0.0,0.0,0.0,0.0,0.0,0.0,0.0,0.0,0.0,0.0,0.0,0.0,0.0,0.0,0.0,0.0,0.0,0.0,0.0,0.0,0.0,0.0,0.0,0.0,0.0,0.0,0.0,0.0,0.0,0.0,0.0,0.0,0.0,0.0,0.0,0.0,0.0,0.0,0.0,0.0,0.0,0.0,0.0,-4.4432,-4.8415,-5.265,-5.5415,-5.6646,-5.7474,-5.6821,-5.4612,-5.3069,-5.0655,0.0,0.0,0.0,0.0,0.0,0.0,0.0,0.0,0.0,0.0,0.0,0.0,0.0,0.0,0.0,0.0,0.0,0.0,0.0,0.0,0.0,0.0,0.0,0.0,0.0,0.0,0.0,0.0,0.0,0.0,0.0,0.0,0.0,0.0,0.0,0.0,0.0,0.0,0.0,0.0,0.0,0.0,-5.7393,-5.7483,0.0,0.0,0.0,-5.7281,-5.7908,0.0,0.0,0.0,0.0,0.0,0.0,0.0,0.0,0.0,0.0,0.0,0.0,0.0,0.0,0.0,0.0,0.0,0.0,0.0,0.0,0.0,0.0,0.0,0.0,0.0,0.0,0.0,0.0,0.0,0.0,0.0,0.0,0.0,0.0,0.0,0.0,0.0,0.0,0.0,0.0,0.0,0.0,0.0,0.0,0.0,0.0,0.0,0.0,0.0,0.0,0.0,0.0,0.0,0.0,0.0,0.0,0.0,-4.9232,-5.3978,-5.6742,-5.7709,-5.8294,-5.7652,-5.5915,-5.3321,0.0,0.0,0.0,0.0,0.0,0.0,0.0,0.0,0.0,0.0,0.0,0.0,0.0,0.0,0.0,0.0,0.0,0.0,0.0,0.0,0.0,0.0,0.0,0.0,0.0,0.0,0.0,-3.504,0.0,0.0,0.0,0.0,0.0,0.0,0.0,0.0,0.0,0.0,0.0,0.0,0.0,0.0,-5.7004,-5.9937,-6.0326,-6.0505,0.0,0.0,-6.0954,-6.0625,-6.0715,-5.9219,0.0,0.0,0.0,0.0,0.0,0.0,0.0,0.0,0.0,0.0,0.0,0.0,0.0,0.0,0.0,0.0,0.0,0.0,0.0,0.0,0.0,0.0,0.0,0.0,0.0,0.0,0.0,0.0,-2.9779,-2.9754,0.0,0.0,0.0,0.0,0.0,0.0,0.0,0.0,0.0,0.0,0.0,0.0,0.0,0.0,0.0,0.0,0.0,0.0,0.0,0.0,0.0,0.0,0.0,0.0,-4.709,-5.0565,-5.4746,-5.7805,-5.9515,-6.0093,-6.0101,-5.9462,-5.6256,-5.2739,0.0,0.0,0.0,0.0,0.0,0.0,0.0,0.0,0.0,0.0,0.0,0.0,0.0,0.0,0.0,0.0,0.0,0.0,0.0,0.0,0.0,0.0,0.0,0.0,0.0,0.0,0.0,0.0,0.0,0.0,0.0,0.0,0.0,0.0,0.0,0.0,0.0,0.0,0.0,0.0,0.0,-5.868,-6.0745,-6.254,-6.4336,0.0,-6.4904,-6.3917,-6.4545,-6.5114,-6.3169,-5.6196,0.0,0.0,0.0,0.0,0.0,0.0,0.0,0.0,0.0,0.0,0.0,0.0,0.0,0.0,0.0,0.0,0.0,0.0,0.0,0.0,0.0,0.0,0.0,0.0,0.0,-2.9479,-2.9779,0.0,-2.9428,0.0,0.0,0.0,0.0,0.0,0.0,0.0,0.0,0.0,0.0,0.0,0.0,0.0,0.0,0.0,0.0,0.0,0.0,0.0,0.0,0.0,0.0,0.0,0.0,-4.9694,-5.2956,-5.7946,-6.0897,-6.1949,-6.2193,-6.1576,-5.9855,-5.8411,-5.5271,0.0,0.0,0.0,0.0,0.0,0.0,0.0,0.0,0.0,0.0,0.0,0.0,0.0,0.0,0.0,0.0,0.0,0.0,0.0,0.0,0.0,0.0,0.0,0.0,0.0,0.0,0.0,0.0,-4.1743,-4.2462,-4.2581,0.0,0.0,0.0,0.0,0.0,0.0,0.0,0.0,0.0,0.0,-6.1134,-6.4276,-6.5353,0.0,0.0,-6.667,-6.637,-6.6251,-6.5084,-6.269,-5.8321,-5.5927,0.0,0.0,0.0,0.0,0.0,0.0,0.0,0.0,0.0,0.0,0.0,0.0,0.0,0.0,0.0,0.0,0.0,0.0,0.0,0.0,0.0,0.0,0.0,0.0,0.0,0.0,-3.0035,-2.9578,0.0,0.0,0.0,0.0,0.0,0.0,0.0,0.0,0.0,0.0,0.0,0.0,0.0,0.0,0.0,0.0,0.0,0.0,0.0,0.0,0.0,0.0,0.0,0.0,-5.1711,-5.5228,-6.0088,-6.3057,-6.4215,-6.4047,-6.3167,-6.143,-6.0373,-5.7484,-5.2514,0.0,0.0,0.0,0.0,0.0,0.0,0.0,0.0,0.0,0.0,0.0,0.0,0.0,0.0,0.0,0.0,0.0,0.0,0.0,0.0,0.0,0.0,0.0,0.0,0.0,0.0,0.0,-4.3658,-4.3688,-4.2851,0.0,0.0,0.0,0.0,0.0,0.0,0.0,0.0,0.0,0.0,-6.3498,-6.6849,-6.7148,-6.7178,-6.7751,-6.7358,-6.6999,-6.6729,-6.5323,-6.3139,-5.9907,0.0,0.0,0.0,0.0,0.0,0.0,0.0,0.0,0.0,0.0,0.0,0.0,0.0,0.0,0.0,0.0,0.0,0.0,0.0,0.0,0.0,0.0,0.0,0.0,0.0,0.0,0.0,-3.0649,0.0,0.0,-2.9829,0.0,0.0,0.0,0.0,0.0,0.0,0.0,0.0,0.0,0.0,0.0,0.0,0.0,0.0,0.0,0.0,0.0,0.0,0.0,0.0,0.0,0.0,-5.2766,-5.7137,-6.07,-6.36,-6.5992,-6.5446,-6.5036,-6.4725,-6.2169,-5.936,-5.6093,0.0,0.0,0.0,0.0,0.0,0.0,0.0,0.0,0.0,0.0,0.0,0.0,0.0,0.0,0.0,0.0,0.0,0.0,0.0,0.0,0.0,0.0,0.0,0.0,0.0,0.0,-4.2372,-4.3,-4.294,0.0,0.0,0.0,0.0,0.0,0.0,0.0,0.0,0.0,-5.9428,-6.2869,-6.5712,-6.7931,-6.7601,-6.7627,-6.9286,-6.7091,-6.5383,-6.6071,-6.649,-6.5353,0.0,0.0,0.0,0.0,0.0,0.0,0.0,0.0,0.0,0.0,0.0,0.0,0.0,0.0,0.0,0.0,0.0,0.0,0.0,0.0,0.0,0.0,0.0,0.0,0.0,0.0,0.0,-3.5993,-3.4963,0.0,0.0,0.0,0.0,0.0,0.0,0.0,0.0,0.0,0.0,0.0,-4.4533,-4.7159,0.0,0.0,0.0,0.0,0.0,0.0,0.0,0.0,0.0,0.0,0.0,0.0,-5.5217,-5.9758,-6.3924,-6.6774,-6.7964,-6.7343,-6.6559,-6.5712,-6.3862,-6.0803,-5.6316,0.0,0.0,0.0,0.0,0.0,0.0,0.0,0.0,0.0,0.0,0.0,0.0,0.0,0.0,0.0,0.0,0.0,0.0,0.0,0.0,0.0,0.0,0.0,0.0,0.0,-4.294,0.0,0.0,0.0,0.0,0.0,0.0,0.0,0.0,0.0,0.0,-5.5029,-5.8979,-6.2241,-6.5173,-6.7328,-6.819,-6.9093,-6.9355,0.0,0.0,-6.8854,0.0,0.0,0.0,0.0,0.0,0.0,0.0,0.0,0.0,0.0,-7.0672,-7.0649,-6.2288,-6.1233,-6.1668,-6.1769,0.0,0.0,0.0,0.0,0.0,0.0,0.0,0.0,0.0,0.0,0.0,0.0,0.0,0.0,-4.0383,-3.9373,-3.849,-3.6508,0.0,0.0,0.0,0.0,0.0,0.0,0.0,-4.7743,-4.9307,-4.8937,-5.1277,-5.1099,-4.8737,-4.9955,-4.8136,0.0,0.0,0.0,0.0,0.0,0.0,0.0,0.0,-5.6944,-6.1732,-6.5652,-6.7956,-6.8585,-6.7986,-6.7119,-6.6011,-6.4485,-6.1762,-5.7663,-5.502,-5.2174,0.0,0.0,0.0,0.0,0.0,0.0,0.0,0.0,0.0,0.0,0.0,0.0,0.0,0.0,0.0,0.0,0.0,0.0,0.0,0.0,0.0,0.0,0.0,-4.4107,0.0,0.0,0.0,0.0,0.0,0.0,0.0,0.0,0.0,-5.5927,-5.9548,-6.3199,-6.6041,-6.7717,-6.8638,-6.8593,0.0,0.0,0.0,0.0,0.0,0.0,0.0,-6.7537,-6.8794,-6.8755,-6.8971,-7.0554,-7.4214,-7.6485,-7.5692,0.0,0.0,-6.9458,-6.8757,-6.9733,-7.0352,-7.299,-7.5204,-7.497,-7.7042,-7.8049,0.0,0.0,0.0,0.0,-4.261,0.0,0.0,0.0,-4.4505,-4.4602,0.0,-4.3359,0.0,0.0,0.0,0.0,-4.1934,-4.6436,0.0,0.0,-5.2775,-5.4401,-5.3808,-5.4618,-5.4365,-5.3268,-5.5956,-5.5666,-5.2361,-4.7712,-4.4962,0.0,0.0,0.0,0.0,0.0,-5.7932,-6.3019,-6.5682,-6.7328,-6.7926,-6.7358,-6.667,-6.6011,-6.4216,-6.2301,-6.0356,-5.8926,-5.6426,-5.2665,-4.9885,0.0,0.0,0.0,0.0,0.0,0.0,0.0,0.0,0.0,0.0,0.0,0.0,0.0,0.0,0.0,0.0,0.0,0.0,0.0,0.0,-4.4945,0.0,0.0,0.0,0.0,0.0,0.0,0.0,0.0,0.0,-6.269,-6.1642,-6.4186,-6.7328,-7.0539,0.0,0.0,0.0,0.0,-7.0658,-7.4457,-7.1825,-6.9706,-7.0277,-7.1869,-7.2649,-7.1538,0.0,-7.8372,-7.8387,-8.1646,-8.332,-8.0996,-8.261,-8.3546,-8.1057,-8.056,-8.1326,-8.2692,-8.3087,-8.3824,-8.464,-8.5311,-8.6189,-5.1498,0.0,0.0,0.0,0.0,-4.8736,-5.0078,-5.2354,-5.1478,-5.0318,-4.9085,-4.7715,0.0,0.0,0.0,0.0,0.0,0.0,-5.2029,-5.314,-5.6505,-5.7354,-5.6239,-5.9519,-5.9948,-5.8026,-6.0073,-6.0837,-6.0242,-5.7826,-5.3489,-4.7339,0.0,0.0,0.0,0.0,-6.0595,-6.4306,-6.6131,-6.7298,-6.7956,-6.7328,-6.67,-6.6011,-6.5473,-6.4695,-6.3647,-6.234,-6.0492,-5.7932,-5.4404,0.0,0.0,0.0,0.0,0.0,0.0,0.0,0.0,0.0,0.0,0.0,0.0,0.0,0.0,0.0,0.0,0.0,0.0,0.0,-4.4825,-4.5633,-4.689,0.0,0.0,0.0,0.0,0.0,0.0,0.0,0.0,0.0,-6.8525,-6.9183,-7.032,0.0,0.0,-7.0397,-6.7939,-7.0924,-7.4625,-7.7855,-7.7453,-7.6864,-7.7053,-7.6707,-7.7113,-7.8565,-8.084,-8.278,-8.3706,-8.4925,-8.5341,-8.4604,-8.6074,-8.7385,-8.7171,-8.5972,-8.5347,-8.5762,-8.7042,-8.8328,-8.8632,-8.9376,-9.0019,-5.7424,-5.4084,-5.2779,-5.2929,-5.4009,-5.3557,-5.4696,-5.6765,-5.5796,-5.5007,-5.4132,-5.2665,-5.0393,-4.7604,-4.7172,0.0,0.0,0.0,-5.5415,-5.6915,-5.8929,-5.9801,-5.9739,-6.2351,-6.2887,-6.1507,-6.3276,-6.4141,-6.4208,-6.4114,-6.076,-5.4371,0.0,-5.5329,-5.6196,-5.9279,-6.251,-6.5682,-6.658,-6.7178,-6.7567,-6.7208,-6.6789,-6.64,-6.6161,-6.5832,-6.5413,-6.4128,-6.2784,-6.1313,-5.8018,-5.4377,0.0,0.0,0.0,0.0,0.0,0.0,0.0,0.0,0.0,0.0,0.0,-4.2013,-3.8571,0.0,0.0,0.0,-4.4586,-4.689,-4.9374,-5.0451,0.0,0.0,0.0,0.0,0.0,0.0,0.0,-6.667,-6.9692,-7.2195,-7.3898,-7.4507,-7.493,-7.4873,-7.4498,-7.3602,-7.1627,0.0,-7.7706,-8.0625,-8.0674,-8.0406,-8.0694,-8.0367,-8.0996,-8.3746,-8.5425,-8.6878,-8.8388,-8.8939,-8.9136,-8.9294,-8.9949,-9.0914,-9.1314,-9.0314,-8.9546,-8.9813,-9.1027,-9.1981,-9.1981,-9.2353,-9.2658,-6.1768,-6.104,-5.8001,-5.6972,-5.7399,-5.7926,-5.8126,-5.8213,-5.8202,-5.8426,-5.8694,-5.765,-5.6244,-5.4703,-5.4015,0.0,-5.5304,-5.7059,-5.8763,-6.0296,-6.0933,-6.2137,-6.3639,-6.4104,-6.4049,-6.3999,-6.5822,-6.633,-6.5882,-6.7323,-6.658,-6.3617,-6.1134,-6.0685,-6.2181,-6.2391,-6.4006,-6.6999,-6.7029,-6.6999,-6.6999,-6.6999,-6.6969,-6.6909,-6.634,-6.5981,-6.5922,-6.4755,-6.3713,-6.3169,-6.0642,-5.7525,-5.3704,0.0,0.0,0.0,0.0,0.0,0.0,0.0,0.0,0.0,0.0,0.0,0.0,0.0,0.0,-4.8027,-5.0391,0.0,-5.6137,-5.7633,0.0,0.0,0.0,-5.7815,-6.2694,-6.5169,-6.7397,-6.949,0.0,0.0,-7.7797,-7.9762,-8.042,-7.8151,-7.805,-7.8194,-7.8698,-7.8955,-8.0159,-8.2998,-8.2353,-8.1736,-8.2684,-8.3208,-8.4673,-8.7436,-8.9165,-9.0449,-9.1985,-9.2879,-9.3503,-9.3352,-9.3571,-9.3537,-9.3571,-9.3284,-9.3808,-9.4365,-9.462,-9.462,-9.4518,-9.4586,-9.4569,-6.2571,-6.237,-6.1592,-6.0839,-6.0211,-6.0337,-6.0468,-6.0498,-6.0493,-6.0255,-5.984,-5.8802,-5.7399,-5.5817,-5.6125,-5.7241,-5.9315,-6.0158,-6.1763,-6.4013,-6.5584,-6.5753,-6.4941,-6.7824,-6.8392,-6.7215,-6.8913,-6.9673,-6.9625,-6.9594,-6.9123,-6.8315,-6.7208,-6.5622,-6.3677,-6.5054,-6.646,-6.7717,-6.7238,-6.6999,-6.6999,-6.6999,-6.6759,-6.6251,-6.6101,-6.5772,-6.5263,-6.4487,-6.3892,-6.3737,-6.1313,-5.8931,-5.7004,-5.1289,0.0,0.0,0.0,0.0,0.0,0.0,0.0,0.0,0.0,-5.1109,-4.3718,0.0,-5.4192,0.0,-5.6615,-5.868,-5.8441,-6.0057,0.0,0.0,-6.344,-6.4288,-7.1745,-7.3533,-7.4679,-7.5962,-7.7965,-7.9682,-8.0745,-8.2483,-8.3388,-8.2715,-8.1214,-8.1187,-8.3659,-8.3499,-8.3812,-8.5938,-8.6206,-8.6373,-8.6526,-8.7677,-8.9015,-9.0993,-9.1564,-9.2205,-9.3199,-9.3436,-9.3571,-9.3571,-9.3571,-9.3571,-9.3605,-9.3571,-9.4112,-9.5161,-9.5093,-9.4721,-9.4721,-9.5161,-9.5756,-6.3048,-6.2822,-6.2822,-6.2471,-6.1918,-6.1918,-6.1918,-6.1893,-6.1667,-6.1382,-6.0986,-5.9904,-5.893,-5.8077,-5.8102,-5.928,-6.1436,-6.1753,-6.3479,-6.6538,-6.755,-6.794,-6.7781,-6.9913,-7.0337,-6.9353,-7.0367,-7.0919,-7.0889,-7.056,-7.038,-7.038,-7.0021,-6.8914,-6.7178,-6.7627,-6.8076,-6.8405,-6.7478,-6.6999,-6.6969,-6.67,-6.6251,-6.5592,-6.5562,-6.5114,-6.4186,-6.3473,-6.2877,-6.2241,-6.0295,-5.87,-5.7633,-5.3683,-5.1079,0.0,0.0,0.0,0.0,0.0,0.0,0.0,0.0,0.0,0.0,0.0,-5.8351,-5.8291,-6.1343,-6.3588,-6.4276,-6.6161,-6.8734,-7.2116,-7.0545,-7.1096,-7.5777,-7.7192,-7.8141,-7.9109,-8.0595,-8.2045,-8.3778,-8.5149,-8.6078,-8.6378,-8.5053,-8.459,-8.6018,-8.5896,-8.6051,-8.7473,-8.7854,-8.826,-8.8835,-8.9951,-9.1102,-9.215,-9.2725,-9.3098,-9.3503,-9.3571,-9.3571,-9.3605,-9.3842,-9.4079,-9.4079,-9.4383,-9.489,-9.5499,-9.5736,-9.5669,-9.5702,-9.6007,-9.6623,-6.34,-6.2923,-6.2873,-6.2822,-6.2822,-6.2822,-6.2822,-6.2797,-6.232,-6.2083,-6.1883,-6.0931,-6.0512,-6.0387,-6.0145,-6.1067,-6.2789,-6.3058,-6.5182,-6.8441,-6.8589,-6.9388,-7.0919,-7.0919,-7.0919,-7.0919,-7.0919,-7.0919,-7.0919,-7.0919,-7.0919,-7.0919,-7.0919,-7.0919,-7.0859,-6.9782,-6.9153,-6.9004,-6.7747,-6.7119,-6.7119,-6.64,-6.5682,-6.5054,-6.4874,-6.4186,-6.2869,-6.2385,-6.1575,-6.0386,-5.9272,-5.8475,-5.7842,-5.6496,-5.5359,0.0,-5.3414,0.0,0.0,0.0,0.0,0.0,0.0,0.0,0.0,-6.1313,-6.263,-6.2959,-6.5592,-6.8375,-7.1038,-7.3073,-7.4988,-7.6694,-7.6933,-7.6963,-7.7083,-7.8347,-7.9694,-8.0813,-8.2967,-8.4976,-8.6567,-8.7606,-8.8395,-8.8689,-8.8318,-8.7632,-8.7347,-8.7135,-8.7405,-8.8091,-8.8226,-8.8869,-9.0053,-9.0932,-9.1711,-9.2455,-9.3098,-9.3571,-9.3571,-9.3571,-9.3571,-9.3639,-9.4045,-9.4518,-9.4654,-9.5195,-9.5635,-9.5905,-9.6413,-9.6751,-9.6785,-9.725,-9.7525,-6.3626,-6.35,-6.3023,-6.2822,-6.2822,-6.2822,-6.2822,-6.2822,-6.2722,-6.2471,-6.1933,-6.1793,-6.1441,-6.1123,-6.2045,-6.3522,-6.5554,-6.7129,-6.8709,-7.0367,-7.0974,-7.1106,-7.0919,-7.0919,-7.0919,-7.0919,-7.0919,-7.0919,-7.0919,-7.0919,-7.0919,-7.0919,-7.0919,-7.0919,-7.0889,0.0,0.0,0.0,-6.8196,-6.7777,-6.7747,-6.661,-6.5712,-6.5024,-6.4006,0.0,-6.1583,-6.1882,-6.1972,-6.1732,-6.2025,0.0,-6.1912,0.0,0.0,0.0,0.0,0.0,-5.6346,0.0,0.0,0.0,-6.3737,-6.2989,-6.1822,-6.661,-6.9243,-6.7956,-7.1547,-7.3821,-7.3402,-7.5108,-7.6634,-7.7472,-7.739,-7.7569,-7.834,-8.0291,-8.2005,-8.319,-8.4911,-8.6633,-8.8324,-8.8791,-8.8937,-8.914,-8.897,-8.8835,-8.87,-8.8666,-8.8734,-8.8903,-8.9376,-9.0053,-9.0932,-9.1711,-9.2387,-9.3165,-9.3436,-9.3571,-9.3571,-9.3571,-9.3571,-9.3571,-9.3706,-9.4045,-9.462,-9.4823,-9.5398,-9.6447,-9.6785,-9.6886,-9.6886,-9.8308,-9.9823,-6.4178,-6.3676,-6.3375,-6.3099,0.0,-6.2822,-6.2822,-6.2822,-6.2822,-6.2672,-6.2395,-6.2119,-6.1843,-6.1702,-6.3077,-6.4707,-6.6567,-6.8626,-7.0478,-7.1906,-7.2209,-7.2029,-7.1398,-7.1378,-7.1228,-7.0919,-7.0919,-7.0919,-7.0919,-7.0919,-7.0919,-7.0919,-7.0919,-7.0919,-7.0919,-7.0919,-7.044,-6.9482,-6.8495,-6.7986,-6.7926,-6.667,-6.5682,-6.5024,-6.4066,0.0,0.0,0.0,0.0,0.0,0.0,0.0,0.0,-6.2091,0.0,-6.2899,-6.2989,-6.3139,-6.3468,-6.4695,-6.6281,-6.8256,-6.9333,-6.9064,-6.7059,-7.059,-7.2595,-7.2026,-7.439,-7.5766,-7.5437,-7.6544,-7.7562,-7.819,-7.825,-7.8626,-7.9919,-8.134,-8.2937,-8.4916,-8.5996,-8.7242,-8.9319,-8.9647,-8.9816,-9.0121,-9.0188,-9.0154,-9.0121,-8.985,-8.9748,-9.0121,-9.0459,-9.1,-9.1711,-9.2116,-9.2692,-9.3368,-9.3571,-9.3571,-9.3571,-9.3571,-9.3571,-9.3605,-9.3876,-9.4383,-9.5093,-9.5499,-9.6108,-9.7245,-9.7933,-9.8495,-9.8495,-9.9319,-10.0739,-6.4781,-6.3977,-6.3877,-6.35,-6.2998,-6.2998,-6.2923,-6.2822,-6.2822,0.0,0.0,-6.2345,-6.2144,-6.2281,-6.4088,-6.5721,-6.7321,-6.9677,-7.1571,-7.2894,-7.2992,-7.2721,-7.2056,-7.2109,-7.1838,-7.1278,-7.1248,-7.1248,-7.1248,-7.1248,-7.1188,-7.1098,-7.1068,-7.1009,-7.0919,-7.0919,-7.0649,-7.0111,-6.8944,-6.8345,-6.8286,-6.7029,-6.6101,-6.5562,-6.4784,-6.3797,-6.266,-6.2211,-6.1762,-6.1343,-6.1014,-6.1912,-6.4156,-6.4874,-6.64,-6.8914,-6.9901,-7.038,-7.05,-7.1098,-7.1487,-7.1577,-7.3223,-7.3791,-7.2684,-7.3612,-7.454,-7.5168,-7.6103,-7.6981,-7.7464,-7.8377,-7.9092,-7.9638,-7.9698,-8.0339,-8.1683,-8.2544,-8.4025,-8.6062,-8.6885,-8.7928,-8.9825,-9.029,-9.0594,-9.1135,-9.1169,-9.1372,-9.1372,-9.0865,-9.0594,-9.1068,-9.1305,-9.1711,-9.2252,-9.259,-9.2861,-9.347,-9.3571,-9.3571,-9.3571,-9.3571,-9.3571,-9.3571,-9.4214,-9.4924,-9.5635,-9.6277,-9.7211,-9.8167,-9.9279,-10.0292,-10.0739,-10.0815,-10.1681,-6.5208,-6.5032,-6.4555,-6.4053,-6.3576,-6.3576,-6.3299,-6.2847,-6.2822,-6.2822,-6.2822,-6.2747,-6.2722,-6.2834,-6.6002,-6.7514,-6.7958,-7.1691,-7.3163,-7.2954,-7.3507,-7.3417,-7.2804,-7.2744,-7.2684,-7.2624,-7.2624,-7.2624,-7.2624,-7.2624,-7.2355,-7.1816,-7.1757,-7.1457,-7.0949,-7.0919,-7.0859,-7.0769,-7.0081,-6.9692,-6.9662,-6.8375,-6.7657,-6.7508,-6.634,-6.5383,-6.4635,-6.5054,-6.5533,-6.6011,-6.7029,-6.8046,-6.8944,-6.9542,-6.9901,-6.9871,-7.0919,-7.1876,-7.2475,-7.3103,-7.3732,-7.43,-7.5138,-7.5527,-7.5377,-7.5497,-7.5886,-7.6485,-7.8354,-7.9872,-7.9995,-8.1596,-8.2829,-8.3055,-8.3218,-8.3348,-8.3608,-8.4916,-8.594,-8.6513,-8.8363,-8.9643,-9.0142,-9.0763,-9.1203,-9.1305,-9.1541,-9.1575,-9.2015,-9.1643,-9.1237,-9.1338,-9.1846,-9.2252,-9.2522,-9.303,-9.3368,-9.3537,-9.3571,-9.3571,-9.3571,-9.3571,-9.3571,-9.3571,-9.4315,-9.506,-9.5702,-9.6379,-9.7627,-9.919,-10.01,-10.0925,-10.2923,-10.3456,-10.3784,-6.5559,-6.5258,-6.5007,-6.4605,-6.4103,-6.3827,-6.355,-6.3439,-6.4171,-6.372,-6.2822,-6.2822,-6.3423,-6.4631,-6.7224,-6.9068,-7.0242,-7.3062,-7.427,-7.4031,-7.4283,-7.4044,-7.3522,-7.3447,-7.3268,-7.2954,-7.2924,-7.2924,-7.2924,-7.2924,-7.2565,-7.1876,-7.1517,-7.1438,-7.1478,-7.1138,-7.0919,-7.0889,-7.029,-6.9991,-6.9961,-6.9034,-6.8525,-6.8525,-6.7567,-6.7119,-6.7178,-6.7119,-6.7537,-6.8585,-6.9213,-6.9991,-7.0979,-7.1637,-7.2026,-7.2116,-7.2954,-7.3642,-7.3971,-7.427,-7.4569,-7.4869,-7.5168,-7.5497,-7.5886,-7.5916,-7.6185,-7.6754,-7.7863,-7.8551,-7.9055,-8.1113,-8.2559,-8.2591,-8.3348,-8.4378,-8.5258,-8.5996,-8.6905,-8.7862,-8.9226,-9.0357,-9.0763,-9.144,-9.2116,-9.2421,-9.2522,-9.2658,-9.2996,-9.2759,-9.2522,-9.2556,-9.2827,-9.303,-9.3064,-9.33,-9.3571,-9.3571,-9.3571,-9.3571,-9.3571,-9.3571,-9.3571,-9.3639,-9.4315,-9.5093,-9.5702,-9.6997,-9.8468,-9.9779,-10.1575,-10.2923,-10.4072,-10.4835,-10.5449,-6.586,-6.5484,-6.5484,-6.5157,-6.4605,-6.3952,-6.3701,-6.3791,-6.4756,-6.4177,-6.2985,-6.3746,-6.5108,-6.6597,-6.8586,-7.0374,-7.1999,-7.3981,-7.4869,-7.4869,-7.4869,-7.4599,-7.418,-7.4057,-7.3895,-7.3402,-7.3343,-7.3343,-7.3373,-7.3343,-7.3013,-7.2325,-7.1667,-7.1588,-7.2129,-7.1558,-7.1368,-7.1338,-7.0889,-7.05,-7.0201,-6.9842,-6.9662,-6.9602,-6.9303,-6.9333,-6.9812,-6.9363,-6.9632,-7.0739,-7.0859,-7.1398,-7.2475,-7.3073,-7.3582,-7.4091,-7.4599,-7.4869,-7.4899,-7.5018,-7.5108,-7.5108,-7.5258,-7.5467,-7.5856,-7.5916,-7.6355,-7.7403,-7.8247,-7.8766,-8.0168,-8.198,-8.3087,-8.3218,-8.4378,-8.5752,-8.6872,-8.7143,-8.7529,-8.8914,-8.9884,-9.0696,-9.1271,-9.2083,-9.2861,-9.3368,-9.3571,-9.3571,-9.3571,-9.3571,-9.3571,-9.3571,-9.3571,-9.3537,-9.3571,-9.3571,-9.3571,-9.3571,-9.3571,-9.3571,-9.3571,-9.3571,-9.3706,-9.3876,-9.4586,-9.5364,-9.606,-9.7824,-9.9442,-10.0634,-10.2414,-10.4203,-10.4835,-10.5538,-10.6401,-6.6086,-6.6036,-6.6011,-6.571,-6.5107,-6.4128,-6.3701,-6.3626,-6.3401,-6.2985,-6.3448,-6.6623,-6.8435,-6.8888,-7.0667,-7.1712,-7.2142,-7.3981,-7.4869,-7.4869,-7.4869,-7.4839,-7.4749,-7.4809,-7.4779,-7.4659,-7.4629,-7.4569,-7.4569,-7.4599,-7.433,-7.3702,-7.3043,-7.2739,-7.2802,-7.2739,-7.2714,-7.2744,-7.2654,-7.2056,-7.0949,-7.1338,-7.1607,-7.1607,-7.2146,-7.2475,-7.2415,-7.2475,-7.2774,-7.3462,-7.3492,-7.3821,-7.448,-7.4629,-7.4719,-7.4779,-7.4869,-7.4869,-7.4929,-7.5467,-7.5796,-7.5856,-7.6275,-7.6335,-7.5916,-7.5886,-7.7167,-7.949,-8.1364,-8.278,-8.5401,-8.6958,-8.7645,-8.7411,-8.806,-8.87,-8.87,-8.8813,-8.8959,-8.9072,-9.029,-9.1237,-9.1474,-9.2522,-9.3402,-9.3537,-9.3571,-9.3571,-9.3571,-9.3571,-9.3571,-9.3571,-9.3571,-9.3571,-9.3571,-9.3571,-9.3571,-9.3571,-9.3571,-9.3571,-9.3571,-9.3605,-9.3774,-9.4349,-9.5263,-9.6128,-9.7031,-9.8509,-10.0454,-10.1787,-10.3321,-10.4706,-10.5787,-10.6291,-10.6596,-6.6112,-6.6112,-6.6112,-6.5986,-6.5634,-6.4605,-6.4153,-6.4219,-6.5817,-6.6468,-6.6933,-7.0667,-7.1133,-6.9038,-7.0988,-7.2456,-7.3672,-7.4564,-7.4869,-7.4869,-7.4869,-7.4869,-7.4869,-7.4869,-7.4869,-7.4869,-7.4869,-7.4869,-7.4809,-7.451,-7.433,-7.436,-7.3432,-7.3073,-7.3447,-7.3073,-7.2939,-7.2968,-7.2939,-7.2624,-7.2206,-7.2355,-7.2505,-7.2535,-7.2774,-7.3133,-7.3462,-7.3492,-7.3791,-7.442,-7.448,-7.4599,-7.4869,-7.4869,-7.5048,-7.5437,-7.5826,-7.6036,-7.6036,-7.6305,-7.6305,-7.5976,-7.6155,-7.6006,-7.5377,-7.5318,-7.6818,-8.0009,-8.0802,-8.1436,-8.3132,-8.5734,-8.7529,-8.7679,-8.8438,-8.9106,-8.9106,-8.9106,-8.9241,-8.9715,-9.0662,-9.1474,-9.1981,-9.2895,-9.3537,-9.3571,-9.3571,-9.3571,-9.3571,-9.3571,-9.3571,-9.3571,-9.3571,-9.3571,-9.3571,-9.3571,-9.3571,-9.3571,-9.3571,-9.3571,-9.3571,-9.3571,-9.3842,-9.4586,-9.601,-9.7235,-9.8043,-9.9883,-10.1752,-10.3123,-10.4485,-10.575,-10.6291,-10.6376,-10.6559,-6.6112,-6.6112,-6.6112,-6.6112,-6.6011,-6.4931,-6.4479,-6.4637,-6.6529,-6.7215,-6.7522,-7.0959,-7.1105,-6.9486,-7.1568,-7.3363,-7.412,-7.4564,-7.4869,-7.4869,-7.4869,-7.4869,-7.4869,-7.4869,-7.4869,-7.4869,-7.4869,-7.4869,-7.4839,-7.442,-7.442,-7.4659,-7.3911,-7.3656,-7.4027,-7.3626,-7.3507,-7.3427,-7.3507,-7.3432,-7.3432,-7.3432,-7.3373,-7.3223,-7.3373,-7.3672,-7.4121,-7.4151,-7.439,-7.4839,-7.4869,-7.4869,-7.4869,-7.5048,-7.5467,-7.6096,-7.6574,-7.6844,-7.6844,-7.6993,-7.6904,-7.6514,-7.6425,-7.6096,-7.5527,-7.5377,-7.6812,-7.929,-8.0138,-8.105,-8.2716,-8.5294,-8.7109,-8.7261,-8.8438,-8.914,-8.9376,-8.9241,-8.9444,-9.0357,-9.0966,-9.1677,-9.2556,-9.3233,-9.3571,-9.3571,-9.3571,-9.3571,-9.3571,-9.3571,-9.3571,-9.3571,-9.3571,-9.3571,-9.3571,-9.3571,-9.3571,-9.3571,-9.3571,-9.3571,-9.3571,-9.3571,-9.3842,-9.4773,-9.681,-9.8304,-9.8904,-10.0691,-10.3159,-10.4485,-10.5663,-10.6291,-10.6376,-10.6376,-10.6376,-6.6112,-6.6112,-6.6112,-6.6112,-6.6036,-6.4957,-6.4479,-6.4454,-6.3792,-6.3311,-6.3907,-6.5844,-6.7368,-6.9187,-7.2911,-7.3812,-7.2599,-7.412,-7.4869,-7.4869,-7.4869,-7.4869,-7.4869,-7.4869,-7.4869,-7.4869,-7.4869,-7.4869,-7.4869,-7.4839,-7.4839,-7.4839,-7.4719,-7.4749,-7.4809,-7.4719,-7.4779,-7.4719,-7.4689,-7.4719,-7.4719,-7.4749,-7.442,-7.3971,-7.445,-7.4719,-7.4809,-7.4809,-7.4839,-7.4869,-7.4869,-7.4869,-7.4958,-7.5527,-7.6185,-7.6724,-7.6844,-7.6874,-7.6993,-7.7442,-7.7682,-7.7734,-7.7532,-7.7322,-7.6624,-7.6485,-7.6971,-7.7636,-8.084,-8.3751,-8.6545,-8.782,-8.8813,-8.8813,-8.8993,-8.9444,-9.0019,-8.9613,-8.9816,-9.0899,-9.1406,-9.2049,-9.33,-9.3537,-9.3571,-9.3571,-9.3571,-9.3571,-9.3571,-9.3571,-9.3571,-9.3571,-9.3571,-9.3571,-9.3571,-9.3571,-9.3571,-9.3571,-9.3571,-9.3571,-9.3571,-9.3673,-9.4079,-9.5009,-9.7322,-9.8844,-9.9617,-10.1431,-10.4117,-10.5538,-10.5961,-10.6376,-10.6376,-10.6376,-10.6376,-6.6112,-6.6112,-6.6112,-6.6112,-6.6036,-6.5308,-6.4982,-6.505,-6.5205,-6.6107,-6.7389,-6.8875,-7.0051,-7.0959,-7.3672,-7.4564,-7.3951,-7.4564,-7.4869,-7.4869,-7.4869,-7.4869,-7.4869,-7.4869,-7.4869,-7.4869,-7.4869,-7.4869,-7.4869,-7.4869,-7.4869,-7.4869,-7.4869,-7.4869,-7.4869,-7.4869,-7.4869,-7.4869,-7.4869,-7.4869,-7.4869,-7.4869,-7.4749,-7.454,-7.4749,-7.4869,-7.4869,-7.4869,-7.4869,-7.4869,-7.4869,-7.5078,-7.5587,-7.6544,-7.7203,-7.7442,-7.7861,-7.81,-7.81,-7.831,-7.831,-7.7898,-7.7718,-7.7562,-7.7023,-7.6814,-7.7441,-7.9475,-8.1538,-8.4235,-8.6734,-8.8361,-8.9106,-8.914,-8.9512,-8.985,-9.0188,-9.0357,-9.0899,-9.1846,-9.2421,-9.303,-9.3334,-9.3571,-9.3571,-9.3571,-9.3571,-9.3571,-9.3571,-9.3571,-9.3571,-9.3571,-9.3571,-9.3571,-9.3571,-9.3571,-9.3571,-9.3571,-9.3571,-9.3571,-9.3571,-9.3673,-9.3977,-9.5074,-9.7356,-9.9844,-10.073,-10.3051,-10.5465,-10.5961,-10.6376,-10.6376,-10.6376,-10.6376,-10.6376,-6.6112,-6.6112,-6.6112,-6.6112,-6.6036,-6.5509,-6.5183,-6.51,-6.56,-6.645,-6.7598,-6.9176,-7.0227,-7.1133,-7.3052,-7.4288,-7.4869,-7.4869,-7.4869,-7.4869,-7.4869,-7.4869,-7.4869,-7.4869,-7.4869,-7.4869,-7.4869,-7.4869,-7.4869,-7.4869,-7.4869,-7.4869,-7.4869,-7.4869,-7.4869,-7.4869,-7.4869,-7.4869,-7.4869,-7.4869,-7.4869,-7.4869,-7.4869,-7.4869,-7.4869,-7.4869,-7.4869,-7.4869,-7.4869,-7.4899,-7.5078,-7.5587,-7.6485,-7.7322,-7.7921,-7.813,-7.8519,-7.8789,-7.8789,-7.8789,-7.8669,-7.8142,-7.8077,-7.7891,-7.7211,-7.7382,-7.8672,-8.0712,-8.2427,-8.4406,-8.6688,-8.8361,-8.9072,-8.914,-8.9545,-9.0087,-9.0493,-9.0763,-9.1338,-9.2218,-9.303,-9.347,-9.3571,-9.3571,-9.3571,-9.3571,-9.3571,-9.3571,-9.3571,-9.3571,-9.3571,-9.3571,-9.3571,-9.3571,-9.3571,-9.3571,-9.3571,-9.3571,-9.3571,-9.3571,-9.3706,-9.3808,-9.4364,-9.5422,-9.7425,-10.0062,-10.2606,-10.4817,-10.5814,-10.6254,-10.6376,-10.6376,-10.6376,-10.6376,-10.6376,-6.6112,-6.6112,-6.6112,-6.6112,-6.6036,-6.5584,-6.5032,-6.4605,-6.4143,-6.4019,-6.4529,-6.5477,-6.7827,-6.9337,-7.1712,-7.3222,-7.4702,-7.4869,-7.4869,-7.4869,-7.4869,-7.4869,-7.4869,-7.4869,-7.4869,-7.4869,-7.4869,-7.4869,-7.4869,-7.4869,-7.4869,-7.4869,-7.4869,-7.4869,-7.4869,-7.4869,-7.4869,-7.4869,-7.4869,-7.4869,-7.4869,-7.4869,-7.4869,-7.4869,-7.4869,-7.4869,-7.4869,-7.4869,-7.4869,-7.4958,-7.5497,-7.6485,-7.7442,-7.7831,-7.813,-7.8609,-7.8789,-7.8789,-7.8789,-7.8789,-7.8789,-7.8729,-7.8759,-7.84,-7.7951,-7.8506,-7.9774,-8.1569,-8.3256,-8.5147,-8.7418,-8.8632,-8.9072,-8.9106,-8.9275,-8.9884,-9.0763,-9.0696,-9.0831,-9.2252,-9.3165,-9.3537,-9.3571,-9.3571,-9.3571,-9.3571,-9.3571,-9.3571,-9.3571,-9.3571,-9.3571,-9.3571,-9.3571,-9.3571,-9.3571,-9.3571,-9.3571,-9.3571,-9.3571,-9.3605,-9.3943,-9.4079,-9.4918,-9.6052,-9.9007,-10.1647,-10.4051,-10.5974,-10.6096,-10.6376,-10.6376,-10.6376,-10.6376,-10.6376,-10.6376,-6.6112,-6.6112,-6.6112,-6.6112,-6.6086,-6.5911,-6.5735,-6.5484,-6.463,-6.4855,-6.615,-6.7367,-6.9038,-7.0988,-7.3052,-7.4258,-7.4869,-7.4869,-7.4869,-7.4869,-7.4869,-7.4869,-7.4869,-7.4869,-7.4869,-7.4869,-7.4869,-7.4869,-7.4869,-7.4869,-7.4869,-7.4869,-7.4869,-7.4869,-7.4869,-7.4869,-7.4869,-7.4869,-7.4869,-7.4869,-7.4869,-7.4869,-7.4869,-7.4869,-7.4869,-7.4869,-7.4869,-7.4869,-7.4869,-7.4899,-7.5527,-7.6485,-7.7592,-7.825,-7.8549,-7.8759,-7.8789,-7.8789,-7.8789,-7.8789,-7.8789,-7.8789,-7.8789,-7.8699,-7.8746,-7.9828,-8.1144,-8.262,-8.4426,-8.6489,-8.7778,-8.8632,-8.9106,-8.9106,-8.9545,-9.0188,-9.1237,-9.1981,-9.2692,-9.3098,-9.3436,-9.3571,-9.3571,-9.3571,-9.3571,-9.3571,-9.3571,-9.3571,-9.3571,-9.3571,-9.3571,-9.3571,-9.3571,-9.3571,-9.3571,-9.3571,-9.3571,-9.3673,-9.3706,-9.3876,-9.418,-9.5127,-9.5892,-9.7767,-10.064,-10.3027,-10.5422,-10.6376,-10.6376,-10.6376,-10.6376,-10.6376,-10.6376,-10.6376,-10.6376,-6.6112,-6.6112,-6.6112,-6.6112,-6.6112,-6.6112,-6.5961,-6.5685,-6.5082,-6.5234,-6.6314,-6.8361,-6.9681,-7.1162,-7.3672,-7.4869,-7.4869,-7.4869,-7.4869,-7.4869,-7.4869,-7.4869,-7.4869,-7.4869,-7.4869,-7.4869,-7.4869,-7.4869,-7.4869,-7.4869,-7.4869,-7.4869,-7.4869,-7.4869,-7.4869,-7.4869,-7.4869,-7.4869,-7.4869,-7.4869,-7.4869,-7.4869,-7.4988,-7.5198,-7.5258,-7.5377,-7.5557,-7.5617,-7.5497,-7.5467,-7.6096,-7.7113,-7.81,-7.8579,-7.8789,-7.8789,-7.8789,-7.8789,-7.8789,-7.8789,-7.8789,-7.8789,-7.8789,-7.919,-7.9698,-8.0894,-8.2074,-8.4083,-8.558,-8.6977,-8.8228,-8.9072,-8.9478,-8.9512,-8.9918,-9.0662,-9.1609,-9.2793,-9.347,-9.3537,-9.3571,-9.3571,-9.3571,-9.3571,-9.3571,-9.3571,-9.3571,-9.3571,-9.3571,-9.3571,-9.3571,-9.3571,-9.3571,-9.3571,-9.3571,-9.3571,-9.3571,-9.374,-9.3909,-9.418,-9.4518,-9.6208,-9.7425,-10.0196,-10.3004,-10.4019,-10.6082,-10.6302,-10.6376,-10.6376,-10.6376,-10.6376,-10.6376,-10.6376,-10.6376,-6.6162,-6.6112,-6.6112,-6.6112,-6.6112,-6.6112,-6.5835,-6.5503,-6.5233,-6.489,-6.5213,-6.826,-6.9702,-7.0304,-7.3598,-7.5048,-7.4929,-7.4869,-7.4869,-7.4899,-7.4958,-7.4988,-7.4899,-7.4869,-7.4869,-7.4869,-7.4869,-7.4869,-7.4869,-7.4869,-7.4869,-7.4869,-7.4988,-7.4958,-7.5048,-7.4988,-7.5108,-7.5048,-7.4988,-7.4988,-7.4899,-7.4988,-7.5228,-7.5826,-7.5916,-7.6185,-7.6544,-7.6694,-7.6544,-7.6245,-7.7113,-7.7951,-7.8609,-7.8789,-7.8789,-7.8789,-7.8789,-7.8849,-7.8849,-7.8819,-7.8908,-7.9088,-7.9173,-7.9678,-8.1171,-8.2056,-8.3435,-8.6103,-8.693,-8.7644,-8.915,-8.985,-9.0256,-9.0357,-9.056,-9.1135,-9.2218,-9.3098,-9.3503,-9.3571,-9.3571,-9.3571,-9.3571,-9.3571,-9.3571,-9.3571,-9.3571,-9.3571,-9.3571,-9.3571,-9.3571,-9.3571,-9.3571,-9.3571,-9.3571,-9.3977,-9.4011,-9.4214,-9.4485,-9.5044,-9.5603,-9.7483,-9.9518,-10.2238,-10.4309,-10.5362,-10.6009,-10.6266,-10.6376,-10.6376,-10.6376,-10.6376,-10.6449,-10.6486,-10.6486,-6.6513,-6.6137,-6.6112,-6.6112,-6.6112,-6.6112,-6.6036,-6.581,-6.5434,-6.5927,-6.7429,-6.9452,-7.1115,-7.2592,-7.4586,-7.5647,-7.5497,-7.5108,-7.4869,-7.4958,-7.5437,-7.5288,-7.4958,-7.4869,-7.4869,-7.4869,-7.4869,-7.4869,-7.4869,-7.4869,-7.4869,-7.4899,-7.5377,-7.5617,-7.5677,-7.6036,-7.6036,-7.5707,-7.5647,-7.5377,-7.5018,-7.5407,-7.5707,-7.5886,-7.6365,-7.6664,-7.6904,-7.7322,-7.7502,-7.7352,-7.7592,-7.81,-7.8789,-7.8878,-7.8908,-7.8849,-7.8849,-7.9028,-7.9327,-7.9118,-7.9267,-8.0105,-7.9892,-8.0555,-8.2729,-8.4235,-8.5791,-8.8005,-8.9161,-9.0134,-9.0581,-9.0865,-9.1203,-9.1744,-9.1812,-9.2015,-9.2455,-9.3098,-9.3571,-9.3571,-9.3571,-9.3571,-9.3571,-9.3571,-9.3571,-9.3571,-9.3571,-9.3571,-9.3571,-9.3571,-9.3571,-9.3571,-9.3571,-9.3571,-9.3706,-9.418,-9.4518,-9.4755,-9.5348,-9.618,-9.7296,-9.9042,-10.1223,-10.3736,-10.498,-10.6034,-10.6192,-10.6376,-10.6376,-10.6486,-10.6523,-10.6596,-10.667,-10.6743,-10.6743,-6.6639,-6.6112,-6.6112,-6.6262,-6.6413,-6.6212,-6.6162,-6.6359,-6.5981,-6.6179,-6.7651,-6.9976,-7.152,-7.2659,-7.5063,-7.6125,-7.5856,-7.5497,-7.5318,-7.5407,-7.6006,-7.5916,-7.5377,-7.5078,-7.4869,-7.4869,-7.4899,-7.4869,-7.4869,-7.4869,-7.4869,-7.4988,-7.5557,-7.5886,-7.5916,-7.6485,-7.6694,-7.6365,-7.6275,-7.5976,-7.5407,-7.5946,-7.6245,-7.6425,-7.6933,-7.7412,-7.8041,-7.8729,-7.8968,-7.8759,-7.8699,-7.8938,-7.9537,-7.9656,-7.9507,-7.9297,-7.9447,-7.9746,-7.9746,-7.9656,-7.9986,-8.0671,-8.093,-8.2415,-8.4373,-8.6238,-8.7941,-8.9694,-9.0774,-9.1189,-9.1338,-9.1541,-9.2116,-9.2759,-9.3199,-9.3233,-9.2962,-9.33,-9.3537,-9.3571,-9.3571,-9.3571,-9.3605,-9.3605,-9.3605,-9.3571,-9.3571,-9.3571,-9.3571,-9.3571,-9.3605,-9.3605,-9.3706,-9.3774,-9.4079,-9.4518,-9.5332,-9.5603,-9.715,-9.7858,-9.913,-10.08,-10.2802,-10.4743,-10.575,-10.6413,-10.6486,-10.6559,-10.667,-10.6743,-10.678,-10.689,-10.7037,-10.7367,-10.733,-6.6815,-6.6287,-6.6287,-6.6589,-6.694,-6.6538,-6.6611,-6.698,-6.646,-6.6137,-6.7051,-6.9965,-7.174,-7.1492,-7.5477,-7.6664,-7.6185,-7.6066,-7.6096,-7.6245,-7.6544,-7.6485,-7.6185,-7.5587,-7.5258,-7.5138,-7.5048,-7.5018,-7.5048,-7.5018,-7.5078,-7.5318,-7.5826,-7.6125,-7.6455,-7.6844,-7.6993,-7.6963,-7.6933,-7.6604,-7.6215,-7.6574,-7.6904,-7.7053,-7.7771,-7.8639,-7.9567,-8.0255,-8.0405,-8.0045,-7.9956,-8.0135,-8.0674,-8.0764,-8.0494,-8.0105,-8.0315,-8.0434,-8.0225,-8.0524,-8.0853,-8.1329,-8.2632,-8.4413,-8.6162,-8.7856,-8.9707,-9.1312,-9.1541,-9.1812,-9.2049,-9.2387,-9.2962,-9.3673,-9.4315,-9.4417,-9.3943,-9.3774,-9.3808,-9.3808,-9.3842,-9.3808,-9.3808,-9.3808,-9.3876,-9.4417,-9.4282,-9.4248,-9.4146,-9.4045,-9.3876,-9.3554,-9.3842,-9.4045,-9.4451,-9.489,-9.5858,-9.6724,-9.9014,-10.0372,-10.1539,-10.2945,-10.4485,-10.5897,-10.6572,-10.6816,-10.6743,-10.6816,-10.6963,-10.711,-10.722,-10.7367,-10.7587,-10.8101,-10.8285,-6.7945,-6.7442,-6.7442,-6.7518,-6.7593,-6.7493,-6.7515,-6.7654,-6.6963,-6.741,-6.9227,-7.1339,-7.2985,-7.4506,-7.6387,-7.7502,-7.7233,-7.6904,-7.6874,-7.7322,-7.6933,-7.7143,-7.7143,-7.6694,-7.6155,-7.5916,-7.6185,-7.5856,-7.5347,-7.5796,-7.6155,-7.5856,-7.6664,-7.7382,-7.7412,-7.7831,-7.8071,-7.7711,-7.7592,-7.7263,-7.6874,-7.7263,-7.7622,-7.7741,-7.8759,-7.9746,-8.0345,-8.0731,-8.0971,-8.1093,-8.0943,-8.0764,-8.0913,-8.0913,-8.0823,-8.0704,-8.0734,-8.1003,-8.1242,-8.1153,-8.1272,-8.2529,-8.3777,-8.5258,-8.7572,-8.938,-9.118,-9.2676,-9.3098,-9.3233,-9.374,-9.4045,-9.4248,-9.4552,-9.5093,-9.5296,-9.4755,-9.4958,-9.5161,-9.5229,-9.5229,-9.5296,-9.5263,-9.5161,-9.5195,-9.5296,-9.5195,-9.5127,-9.489,-9.4586,-9.4383,-9.4061,-9.4349,-9.4687,-9.5281,-9.6113,-9.7597,-9.8627,-10.0765,-10.246,-10.3543,-10.4275,-10.5416,-10.6386,-10.7245,-10.7257,-10.7,-10.7183,-10.733,-10.7514,-10.7697,-10.7918,-10.8248,-10.8799,-10.8872,-6.8296,-6.7819,-6.7819,-6.7945,-6.812,-6.7919,-6.7995,-6.792,-6.7366,-6.7562,-6.9031,-7.1204,-7.3136,-7.4351,-7.6858,-7.813,-7.7801,-7.7472,-7.7472,-7.7771,-7.7711,-7.7981,-7.813,-7.7861,-7.7322,-7.6574,-7.6634,-7.6335,-7.6185,-7.6395,-7.6604,-7.6425,-7.7352,-7.7682,-7.7891,-7.846,-7.8549,-7.834,-7.825,-7.7951,-7.7502,-7.7921,-7.8489,-7.8938,-7.9986,-8.0943,-8.1212,-8.1661,-8.1961,-8.205,-8.1901,-8.1721,-8.1721,-8.1691,-8.1572,-8.1332,-8.1601,-8.1811,-8.205,-8.226,-8.292,-8.4329,-8.585,-8.7476,-8.9283,-9.1147,-9.2359,-9.3402,-9.3909,-9.4417,-9.5093,-9.5195,-9.5229,-9.533,-9.5872,-9.6074,-9.5838,-9.5804,-9.5804,-9.5804,-9.5702,-9.5702,-9.577,-9.6007,-9.5872,-9.5669,-9.5635,-9.5567,-9.5499,-9.5229,-9.5161,-9.506,-9.5127,-9.5398,-9.6146,-9.7487,-9.9674,-10.0975,-10.2702,-10.4022,-10.5072,-10.547,-10.5918,-10.6779,-10.7551,-10.7367,-10.722,-10.7477,-10.7844,-10.8211,-10.8431,-10.8578,-10.8835,-10.9349,-10.9129,-6.8472,-6.8045,-6.8045,-6.8321,-6.8622,-6.8296,-6.8294,-6.849,-6.7617,-6.7439,-6.7887,-7.0961,-7.283,-7.3449,-7.7033,-7.8256,-7.81,-7.7981,-7.8041,-7.81,-7.843,-7.8579,-7.8669,-7.8519,-7.816,-7.7203,-7.7263,-7.7113,-7.6844,-7.7023,-7.7233,-7.7143,-7.7652,-7.8041,-7.813,-7.846,-7.8759,-7.8699,-7.8669,-7.8489,-7.81,-7.8489,-7.9028,-7.9986,-8.0913,-8.1691,-8.1961,-8.232,-8.2679,-8.2769,-8.2769,-8.2769,-8.2769,-8.2858,-8.2798,-8.226,-8.2798,-8.3068,-8.3217,-8.3639,-8.4457,-8.6473,-8.8233,-8.979,-9.12,-9.2738,-9.3721,-9.4129,-9.4586,-9.5161,-9.5838,-9.5973,-9.5939,-9.6074,-9.6582,-9.692,-9.6819,-9.6379,-9.6345,-9.6277,-9.6514,-9.6582,-9.648,-9.6514,-9.6277,-9.6108,-9.6074,-9.6074,-9.6041,-9.5973,-9.5939,-9.5973,-9.6041,-9.6929,-9.7609,-9.9583,-10.1646,-10.2614,-10.4297,-10.5108,-10.5961,-10.6034,-10.634,-10.7122,-10.7624,-10.744,-10.7551,-10.7918,-10.8358,-10.8835,-10.9019,-10.8982,-10.9349,-10.99,-10.9472,-6.925,-6.9175,-6.9175,-6.9225,-6.9275,-6.92,-6.92,-6.907,-6.8597,-6.807,-6.8365,-7.1473,-7.292,-7.3745,-7.6914,-7.8555,-7.8549,-7.8519,-7.8549,-7.8549,-7.8759,-7.8789,-7.8789,-7.8789,-7.8609,-7.8549,-7.834,-7.7831,-7.7442,-7.7831,-7.7951,-7.7861,-7.825,-7.8549,-7.8579,-7.8759,-7.8789,-7.8789,-7.8789,-7.8669,-7.8729,-7.8998,-7.9567,-8.0584,-8.1482,-8.205,-8.2469,-8.2649,-8.2769,-8.2769,-8.2769,-8.2769,-8.2978,-8.3337,-8.3666,-8.3876,-8.4055,-8.4145,-8.4572,-8.4569,-8.5516,-8.7215,-8.9273,-9.1027,-9.2641,-9.4255,-9.5041,-9.5364,-9.5499,-9.5905,-9.6616,-9.6785,-9.6751,-9.692,-9.7292,-9.7597,-9.7225,-9.7225,-9.7428,-9.7326,-9.7428,-9.7461,-9.7258,-9.7157,-9.7123,-9.7056,-9.7089,-9.7123,-9.7157,-9.6988,-9.6974,-9.7008,-9.7076,-9.8121,-9.9331,-10.1645,-10.3615,-10.4036,-10.5017,-10.5663,-10.6291,-10.6291,-10.6706,-10.7624,-10.7844,-10.7624,-10.7881,-10.8248,-10.8395,-10.8542,-10.8909,-10.9239,-10.9496,-10.9803,-10.9981,-6.9451,-6.9451,-6.9451,-6.9451,-6.9451,-6.9451,-6.9451,-6.9376,-6.8848,-6.9075,-7.0309,-7.2206,-7.3888,-7.5142,-7.7328,-7.8789,-7.8819,-7.8789,-7.8789,-7.8789,-7.8789,-7.8789,-7.8789,-7.8789,-7.8789,-7.8759,-7.8729,-7.8519,-7.7951,-7.843,-7.8579,-7.8489,-7.8669,-7.8789,-7.8789,-7.8789,-7.8789,-7.8789,-7.8789,-7.8968,-7.9387,-7.9836,-8.0734,-8.1242,-8.1901,-8.2409,-8.2649,-8.2769,-8.2769,-8.2769,-8.2769,-8.3128,-8.3636,-8.3965,-8.4205,-8.4325,-8.4564,-8.5481,-8.6397,-8.6761,-8.8012,-9.0703,-9.1803,-9.2843,-9.413,-9.5217,-9.6007,-9.6277,-9.6413,-9.665,-9.7394,-9.7732,-9.8003,-9.807,-9.8375,-9.8341,-9.8138,-9.807,-9.8104,-9.8138,-9.7935,-9.7834,-9.7867,-9.7834,-9.7935,-9.8003,-9.8003,-9.8003,-9.8003,-9.7766,-9.7584,-9.8156,-9.8513,-10.0126,-10.1252,-10.313,-10.4835,-10.5234,-10.5538,-10.6169,-10.6376,-10.6376,-10.722,-10.8285,-10.8211,-10.7624,-10.7734,-10.7918,-10.8064,-10.8285,-10.8615,-10.8945,-10.9276,-10.9559,-10.9842,-6.9451,-6.9451,-6.9451,-6.9451,-6.9451,-6.9451,-6.9451,-6.9351,-6.8999,-6.9978,-7.195,-7.3212,-7.4782,-7.6616,-7.7888,-7.8849,-7.8968,-7.9028,-7.9058,-7.9058,-7.9088,-7.8998,-7.8819,-7.8789,-7.8789,-7.8789,-7.8789,-7.8789,-7.8639,-7.8759,-7.8789,-7.8729,-7.8759,-7.8789,-7.8789,-7.8789,-7.8789,-7.8789,-7.8819,-7.9148,-7.9956,-8.1033,-8.1781,-8.1841,-8.2409,-8.2739,-8.2769,-8.2769,-8.2888,-8.2918,-8.2978,-8.3337,-8.4414,-8.4714,-8.4659,-8.4726,-8.53,-8.6731,-8.7943,-8.9285,-9.0557,-9.336,-9.4058,-9.4995,-9.5833,-9.6392,-9.6582,-9.6988,-9.7123,-9.7292,-9.7867,-9.8612,-9.8916,-9.9018,-9.9051,-9.9187,-9.9085,-9.895,-9.8713,-9.8578,-9.8307,-9.8172,-9.8138,-9.8003,-9.8003,-9.8003,-9.8003,-9.8003,-9.8003,-9.8003,-9.8045,-9.9008,-10.0135,-10.2034,-10.3338,-10.43,-10.5542,-10.5911,-10.6084,-10.6291,-10.6376,-10.6376,-10.7404,-10.8285,-10.7844,-10.7367,-10.7477,-10.7697,-10.7991,-10.8211,-10.8395,-10.8945,-10.979,-10.9975,-11.0027,-6.9451,-6.9451,-6.9451,-6.9451,-6.9451,-6.9451,-6.9451,-6.9426,-6.9351,-7.0287,-7.2443,-7.3951,-7.5427,-7.6942,-7.8183,-7.9178,-7.9477,-7.9597,-7.9507,-7.9447,-7.9477,-7.9238,-7.8878,-7.8789,-7.8789,-7.8789,-7.8789,-7.8789,-7.8789,-7.8789,-7.8789,-7.8789,-7.8849,-7.8819,-7.8938,-7.8968,-7.8789,-7.8819,-7.8878,-7.9238,-7.9986,-8.1153,-8.1751,-8.1991,-8.238,-8.2769,-8.2769,-8.2769,-8.2978,-8.3457,-8.3038,-8.3457,-8.4444,-8.4714,-8.6032,-8.7428,-8.8551,-8.9164,-8.9877,-9.1014,-9.2682,-9.4782,-9.5243,-9.6088,-9.7068,-9.7529,-9.7563,-9.78,-9.7867,-9.7935,-9.8206,-9.8781,-9.9018,-9.9322,-9.9467,-9.9829,-9.9897,-9.9728,-9.9491,-9.9322,-9.9153,-9.8612,-9.8273,-9.8138,-9.8003,-9.8003,-9.8003,-9.8037,-9.852,-9.8846,-9.9843,-10.1178,-10.2276,-10.3981,-10.5127,-10.6144,-10.6429,-10.678,-10.6743,-10.6706,-10.6706,-10.6853,-10.7037,-10.7587,-10.733,-10.7587,-10.8028,-10.8211,-10.8138,-10.8064,-10.8138,-10.9276,-11.0707,-11.0613,-11.0421,-6.9451,-6.9451,-6.9451,-6.9451,-6.9451,-6.9451,-6.9451,-6.9451,-6.9426,-7.1303,-7.3916,-7.4801,-7.6317,-7.8176,-7.9155,-7.9297,-7.9387,-7.9656,-7.9567,-7.9357,-7.9297,-7.9118,-7.8878,-7.8789,-7.8789,-7.8789,-7.8789,-7.8789,-7.8789,-7.8819,-7.8789,-7.8878,-7.9178,-7.9387,-7.9357,-7.9387,-7.9627,-7.9926,-8.0285,-8.0434,-8.0734,-8.1572,-8.232,-8.232,-8.2619,-8.2739,-8.2798,-8.2769,-8.3098,-8.3547,-8.3427,-8.3995,-8.4923,-8.5468,-8.6393,-8.8886,-9.0465,-9.1636,-9.2768,-9.3526,-9.4945,-9.6192,-9.6806,-9.7413,-9.8251,-9.8307,-9.8273,-9.8578,-9.8612,-9.8612,-9.8882,-9.9728,-10.0202,-10.0438,-10.0244,-10.0574,-10.0709,-10.0472,-10.0269,-10.0134,-9.9931,-9.9424,-9.8848,-9.8476,-9.8307,-9.8138,-9.8486,-9.8711,-9.9811,-10.1047,-10.237,-10.4148,-10.5003,-10.6161,-10.698,-10.7754,-10.7754,-10.7918,-10.7881,-10.7734,-10.7367,-10.744,-10.7514,-10.7844,-10.8175,-10.8431,-10.8762,-10.8321,-10.7881,-10.7807,-10.7807,-10.9055,-11.0244,-11.1124,-11.1355,-6.9451,-6.9451,-6.9451,-6.9451,-6.9451,-6.9451,-6.9451,-6.9451,-6.9451,-7.1563,-7.4681,-7.5707,-7.7505,-7.9397,-7.9866,-7.9537,-7.9148,-7.9597,-7.9477,-7.9208,-7.9088,-7.9058,-7.8878,-7.8789,-7.8789,-7.8819,-7.9088,-7.8998,-7.8938,-7.9118,-7.9357,-7.9088,-7.9507,-7.9866,-7.9986,-7.9896,-7.9926,-8.0315,-8.1153,-8.1332,-8.1332,-8.211,-8.2589,-8.2739,-8.2769,-8.2828,-8.2978,-8.3038,-8.3367,-8.4175,-8.4115,-8.4624,-8.5671,-8.645,-8.7798,-9.011,-9.2095,-9.4067,-9.5309,-9.6362,-9.7007,-9.7774,-9.8442,-9.8622,-9.8453,-9.8476,-9.851,-9.9018,-9.9288,-9.9322,-9.9627,-10.0574,-10.098,-10.1183,-10.1352,-10.1487,-10.1555,-10.1318,-10.1183,-10.1149,-10.0912,-10.0405,-9.9796,-9.9085,-9.8679,-9.8499,-9.8656,-9.9383,-10.1061,-10.3081,-10.4326,-10.5939,-10.7111,-10.7744,-10.8052,-10.8639,-10.8835,-10.8872,-10.8799,-10.8468,-10.7881,-10.7661,-10.7697,-10.8175,-10.8835,-10.9055,-10.9202,-10.8395,-10.7661,-10.7918,-10.8211,-10.8615,-10.9545,-11.082,-11.2314,-6.9451,-6.9451,-6.9451,-6.9451,-6.9451,-6.9451,-6.9451,-6.9451,-6.9451,-7.0957,-7.3871,-7.6409,-7.8881,-8.0199,-8.0165,-7.9836,-7.9716,-7.9776,-7.9776,-7.969,-7.9749,-7.9331,-7.9148,-7.8908,-7.8849,-7.8908,-7.9267,-7.9267,-7.9238,-7.9956,-8.0016,-7.9896,-8.0105,-8.0315,-8.0464,-8.0494,-8.0165,-8.0524,-8.1302,-8.1811,-8.1841,-8.232,-8.2739,-8.2769,-8.2798,-8.3008,-8.3606,-8.3576,-8.4085,-8.5162,-8.4923,-8.5443,-8.6812,-8.7585,-8.9332,-9.1936,-9.3793,-9.5838,-9.7536,-9.8246,-9.87,-9.9187,-9.939,-9.9424,-9.9018,-9.9627,-9.9694,-9.9457,-9.9897,-10.01,-10.0371,-10.0844,-10.1487,-10.169,-10.1859,-10.2062,-10.213,-10.2198,-10.2096,-10.2164,-10.1792,-10.1216,-10.1053,-10.0499,-10.0098,-9.9879,-10.1173,-10.1913,-10.3615,-10.5252,-10.6047,-10.7364,-10.8784,-10.9269,-10.8881,-10.9202,-10.9643,-10.9386,-10.9055,-10.8578,-10.7991,-10.7918,-10.8285,-10.8652,-10.9312,-10.9459,-10.9533,-10.8872,-10.8431,-10.8468,-10.8774,-10.935,-11.0619,-11.2289,-11.359,-6.9451,-6.9451,-6.9451,-6.9451,-6.9451,-6.9451,-6.9451,-6.9451,-6.9451,-7.1563,-7.4849,-7.7326,-7.9247,-8.0378,-8.0584,-8.0165,-7.9866,-7.9806,-8.0075,-8.0105,-7.9956,-7.9627,-7.9442,-7.9352,-7.9203,-7.9058,-7.9477,-7.9776,-7.9627,-8.0494,-8.0913,-8.0913,-8.0943,-8.1123,-8.1272,-8.1362,-8.1123,-8.0853,-8.1572,-8.22,-8.1931,-8.238,-8.2769,-8.2769,-8.2769,-8.3098,-8.3606,-8.3726,-8.4534,-8.5282,-8.5402,-8.6506,-8.7889,-8.886,-9.0807,-9.3526,-9.5241,-9.6957,-9.8608,-9.9187,-9.9288,-9.9762,-10.0032,-10.01,-9.9694,-10.0269,-10.0472,-10.0506,-10.0709,-10.0912,-10.1047,-10.1589,-10.213,-10.2164,-10.2265,-10.2468,-10.2536,-10.2536,-10.2502,-10.2367,-10.2198,-10.1859,-10.1893,-10.1879,-10.163,-10.1474,-10.3076,-10.454,-10.6124,-10.735,-10.7979,-10.8561,-10.9839,-11.0399,-11.0047,-11.0267,-11.056,-11.001,-10.9423,-10.9019,-10.8652,-10.9055,-10.9386,-10.9643,-10.9753,-10.9973,-10.99,-10.9459,-10.9166,-10.8982,-10.9545,-11.0323,-11.1953,-11.3664,-11.4671,-6.9451,-6.9451,-6.9451,-6.9451,-6.9451,-6.9451,-6.9451,-6.9451,-6.9451,-7.1939,-7.6207,-7.7731,-7.9247,-8.0467,-8.0794,-8.0405,-8.0045,-8.0075,-8.0405,-8.0434,-8.0372,-8.0102,-8.0012,-7.9832,-7.9677,-7.9417,-7.9776,-8.0105,-8.0165,-8.0973,-8.1392,-8.1691,-8.1961,-8.205,-8.217,-8.2409,-8.217,-8.1661,-8.202,-8.2589,-8.22,-8.2499,-8.2769,-8.2769,-8.2769,-8.3277,-8.3846,-8.4205,-8.4803,-8.5611,-8.6344,-8.7213,-8.8774,-9.036,-9.2063,-9.4436,-9.6497,-9.7876,-9.8978,-9.9728,-9.9999,-10.0506,-10.0912,-10.1014,-10.0912,-10.0878,-10.125,-10.1183,-10.1487,-10.1724,-10.1724,-10.2164,-10.2401,-10.2367,-10.2401,-10.2536,-10.2536,-10.2536,-10.2536,-10.2468,-10.2333,-10.2454,-10.3815,-10.4194,-10.4695,-10.4675,-10.5607,-10.7038,-10.8413,-10.9345,-10.9749,-11.0261,-11.0839,-11.1074,-11.1148,-11.1001,-11.0854,-11.0671,-11.012,-10.9826,-10.9716,-10.99,-10.99,-10.9863,-11.001,-11.045,-11.045,-11.023,-10.979,-10.9349,-11.0276,-11.1335,-11.2621,-11.4199,-11.5172,-6.9451,-6.9451,-6.9451,-6.9451,-6.9451,-6.9451,-6.9451,-6.9426,-6.9786,-7.2114,-7.6014,-7.7731,-7.9247,-8.0586,-8.0823,-8.0494,-8.0195,-8.0464,-8.0853,-8.0943,-8.0941,-8.0764,-8.0612,-8.0252,-8.0218,-8.0584,-8.0674,-8.0614,-8.0794,-8.1811,-8.217,-8.214,-8.235,-8.2589,-8.2709,-8.2739,-8.238,-8.1961,-8.2499,-8.2619,-8.2679,-8.2709,-8.2739,-8.2769,-8.2769,-8.3277,-8.4205,-8.4474,-8.5162,-8.618,-8.6449,-8.7702,-8.9619,-9.1235,-9.3111,-9.5343,-9.767,-9.9206,-10.0168,-10.0912,-10.125,-10.1386,-10.1724,-10.1724,-10.1047,-10.1318,-10.1995,-10.1758,-10.1995,-10.2333,-10.2434,-10.2468,-10.2502,-10.2536,-10.2536,-10.2536,-10.2536,-10.2502,-10.2502,-10.3039,-10.2947,-10.3132,-10.5076,-10.6524,-10.7575,-10.8106,-10.8529,-10.933,-11.0353,-11.0644,-11.0754,-11.0881,-11.1221,-11.1221,-11.1221,-11.1221,-11.1111,-11.1001,-11.0707,-11.0304,-10.9826,-10.9533,-10.9643,-10.9936,-11.0267,-11.0634,-11.0928,-11.1111,-11.0698,-11.044,-11.1372,-11.244,-11.3588,-11.4671,-11.5625,-6.9451,-6.9451,-6.9451,-6.9451,-6.9451,-6.9451,-6.9451,-6.9606,-7.1111,-7.3448,-7.5986,-7.7731,-7.9247,-8.0318,-8.0823,-8.0704,-8.0584,-8.0614,-8.1003,-8.1961,-8.1661,-8.1511,-8.1271,-8.0911,-8.0671,-8.0704,-8.0823,-8.1123,-8.1452,-8.238,-8.2619,-8.2589,-8.2589,-8.2739,-8.2769,-8.2739,-8.2589,-8.2499,-8.2679,-8.2739,-8.2769,-8.2769,-8.2769,-8.2769,-8.2769,-8.3457,-8.4594,-8.4714,-8.5462,-8.6479,-8.6817,-8.8256,-9.0685,-9.241,-9.4164,-9.6824,-9.9424,-10.0438,-10.1318,-10.2028,-10.2096,-10.2198,-10.2231,-10.2231,-10.1927,-10.213,-10.2265,-10.2198,-10.2299,-10.2536,-10.2502,-10.2502,-10.2536,-10.2536,-10.2536,-10.2536,-10.2502,-10.2502,-10.2725,-10.3687,-10.3986,-10.5308,-10.6918,-10.7906,-10.8932,-10.9636,-10.9948,-11.0113,-11.0897,-11.1023,-11.1096,-11.1096,-11.1221,-11.1221,-11.1221,-11.1221,-11.1221,-11.1111,-11.0817,-11.0414,-10.99,-10.9606,-10.9936,-11.0487,-11.0671,-11.0817,-11.1038,-11.1323,-11.1568,-11.1761,-11.2515,-11.3339,-11.4313,-11.5228,-11.609,-6.9451,-6.9451,-6.9451,-6.9451,-6.9451,-6.9451,-6.9786,-7.0782,-7.2931,-7.5262,-7.7301,-7.8896,-8.0065,-8.0914,-8.1153,-8.1153,-8.1153,-8.1452,-8.1661,-8.2649,-8.235,-8.22,-8.1871,-8.1482,-8.1362,-8.1302,-8.1272,-8.1482,-8.211,-8.2529,-8.2709,-8.2709,-8.2769,-8.2769,-8.2769,-8.2739,-8.2739,-8.2709,-8.2769,-8.2769,-8.2769,-8.2769,-8.2769,-8.2828,-8.3068,-8.3636,-8.4444,-8.5043,-8.5521,-8.6487,-8.7668,-8.911,-9.1524,-9.3452,-9.5274,-9.8066,-10.0134,-10.1149,-10.2096,-10.2434,-10.2401,-10.2468,-10.2536,-10.2536,-10.2536,-10.2468,-10.2502,-10.2468,-10.2536,-10.2536,-10.2536,-10.2536,-10.2536,-10.2536,-10.2536,-10.2536,-10.2502,-10.2502,-10.3132,-10.4073,-10.5158,-10.681,-10.8454,-10.9318,-11.0113,-11.0717,-11.1096,-11.1221,-11.1221,-11.1221,-11.1221,-11.1221,-11.1221,-11.1221,-11.1221,-11.1221,-11.1221,-11.1221,-11.0891,-11.0487,-11.0634,-11.0487,-11.0781,-11.0964,-11.0964,-11.1001,-11.1162,-11.1423,-11.1991,-11.2627,-11.3438,-11.4261,-11.5078,-11.5766,-11.64,-6.9451,-6.9451,-6.9451,-6.9451,-6.9451,-6.9451,-7.0605,-7.2784,-7.5094,-7.725,-7.9372,-8.0748,-8.1542,-8.1721,-8.1751,-8.1691,-8.1811,-8.229,-8.2559,-8.2709,-8.271,-8.2619,-8.238,-8.208,-8.205,-8.217,-8.214,-8.1901,-8.2649,-8.2739,-8.2739,-8.2769,-8.2769,-8.2769,-8.2769,-8.2769,-8.2769,-8.2769,-8.2769,-8.2769,-8.2769,-8.2769,-8.2769,-8.2888,-8.3307,-8.3906,-8.4654,-8.5252,-8.591,-8.7019,-8.8379,-9.0244,-9.2237,-9.4208,-9.6528,-9.8784,-10.0709,-10.169,-10.2333,-10.2502,-10.2536,-10.2536,-10.2536,-10.2536,-10.2536,-10.2536,-10.2536,-10.2536,-10.2536,-10.2536,-10.2536,-10.2536,-10.2536,-10.2536,-10.2536,-10.2502,-10.2502,-10.2947,-10.3563,-10.452,-10.5504,-10.7026,-10.8989,-11.0186,-11.0663,-11.0881,-11.1221,-11.1221,-11.1221,-11.1221,-11.1221,-11.1221,-11.1221,-11.1221,-11.1184,-11.1074,-11.0854,-11.0744,-11.0854,-11.0634,-11.0928,-11.1074,-11.1111,-11.1111,-11.1184,-11.136,-11.1594,-11.2146,-11.2738,-11.349,-11.4223,-11.4812,-11.5573,-11.5954,-11.6484,-6.9451,-6.9451,-6.9451,-6.9451,-6.9451,-6.9451,-7.0782,-7.2957,-7.5094,-7.7278,-7.956,-8.1083,-8.1841,-8.1781,-8.1781,-8.1811,-8.205,-8.238,-8.2649,-8.2769,-8.2769,-8.2769,-8.2499,-8.229,-8.238,-8.232,-8.229,-8.217,-8.2619,-8.2769,-8.2769,-8.2769,-8.2769,-8.2769,-8.2769,-8.2769,-8.2769,-8.2769,-8.2769,-8.2769,-8.2769,-8.2769,-8.2769,-8.2948,-8.3457,-8.4115,-8.4714,-8.5402,-8.606,-8.6952,-8.8655,-9.0391,-9.2237,-9.4697,-9.7259,-10.0353,-10.1622,-10.2333,-10.2468,-10.2536,-10.2536,-10.2536,-10.2536,-10.2536,-10.2536,-10.2536,-10.2536,-10.2536,-10.2536,-10.2536,-10.2536,-10.2536,-10.2536,-10.2536,-10.2502,-10.2631,-10.2853,-10.3473,-10.4315,-10.5959,-10.6918,-10.8353,-11.0223,-11.0536,-11.1007,-11.1096,-11.1221,-11.1221,-11.1221,-11.1221,-11.1221,-11.1221,-11.1221,-11.1221,-11.0928,-11.0781,-11.0487,-11.0304,-11.045,-11.0597,-11.0671,-11.0817,-11.1111,-11.1272,-11.1323,-11.1726,-11.2109,-11.2738,-11.3464,-11.4263,-11.4983,-11.5482,-11.5954,-11.627,-11.6484,-6.9451,-6.9451,-6.9451,-6.9451,-6.9451,-6.9451,-7.1111,-7.3935,-7.5624,-7.7767,-8.0717,-8.1866,-8.217,-8.22,-8.22,-8.22,-8.226,-8.2559,-8.2769,-8.2769,-8.2769,-8.2769,-8.2529,-8.25,-8.259,-8.2469,-8.2469,-8.2409,-8.2709,-8.2769,-8.2769,-8.2769,-8.2769,-8.2769,-8.2769,-8.2769,-8.2769,-8.2769,-8.2769,-8.2769,-8.2769,-8.2769,-8.2769,-8.2948,-8.3576,-8.4295,-8.4803,-8.5521,-8.6681,-8.7917,-8.965,-9.1524,-9.372,-9.6234,-9.8084,-10.0912,-10.1859,-10.2299,-10.2536,-10.2536,-10.2536,-10.2536,-10.2536,-10.2536,-10.2536,-10.2536,-10.2536,-10.2536,-10.2536,-10.2536,-10.2536,-10.2536,-10.2536,-10.2536,-10.2631,-10.2853,-10.3348,-10.4073,-10.5733,-10.7593,-10.9025,-11.0352,-11.1133,-11.1221,-11.1221,-11.1221,-11.1221,-11.1221,-11.1221,-11.1221,-11.1221,-11.1221,-11.1221,-11.1221,-11.0891,-11.0634,-11.045,-11.0267,-11.023,-11.034,-11.0414,-11.0707,-11.1111,-11.141,-11.1509,-11.2065,-11.2586,-11.3464,-11.4199,-11.4907,-11.552,-11.5905,-11.6224,-11.6355,-11.6484,-6.9451,-6.9451,-6.9451,-6.9451,-6.9451,-6.9451,-7.1939,-7.593,-7.6097,-7.8603,-8.207,-8.2739,-8.2679,-8.2619,-8.2619,-8.2619,-8.2619,-8.2739,-8.2769,-8.2769,-8.2769,-8.2769,-8.2769,-8.2739,-8.2649,-8.2709,-8.2709,-8.2619,-8.2709,-8.2769,-8.2769,-8.2769,-8.2769,-8.2769,-8.2769,-8.2769,-8.2769,-8.2769,-8.2769,-8.2769,-8.2769,-8.2769,-8.2828,-8.3098,-8.3876,-8.4773,-8.5132,-8.623,-8.7668,-8.9531,-9.1524,-9.3355,-9.5904,-9.8043,-9.9619,-10.065,-10.1859,-10.2333,-10.2536,-10.2536,-10.2536,-10.2536,-10.2536,-10.2536,-10.2536,-10.2536,-10.2536,-10.2536,-10.2536,-10.2536,-10.2536,-10.2536,-10.2536,-10.2536,-10.2631,-10.3166,-10.3986,-10.5158,-10.7133,-10.8791,-11.0,-11.1133,-11.1221,-11.1221,-11.1221,-11.1221,-11.1221,-11.1221,-11.1221,-11.1221,-11.1221,-11.1221,-11.1221,-11.1184,-11.1001,-11.0744,-11.0524,-11.0377,-11.023,-11.023,-11.0377,-11.0744,-11.1236,-11.1668,-11.2095,-11.2546,-11.3108,-11.3968,-11.479,-11.5375,-11.5905,-11.627,-11.6484,-11.6484,-11.6484,-6.9451,-6.9451,-6.9451,-6.9451,-6.9451,-6.9451,-7.1939,-7.5958,-7.6124,-7.8763,-8.2253,-8.2769,-8.2769,-8.2769,-8.2769,-8.2769,-8.2769,-8.2769,-8.2769,-8.2769,-8.2769,-8.2769,-8.2769,-8.2769,-8.2769,-8.2769,-8.2769,-8.2769,-8.2769,-8.2769,-8.2769,-8.2769,-8.2769,-8.2769,-8.2769,-8.2769,-8.2769,-8.2769,-8.2769,-8.2769,-8.2769,-8.2858,-8.2948,-8.3517,-8.4325,-8.5138,-8.5899,-8.7554,-8.8715,-8.9948,-9.2907,-9.5441,-9.8119,-9.9442,-10.0472,-10.1149,-10.1927,-10.2367,-10.2536,-10.2536,-10.2536,-10.2536,-10.2536,-10.2536,-10.2536,-10.2536,-10.2536,-10.2536,-10.2536,-10.2536,-10.2536,-10.2536,-10.2536,-10.2536,-10.2725,-10.3687,-10.4605,-10.6591,-10.8555,-10.9643,-11.0791,-11.1096,-11.1221,-11.1221,-11.1221,-11.1221,-11.1221,-11.1221,-11.1221,-11.1221,-11.1221,-11.1221,-11.1221,-11.1148,-11.1001,-11.0744,-11.0487,-11.034,-11.0157,-11.023,-11.0377,-11.0781,-11.1272,-11.2169,-11.2732,-11.3221,-11.3769,-11.4671,-11.5321,-11.5855,-11.609,-11.64,-11.6484,-11.6484,-11.6484,-6.8723,-6.8748,-6.8974,-6.9074,-6.9304,-7.0325,-7.2931,-7.593,-7.7086,-7.9589,-8.2435,-8.2769,-8.2769,-8.2769,-8.2769,-8.2769,-8.2769,-8.2769,-8.2769,-8.2769,-8.2769,-8.2769,-8.2769,-8.2769,-8.2769,-8.2769,-8.2769,-8.2769,-8.2769,-8.2769,-8.2769,-8.2769,-8.2769,-8.2769,-8.2769,-8.2769,-8.2769,-8.2769,-8.2769,-8.2769,-8.2828,-8.3008,-8.3277,-8.3876,-8.4594,-8.5533,-8.7128,-8.8829,-9.0266,-9.2063,-9.5045,-9.685,-9.87,-9.9636,-10.054,-10.1318,-10.1995,-10.2536,-10.2536,-10.2536,-10.2536,-10.2536,-10.2536,-10.2536,-10.2536,-10.2536,-10.2536,-10.2536,-10.2536,-10.2536,-10.2536,-10.2536,-10.2536,-10.2536,-10.3473,-10.4639,-10.6481,-10.8655,-10.9774,-11.0536,-11.1096,-11.1133,-11.1221,-11.1221,-11.1221,-11.1221,-11.1221,-11.1221,-11.1221,-11.1221,-11.1221,-11.1221,-11.1221,-11.1184,-11.1111,-11.0744,-11.034,-11.023,-11.0193,-11.0414,-11.0634,-11.0928,-11.1447,-11.238,-11.3185,-11.3844,-11.4512,-11.5266,-11.5766,-11.6224,-11.6355,-11.6484,-11.6484,-11.6484,-11.6484,-6.7844,-6.7894,-6.8396,-6.8622,-6.9029,-7.153,-7.4015,-7.6235,-7.847,-8.0591,-8.2587,-8.2769,-8.2769,-8.2769,-8.2769,-8.2769,-8.2769,-8.2769,-8.2769,-8.2769,-8.2769,-8.2769,-8.2769,-8.2769,-8.2769,-8.2769,-8.2769,-8.2769,-8.2769,-8.2769,-8.2769,-8.2769,-8.2769,-8.2769,-8.2769,-8.2769,-8.2769,-8.2769,-8.2769,-8.2769,-8.3008,-8.3337,-8.3606,-8.4145,-8.5297,-8.6823,-8.8159,-9.0214,-9.2173,-9.4176,-9.6483,-9.7875,-9.8926,-9.9796,-10.0574,-10.1318,-10.2096,-10.2434,-10.2536,-10.2536,-10.2536,-10.2536,-10.2536,-10.2536,-10.2536,-10.2536,-10.2536,-10.2536,-10.2536,-10.2536,-10.2536,-10.2536,-10.2536,-10.2947,-10.4315,-10.5811,-10.801,-11.0093,-11.0754,-11.1221,-11.1221,-11.1221,-11.1221,-11.1221,-11.1221,-11.1221,-11.1221,-11.1221,-11.1221,-11.1221,-11.1221,-11.1221,-11.1221,-11.1184,-11.1184,-11.0744,-11.0267,-11.045,-11.0524,-11.0707,-11.0979,-11.1435,-11.1901,-11.2738,-11.3534,-11.4389,-11.5116,-11.5855,-11.6309,-11.6484,-11.6484,-11.6484,-11.6484,-11.6484,-11.6484,-6.7819,-6.7844,-6.8396,-6.8597,-6.9029,-7.1705,-7.4085,-7.6338,-7.8508,-8.0747,-8.2405,-8.2769,-8.2769,-8.2769,-8.2769,-8.2769,-8.2769,-8.2769,-8.2769,-8.2769,-8.2769,-8.2769,-8.2769,-8.2769,-8.2769,-8.2769,-8.2769,-8.2769,-8.2769,-8.2769,-8.2769,-8.2769,-8.2769,-8.2769,-8.2769,-8.2769,-8.2769,-8.2769,-8.2769,-8.2769,-8.2769,-8.3128,-8.3666,-8.4758,-8.6303,-8.782,-8.9566,-9.2499,-9.404,-9.5475,-9.6967,-9.8261,-9.9187,-9.9965,-10.0709,-10.1453,-10.2198,-10.2401,-10.2536,-10.2536,-10.2536,-10.2536,-10.2536,-10.2536,-10.2536,-10.2536,-10.2536,-10.2536,-10.2536,-10.2536,-10.2536,-10.2536,-10.2631,-10.3721,-10.4876,-10.681,-10.889,-11.0223,-11.1096,-11.1221,-11.1221,-11.1221,-11.1221,-11.1221,-11.1221,-11.1221,-11.1221,-11.1221,-11.1221,-11.1221,-11.1221,-11.1221,-11.1221,-11.1221,-11.1184,-11.0707,-11.034,-11.0597,-11.0832,-11.0992,-11.1288,-11.1909,-11.2586,-11.3464,-11.4263,-11.5116,-11.5855,-11.627,-11.6355,-11.6484,-11.6484,-11.6484,-11.6484,-11.6484,-11.6484]}]]